[[{"header":{"parameterUnit":"m.s-1","parameterCategory":1,"la1":30.6,"la2":28.766,"lo1":-90.7593,"lo2":-88.6598,"dy":0.0162,"dx":0.0183,"nx":116,"ny":114,"refTime":"2023-04-12T12:00:00:Z","depth":0,"parameterNumber":2,"parameterNumberName":"U-component_of_WINDS"},"data":[0.0,0.0,0.0,0.0,0.0,0.0,0.0,0.0,0.0,0.0,0.0,0.0,0.0,0.0,0.0,0.0,0.0,0.0,0.0,0.0,0.0,0.0,0.0,0.0,0.0,0.0,0.0,0.0,0.0,0.0,0.0,0.0,0.0,0.0,0.0,0.0,0.0,0.0,0.0,0.0,0.0,0.0,0.0,0.0,0.0,0.0,0.0,0.0,0.0,0.0,0.0,0.0,0.0,0.0,0.0,0.0,0.0,0.0,0.0,0.0,0.0,0.0,0.0,0.0,0.0,0.0,0.0,0.0,0.0,0.0,0.0,0.0,0.0,0.0,0.0,0.0,0.0,0.0,0.0,0.0,0.0,0.0,0.0,0.0,0.0,0.0,0.0,0.0,0.0,0.0,0.0,0.0,0.0,0.0,0.0,0.0,0.0,0.0,0.0,0.0,0.0,0.0,0.0,0.0,0.0,0.0,0.0,0.0,0.0,0.0,0.0,0.0,0.0,0.0,0.0,0.0,0.0,0.0,0.0,0.0,0.0,0.0,0.0,0.0,0.0,0.0,0.0,0.0,0.0,0.0,0.0,0.0,0.0,0.0,0.0,0.0,0.0,0.0,0.0,0.0,0.0,0.0,0.0,0.0,0.0,0.0,0.0,0.0,0.0,0.0,0.0,0.0,0.0,0.0,0.0,0.0,0.0,0.0,0.0,0.0,0.0,0.0,0.0,0.0,0.0,0.0,0.0,0.0,0.0,0.0,0.0,0.0,0.0,0.0,0.0,0.0,0.0,0.0,0.0,0.0,0.0,0.0,0.0,0.0,0.0,0.0,0.0,0.0,0.0,0.0,0.0,0.0,0.0,0.0,0.0,0.0,0.0,0.0,0.0,0.0,0.0,0.0,0.0,0.0,0.0,0.0,0.0,0.0,0.0,0.0,0.0,0.0,0.0,0.0,0.0,0.0,0.0,0.0,0.0,0.0,0.0,0.0,0.0,0.0,0.0,0.0,0.0,0.0,0.0,0.0,0.0,0.0,0.0,0.0,0.0,0.0,0.0,0.0,0.0,0.0,0.0,0.0,0.0,0.0,0.0,0.0,0.0,0.0,0.0,0.0,0.0,0.0,0.0,0.0,0.0,0.0,0.0,0.0,0.0,0.0,0.0,0.0,0.0,0.0,0.0,0.0,0.0,0.0,0.0,0.0,0.0,0.0,0.0,0.0,0.0,0.0,0.0,0.0,0.0,0.0,0.0,0.0,0.0,0.0,0.0,0.0,0.0,0.0,0.0,0.0,0.0,0.0,0.0,0.0,0.0,0.0,0.0,0.0,0.0,0.0,0.0,0.0,0.0,0.0,0.0,0.0,0.0,0.0,0.0,0.0,0.0,0.0,0.0,0.0,0.0,0.0,0.0,0.0,0.0,0.0,0.0,0.0,0.0,0.0,0.0,0.0,0.0,0.0,0.0,0.0,0.0,0.0,0.0,0.0,0.0,0.0,0.0,0.0,0.0,0.0,0.0,0.0,0.0,0.0,0.0,0.0,0.0,0.0,0.0,0.0,0.0,0.0,0.0,0.0,0.0,0.0,0.0,0.0,0.0,0.0,0.0,0.0,0.0,0.0,0.0,0.0,0.0,0.0,0.0,0.0,0.0,0.0,0.0,0.0,0.0,0.0,0.0,0.0,0.0,0.0,0.0,0.0,0.0,0.0,0.0,0.0,0.0,0.0,0.0,0.0,0.0,0.0,0.0,0.0,0.0,0.0,0.0,0.0,0.0,0.0,0.0,0.0,0.0,0.0,0.0,0.0,0.0,0.0,0.0,0.0,0.0,0.0,0.0,0.0,0.0,0.0,0.0,0.0,0.0,0.0,0.0,0.0,0.0,0.0,0.0,0.0,0.0,0.0,0.0,0.0,0.0,0.0,0.0,0.0,0.0,0.0,0.0,0.0,0.0,0.0,0.0,0.0,0.0,0.0,0.0,0.0,0.0,0.0,0.0,0.0,0.0,0.0,0.0,0.0,0.0,0.0,0.0,0.0,0.0,0.0,0.0,0.0,0.0,0.0,0.0,0.0,0.0,0.0,0.0,0.0,0.0,0.0,0.0,0.0,0.0,0.0,0.0,0.0,0.0,0.0,0.0,0.0,0.0,0.0,0.0,0.0,0.0,0.0,0.0,0.0,0.0,0.0,0.0,0.0,0.0,0.0,0.0,0.0,0.0,0.0,0.0,0.0,0.0,0.0,0.0,0.0,0.0,0.0,0.0,0.0,0.0,0.0,0.0,0.0,0.0,0.0,0.0,0.0,0.0,0.0,0.0,0.0,0.0,0.0,0.0,0.0,0.0,0.0,0.0,0.0,0.0,0.0,0.0,0.0,0.0,0.0,0.0,0.0,0.0,0.0,0.0,0.0,0.0,0.0,0.0,0.0,0.0,0.0,0.0,0.0,0.0,0.0,0.0,0.0,0.0,0.0,0.0,0.0,0.0,0.0,0.0,0.0,0.0,0.0,0.0,0.0,0.0,0.0,0.0,0.0,0.0,0.0,0.0,0.0,0.0,0.0,0.0,0.0,0.0,0.0,0.0,0.0,0.0,0.0,0.0,0.0,0.0,0.0,0.0,0.0,0.0,0.0,0.0,0.0,0.0,0.0,0.0,0.0,0.0,0.0,0.0,0.0,0.0,0.0,0.0,0.0,0.0,0.0,0.0,0.0,0.0,0.0,0.0,0.0,0.0,0.0,0.0,0.0,0.0,0.0,0.0,0.0,0.0,0.0,0.0,0.0,0.0,0.0,0.0,0.0,0.0,0.0,0.0,0.0,0.0,0.0,0.0,0.0,0.0,0.0,0.0,0.0,0.0,0.0,0.0,0.0,0.0,0.0,0.0,0.0,0.0,0.0,0.0,0.0,0.0,0.0,0.0,0.0,0.0,0.0,0.0,0.0,0.0,0.0,0.0,0.0,0.0,0.0,0.0,0.0,0.0,0.0,0.0,0.0,0.0,0.0,0.0,0.0,0.0,0.0,0.0,0.0,0.0,0.0,0.0,0.0,0.0,0.0,0.0,0.0,0.0,0.0,0.0,0.0,0.0,0.0,0.0,0.0,0.0,0.0,0.0,0.0,0.0,0.0,0.0,0.0,0.0,0.0,0.0,0.0,0.0,0.0,0.0,0.0,0.0,0.0,0.0,0.0,0.0,0.0,0.0,0.0,0.0,0.0,0.0,0.0,0.0,0.0,0.0,0.0,0.0,0.0,0.0,0.0,0.0,0.0,0.0,0.0,0.0,0.0,0.0,0.0,0.0,0.0,0.0,0.0,0.0,0.0,0.0,0.0,0.0,0.0,0.0,0.0,0.0,0.0,0.0,0.0,0.0,0.0,0.0,0.0,0.0,0.0,0.0,0.0,0.0,0.0,0.0,0.0,0.0,0.0,0.0,0.0,0.0,0.0,0.0,0.0,0.0,0.0,0.0,0.0,0.0,0.0,0.0,0.0,0.0,0.0,0.0,0.0,0.0,0.0,0.0,0.0,0.0,0.0,0.0,0.0,0.0,0.0,0.0,0.0,0.0,0.0,0.0,0.0,0.0,0.0,0.0,0.0,0.0,0.0,0.0,0.0,0.0,0.0,0.0,0.0,0.0,0.0,0.0,0.0,0.0,0.0,0.0,0.0,0.0,0.0,0.0,0.0,0.0,0.0,0.0,0.0,0.0,0.0,0.0,0.0,0.0,0.0,0.0,0.0,0.0,0.0,0.0,0.0,0.0,0.0,0.0,0.0,0.0,0.0,0.0,0.0,0.0,0.0,0.0,0.0,0.0,0.0,0.0,0.0,0.0,0.0,0.0,0.0,0.0,0.0,0.0,0.0,0.0,0.0,0.0,0.0,0.0,0.0,0.0,0.0,0.0,0.0,0.0,0.0,0.0,0.0,0.0,0.0,0.0,0.0,0.0,0.0,0.0,0.0,0.0,0.0,0.0,0.0,0.0,0.0,0.0,0.0,0.0,0.0,0.0,0.0,0.0,0.0,0.0,0.0,0.0,0.0,0.0,0.0,0.0,0.0,0.0,0.0,0.0,0.0,0.0,0.0,0.0,0.0,0.0,0.0,0.0,0.0,0.0,0.0,0.0,0.0,0.0,0.0,0.0,0.0,0.0,0.0,0.0,0.0,0.0,0.0,0.0,0.0,0.0,0.0,0.0,0.0,0.0,0.0,0.0,0.0,0.0,0.0,0.0,0.0,0.0,0.0,0.0,0.0,0.0,0.0,0.0,0.0,0.0,0.0,0.0,0.0,0.0,0.0,0.0,0.0,0.0,0.0,0.0,0.0,0.0,0.0,0.0,0.0,0.0,0.0,0.0,0.0,0.0,0.0,0.0,0.0,0.0,0.0,0.0,0.0,0.0,0.0,0.0,0.0,0.0,0.0,0.0,0.0,0.0,0.0,0.0,0.0,0.0,0.0,0.0,0.0,0.0,0.0,0.0,0.0,0.0,0.0,0.0,0.0,0.0,0.0,0.0,0.0,0.0,0.0,0.0,0.0,0.0,0.0,0.0,0.0,0.0,0.0,0.0,0.0,0.0,0.0,0.0,0.0,0.0,0.0,0.0,0.0,0.0,0.0,0.0,0.0,0.0,0.0,0.0,0.0,0.0,0.0,0.0,0.0,0.0,0.0,0.0,0.0,0.0,0.0,0.0,0.0,0.0,0.0,0.0,0.0,0.0,0.0,0.0,0.0,0.0,0.0,0.0,0.0,0.0,0.0,0.0,0.0,0.0,0.0,0.0,0.0,0.0,0.0,0.0,0.0,0.0,0.0,0.0,0.0,0.0,0.0,0.0,0.0,0.0,0.0,0.0,0.0,0.0,0.0,0.0,0.0,0.0,0.0,0.0,0.0,0.0,0.0,0.0,0.0,0.0,0.0,0.0,0.0,0.0,0.0,0.0,0.0,0.0,0.0,0.0,0.0,0.0,0.0,0.0,0.0,0.0,0.0,0.0,0.0,0.0,0.0,0.0,0.0,0.0,0.0,0.0,0.0,0.0,0.0,0.0,0.0,0.0,0.0,0.0,0.0,0.0,0.0,0.0,0.0,0.0,0.0,0.0,0.0,0.0,0.0,0.0,0.0,0.0,0.0,0.0,0.0,0.0,0.0,0.0,0.0,0.0,0.0,0.0,0.0,0.0,0.0,0.0,0.0,0.0,0.0,0.0,0.0,0.0,0.0,0.0,0.0,0.0,0.0,0.0,0.0,0.0,0.0,0.0,0.0,0.0,0.0,0.0,0.0,0.0,0.0,0.0,0.0,0.0,0.0,0.0,0.0,0.0,0.0,0.0,0.0,0.0,0.0,0.0,0.0,0.0,0.0,0.0,0.0,0.0,0.0,0.0,0.0,0.0,0.0,0.0,0.0,0.0,0.0,0.0,0.0,0.0,0.0,0.0,0.0,0.0,0.0,0.0,0.0,0.0,0.0,0.0,0.0,0.0,0.0,0.0,0.0,0.0,0.0,0.0,0.0,0.0,0.0,0.0,0.0,0.0,0.0,0.0,0.0,0.0,0.0,0.0,0.0,0.0,0.0,0.0,0.0,0.0,0.0,0.0,0.0,0.0,0.0,0.0,0.0,0.0,0.0,0.0,0.0,0.0,0.0,0.0,0.0,0.0,0.0,0.0,0.0,0.0,0.0,0.0,0.0,0.0,0.0,0.0,0.0,0.0,0.0,0.0,0.0,0.0,0.0,0.0,0.0,0.0,0.0,0.0,0.0,0.0,0.0,0.0,0.0,0.0,0.0,0.0,0.0,0.0,0.0,0.0,0.0,0.0,0.0,0.0,0.0,0.0,0.0,0.0,0.0,0.0,0.0,0.0,0.0,0.0,0.0,0.0,0.0,0.0,0.0,0.0,0.0,0.0,0.0,0.0,0.0,0.0,0.0,0.0,0.0,0.0,0.0,0.0,0.0,0.0,0.0,0.0,0.0,0.0,0.0,0.0,0.0,0.0,0.0,0.0,0.0,0.0,0.0,0.0,0.0,0.0,0.0,0.0,0.0,0.0,0.0,0.0,0.0,0.0,0.0,0.0,0.0,0.0,0.0,0.0,0.0,0.0,0.0,0.0,0.0,0.0,0.0,1.7331,0.0,0.0,0.0,0.0,0.0,0.0,0.0,0.0,0.0,0.0,0.0,0.0,0.0,0.0,0.0,0.0,0.0,0.0,0.0,0.0,0.0,0.0,0.0,0.0,-1.3053,-1.254,-1.1723,-1.1277,0.0,0.0,0.0,0.0,0.0,0.0,0.0,0.0949,0.4295,0.7618,1.0921,1.039,0.8061,0.4142,0.6781,0.9226,1.1471,0.0,0.0,0.0,0.0,0.0,0.0,0.0,0.0,0.0,0.0,0.0,0.0,0.0,0.0,0.0,0.0,0.0,0.0,0.0,0.0,0.0,0.0,0.0,0.0,0.0,0.0,0.0,0.0,0.0,0.0,0.0,0.0,0.0,0.0,0.0,0.0,0.0,0.0,0.0,0.0,0.0,0.0,0.0,0.0,0.0,0.0,0.0,0.0,0.0,0.0,0.0,0.0,0.0,0.0,0.0,0.0,0.0,0.0,0.0,0.0,0.0,0.0,0.0,0.0,0.0,0.0,0.0,0.0,0.0,0.0,0.0,1.8383,0.0,0.0,0.0,0.0,0.0,0.0,0.0,0.0,0.0,0.0,0.0,0.0,0.0,0.0,0.0,0.0,0.0,0.0,0.0,0.0,0.0,-1.3486,-1.352,-1.3461,-1.2971,-1.1882,-1.1632,-1.0931,-0.9583,-0.8928,-0.8407,-0.8049,-0.6823,-0.4625,-0.1346,0.2184,0.5122,0.7437,0.5338,0.2561,-0.0747,-0.0451,0.1692,0.5485,0.9915,0.0,0.0,0.0,0.0,0.0,0.0,0.0,0.0,0.0,0.0,0.0,0.0,0.0,0.0,0.0,0.0,0.0,0.0,0.0,0.0,0.0,0.0,0.0,0.0,0.0,0.0,0.0,0.0,0.0,0.0,0.0,0.0,0.0,0.0,0.0,0.0,0.0,0.0,0.0,0.0,0.0,0.0,0.0,0.0,0.0,0.0,0.0,0.0,0.0,0.0,0.0,0.0,0.0,0.0,0.0,0.0,0.0,0.0,0.0,0.0,0.0,0.0,0.0,2.2763,2.2667,2.2473,2.2077,2.2111,2.2456,2.1428,2.1037,2.1017,0.0,0.0,0.0,0.0,0.0,0.0,0.0,0.0,0.0,0.0,0.0,0.0,0.0,0.0,0.0,0.0,0.0,0.0,0.0,0.0,-1.3775,-1.3594,-1.3771,-1.3344,-1.1918,-1.1662,-1.0998,-0.9597,-0.835,-0.7571,-0.7343,-0.4172,-0.077,0.2749,0.5635,0.6881,0.6406,-0.1169,-0.5166,-0.5745,-0.559,-0.5225,-0.4482,0.0753,0.3221,0.3688,0.0,0.0,0.0,0.0,0.0,0.0,0.0,0.0,0.0,0.0,0.0,0.0,0.0,0.0,0.0,0.0,0.0,0.0,0.0,0.0,0.0,0.0,0.0,0.0,0.0,0.0,0.0,0.0,0.0,0.0,0.0,0.0,0.0,0.0,0.0,0.0,0.0,0.0,0.0,0.0,0.0,1.7786,1.8651,0.0,0.0,0.0,0.0,0.0,0.0,0.0,0.0,0.0,0.0,0.0,0.0,0.0,2.2643,2.2628,2.268,2.2717,2.2714,2.2657,2.2558,2.2438,2.3101,2.3392,2.3366,2.3879,0.0,2.1077,2.0846,0.0,0.0,0.0,0.0,0.0,0.0,0.0,0.0,0.0,0.0,0.0,0.0,0.0,0.0,0.0,0.0,0.0,0.0,0.0,0.0,0.0,-1.4111,-1.3954,-1.3156,-1.29,-1.2091,-1.0442,-0.947,-0.8582,-0.7742,-0.4238,-0.0641,0.2957,0.3703,0.2339,-0.1164,-0.5002,-0.8179,-1.07,-1.0478,-1.0331,-1.0156,-0.7713,-0.3877,0.0921,0.2929,0.0,0.0,0.0,0.0,0.0,0.0,0.0,0.0,0.0,0.0,0.0,0.0,0.0,0.0,0.0,0.0,0.0,0.0,0.0,0.0,0.0,0.0,0.0,0.0,0.0,0.0,0.0,0.0,0.0,0.0,0.0,0.0,0.0,0.0,0.0,0.0,0.0,0.0,0.0,1.8695,1.9364,1.9756,2.0314,2.0629,0.0,0.0,0.0,0.0,0.0,0.0,0.0,0.0,0.0,2.3481,2.3491,2.3682,2.4144,2.4119,2.4117,2.4101,2.3957,2.3809,2.3717,2.4089,2.4129,2.3911,2.4385,2.3953,2.2865,2.2501,2.1945,2.128,0.0,0.0,0.0,0.0,2.1375,2.1796,0.0,0.0,0.0,0.0,0.0,0.0,0.0,0.0,0.0,0.0,0.0,0.0,-1.4203,-1.4532,-1.4592,-1.4152,-1.3976,-1.3031,-1.1044,-1.047,-0.956,-0.8119,-0.3845,-0.0187,0.2614,0.1417,-0.1857,-0.7204,-0.8413,-1.0771,-1.4119,-1.3903,-1.3757,-1.3657,-1.3563,-0.9675,-0.313,-0.1737,0.0727,0.0,0.0,0.0,0.0,0.0,0.0,0.0,0.0,0.0,0.0,0.0,0.0,0.0,0.0,0.0,0.0,0.0,0.0,0.0,0.0,0.0,0.0,0.0,0.0,0.0,0.0,0.0,0.0,0.0,0.0,0.0,0.0,0.0,0.0,0.0,0.0,0.0,0.0,2.0178,2.0629,2.0417,2.1375,2.1731,0.0,0.0,0.0,0.0,0.0,0.0,2.3202,2.3207,2.3543,2.4284,2.4312,2.4593,2.5191,2.5191,2.5174,2.5119,2.4974,2.4804,2.4626,2.4626,2.4486,2.4229,2.4365,2.4356,2.422,2.3806,2.3436,2.3084,2.2548,2.2122,2.1872,2.2148,2.2222,2.2301,0.0,0.0,0.0,0.0,0.0,0.0,0.0,0.0,0.0,0.0,0.0,-1.4606,-1.4486,-1.5061,-1.5109,-1.4264,-1.4291,-1.3329,-1.088,-1.0571,-0.9716,-0.798,-0.1516,0.2306,0.2875,0.0714,-0.2917,-0.8035,-1.2189,-1.4492,-1.5036,-1.4964,-1.5007,-1.5196,-1.5177,-1.3975,-1.1722,-0.7992,-0.618,-0.5085,0.0,0.0,0.0,0.0,0.0,0.0,0.0,0.0,0.0,0.0,0.0,0.0,0.0,0.0,0.0,0.0,0.0,0.0,0.0,0.0,0.0,0.0,0.0,0.0,0.0,0.0,0.0,0.0,0.0,0.0,0.0,0.0,0.0,0.0,0.0,0.0,0.0,0.0,0.0,2.0212,2.169,0.0,0.0,0.0,0.0,2.2839,2.2878,2.3237,2.4007,2.4049,2.4374,2.5127,2.5141,2.5162,2.5191,2.5191,2.5107,2.4915,2.4908,2.4734,2.4415,2.4415,2.4364,2.4284,2.4229,2.4182,2.4126,2.4211,2.3758,2.3009,2.2967,2.2449,2.1773,2.2217,2.2508,2.2776,0.0,0.0,0.0,0.0,0.0,0.0,-1.3607,-1.3703,-1.3749,-1.3811,-1.4446,-1.4915,-1.4947,-1.5602,-1.5932,-1.5758,-1.5697,-1.4998,-1.3376,-1.217,-0.9525,-0.501,0.0,0.211,0.0868,-0.3252,-0.7869,-1.2933,-1.4564,-1.563,-1.6118,-1.5849,-1.5753,-1.5803,-1.5462,-1.4948,-1.4199,-1.2124,-0.9481,-0.6423,-0.3269,0.1965,0.0,0.0,0.0,0.0,0.0,0.0,0.0,0.0,0.0,0.0,0.0,0.0,0.0,0.0,0.0,0.0,0.0,0.0,0.0,0.0,0.0,0.0,0.0,0.0,0.0,0.0,0.0,0.0,0.0,0.0,0.0,0.0,0.0,0.0,0.0,0.0,0.0,2.1856,2.2875,0.0,2.2512,2.3199,2.3671,2.3662,2.4156,2.4565,2.486,2.486,2.4975,2.5182,2.5204,2.5444,2.5969,2.5837,2.6024,2.6498,2.6255,2.6058,2.5931,2.5864,2.5764,2.5643,2.5623,2.5559,2.5463,2.5506,2.4702,2.346,2.3452,2.3151,2.2761,2.3062,2.3181,2.3274,0.0,0.0,0.0,0.0,0.0,0.0,-1.363,-1.3659,-1.3777,-1.4071,-1.4733,-1.5271,-1.5569,-1.614,-1.6563,-1.6722,-1.6642,-1.5944,-1.4356,-1.3171,-1.0328,-0.5409,-0.1711,-0.0945,-0.348,-0.6797,-1.1028,-1.6206,-1.6336,-1.6632,-1.7075,-1.6858,-1.6771,-1.676,-1.6313,-1.5976,-1.5678,-1.4854,-1.2597,-0.9494,-0.7896,-0.3198,0.3206,0.0,0.0,0.0,0.0,0.0,0.0,0.0,0.0,0.0,0.0,0.0,0.0,0.0,0.0,0.0,0.0,0.0,0.0,0.0,0.0,0.0,0.0,0.0,0.0,0.0,0.0,0.0,0.0,0.0,0.0,0.0,0.0,0.0,0.0,0.0,2.3454,2.2694,2.3676,2.4109,2.3308,2.3987,2.4475,2.4488,2.5008,2.5437,2.5731,2.5674,2.5762,2.6074,2.6012,2.6249,2.6823,2.6633,2.679,2.7285,2.6962,2.6784,2.6752,2.6933,2.6944,2.6856,2.7107,2.7148,2.7031,2.6971,2.6195,2.501,2.4586,2.4242,2.4012,2.4159,2.4171,2.4171,0.0,0.0,0.0,0.0,0.0,-1.3387,-1.3655,-1.3652,-1.3919,-1.4767,-1.5257,-1.5741,-1.633,-1.6721,-1.6939,-1.7005,-1.7018,-1.5994,-1.3629,-1.3363,-1.2051,-0.9277,-0.6555,-0.6611,-0.9829,-0.9693,-1.2179,-1.7467,-1.7598,-1.7753,-1.7884,-1.8065,-1.8128,-1.8106,-1.7834,-1.7323,-1.6604,-1.6223,-1.5761,-1.4866,-1.0345,-0.8352,-0.6939,0.0,0.0,0.0,0.0,0.0,0.0,0.0,0.0,0.0,0.0,0.0,0.0,0.0,0.0,0.0,0.0,0.0,0.0,0.0,0.0,0.0,0.0,0.0,0.0,0.0,0.0,0.0,0.0,0.0,0.0,0.0,0.0,0.0,2.2382,2.307,2.3341,2.2565,2.3979,2.4732,2.4033,2.473,2.525,2.5353,2.5353,2.5734,2.6567,2.6425,2.6771,2.7744,2.7592,2.757,2.7758,2.7568,2.739,2.7244,2.7037,2.6871,2.6778,2.7548,2.7871,2.7828,2.8554,2.8809,2.8728,2.8517,2.8172,2.7637,2.6348,2.568,2.5458,2.5458,2.5458,2.5499,0.0,0.0,0.0,0.0,0.0,-1.3438,-1.3404,-1.3559,-1.3873,-1.446,-1.5227,-1.5955,-1.6551,-1.6956,-1.7224,-1.7288,-1.7252,-1.6633,-1.5231,-1.385,-1.0969,-0.6244,-0.6958,-0.8206,-0.9791,-1.385,-1.6939,-1.8931,-1.9059,-1.9218,-1.9385,-1.9212,-1.8939,-1.8597,-1.8127,-1.7753,-1.7464,-1.7444,-1.7143,-1.6482,-1.4523,-1.1129,-0.694,0.0,0.0,0.0,0.0,0.0,0.0,0.0,0.0,0.0,0.0,0.0,0.0,0.0,0.0,0.0,0.0,0.0,0.0,0.0,0.0,0.0,0.0,0.0,0.0,0.0,0.0,0.0,0.0,0.0,0.0,0.0,0.0,2.2874,2.3081,2.3682,2.41,2.4068,2.4584,2.508,2.546,2.5715,2.6088,2.6631,2.6728,2.683,2.7024,2.698,2.7051,2.7286,2.7239,2.7784,2.8991,2.8849,2.9339,3.0424,3.0224,3.0122,3.0081,3.0313,3.0202,2.9895,3.0085,2.9951,2.9551,2.9411,2.9206,2.8857,2.7545,2.6923,2.6779,2.6779,2.6911,2.7157,0.0,0.0,0.0,0.0,0.0,-1.3487,-1.3478,-1.3598,-1.4003,-1.4839,-1.53,-1.5977,-1.7076,-1.7236,-1.7384,-1.767,-1.735,-1.6669,-1.5572,-1.3991,-1.2009,-0.9604,-1.1099,-1.2561,-1.375,-1.7328,-1.9436,-1.997,-1.9985,-2.0022,-2.008,-2.0287,-2.0213,-1.9883,-1.9454,-1.9073,-1.8739,-1.8349,-1.7834,-1.7284,-1.6799,-1.4339,-1.0754,-0.8468,-0.5247,-0.1651,0.0785,0.1884,0.2698,0.5926,0.0,0.0,0.0,0.0,0.0,0.0,0.0,0.0,0.0,0.0,0.0,0.0,0.0,0.0,0.0,0.0,0.0,0.0,0.0,0.0,0.0,0.0,0.0,0.0,2.3896,2.4281,2.457,2.4588,2.4603,2.4764,2.5293,2.5836,2.6308,2.6499,2.6775,2.7212,2.728,2.7574,2.8217,2.8179,2.8444,2.9175,2.912,2.9541,3.0545,3.0397,3.0709,3.1493,3.1285,3.1123,3.0984,3.1302,3.1265,0.0,3.1283,3.119,3.0815,3.068,3.0491,0.0,0.0,0.0,0.0,0.0,2.834,2.8521,0.0,0.0,0.0,0.0,0.0,-1.356,-1.3667,-1.3692,-1.4184,-1.5507,-1.5429,-1.5904,-1.7658,-1.7514,-1.7491,-1.8009,-1.7387,-1.6437,-1.5177,-1.4116,-1.4295,-1.5982,-1.6853,-1.7958,-1.9386,-1.9949,-2.0367,-2.0649,-2.0531,-2.0458,-2.04,-2.126,-2.159,-2.1497,-2.1246,-2.0794,-2.0108,-1.9113,-1.8274,-1.7618,-1.776,-1.7393,-1.6216,-1.0829,-0.8703,-0.7912,-0.2587,-0.0445,-0.0031,0.0658,0.0,0.0,0.0,0.0,0.0,0.0,0.0,0.0,0.0,0.0,0.0,0.0,0.0,0.0,0.0,0.0,0.0,0.0,0.0,0.0,0.0,0.0,0.0,0.0,2.583,2.6146,2.6259,2.5615,2.5085,2.5041,2.5986,2.6702,2.688,2.7231,2.7514,2.7675,2.7681,2.8312,2.972,0.0,0.0,0.0,0.0,3.1745,3.1941,3.1781,3.1575,3.1391,3.1193,3.0945,3.0668,3.1333,3.1523,3.1395,3.2035,3.2196,3.1968,3.1822,3.1543,3.1101,3.0016,2.9468,2.9344,2.9696,2.9765,2.9713,0.0,0.0,0.0,0.0,0.0,-1.3647,-1.3617,-1.3671,-1.4141,-1.538,-1.5519,-1.6044,-1.7427,-1.7743,-1.7833,-1.7783,-1.7547,-1.6706,-1.5118,0.0,-1.5935,-1.6459,-1.8153,-1.9416,-2.0098,-2.0741,-2.1053,-2.099,-2.1023,-2.1195,-2.1498,-2.1794,-2.2018,-2.2205,-2.2152,-2.162,-2.073,-2.0572,-1.9656,-1.8305,-1.8383,-1.8048,-1.7354,-1.5906,-1.5155,-1.4689,-1.3365,-1.2514,-1.1306,-0.6801,-0.5002,-0.3818,0.1147,0.0,0.0,0.0,0.0,0.0,0.0,0.0,0.0,0.0,0.0,0.0,0.0,0.0,0.0,0.0,0.0,0.0,0.0,0.0,0.0,2.5291,2.5764,2.6117,2.6135,2.6315,2.6287,2.59,2.607,2.6726,2.8034,2.8227,2.8791,3.0023,3.0119,3.0181,3.0333,3.0301,0.0,3.072,3.0682,3.0988,3.1665,3.1639,3.1903,3.2483,0.0,0.0,3.2256,3.24,3.2189,3.1707,3.1808,3.1601,3.1198,3.1018,3.0818,3.0662,3.0679,3.0675,3.0675,3.102,3.0984,3.0796,0.0,0.0,0.0,0.0,0.0,0.0,-1.3647,-1.3669,-1.4045,-1.4987,-1.508,-1.5509,-1.6723,-1.6875,-1.6974,-1.7127,-1.6833,-1.6378,0.0,-1.6204,-1.683,-1.756,-1.8949,-1.9899,-2.0341,-2.092,-2.1166,-2.1103,-2.1135,-2.1373,-2.1805,-2.2445,-2.2954,-2.3311,-2.3407,-2.2865,-2.1809,-2.1381,-2.0391,-1.9087,-1.8917,-1.8669,-1.8324,-1.774,-1.738,-1.7167,-1.6972,-1.6591,-1.5675,-1.2544,-1.1175,-1.0192,-0.6971,-0.3923,-0.0479,0.0,0.0,0.0,0.0,0.0,0.0,0.0,0.0,0.0,0.0,0.0,0.0,0.0,0.0,2.4008,2.4852,0.0,2.5939,2.6813,2.7175,2.7469,2.7797,2.8049,2.7915,2.7133,2.7435,2.8174,2.938,2.9548,2.9927,3.0692,3.0679,3.0786,3.1088,3.1079,3.1227,3.1586,3.1604,3.1782,3.2192,3.2192,3.2309,3.2536,3.2892,3.2949,3.2756,3.3031,3.2945,3.2598,3.25,3.2256,3.1934,3.1769,3.1667,3.1624,3.1774,3.1387,3.0794,3.1134,3.1058,3.0821,0.0,0.0,0.0,0.0,0.0,0.0,-1.3644,-1.3669,-1.3914,-1.459,-1.4581,-1.4926,-1.6018,-1.6002,-1.604,-1.6436,-1.6175,-1.6089,0.0,-1.6659,-1.7367,-1.8485,-1.9306,-1.9923,-2.0282,-2.078,-2.1023,-2.0975,-2.099,-2.1291,-2.1872,-2.2789,-2.3536,-2.4067,-2.418,-2.3635,-2.2573,-2.178,-2.077,-1.9693,-1.9306,-1.912,-1.9026,-1.826,-1.7962,-1.7902,-1.7564,-1.7276,-1.6942,-1.6315,-1.5702,-1.5131,-1.4777,-1.1376,-0.6243,0.0318,0.2367,0.0,0.0,0.0,0.0,0.0,0.0,0.0,0.0,0.0,2.4352,2.4341,2.4354,2.4789,2.6122,2.6471,2.6927,2.8211,2.8598,2.8909,2.9371,2.9547,2.9373,2.8741,2.915,2.9781,3.0554,3.0692,3.0814,3.1004,3.0861,3.1053,3.1754,3.1631,3.1833,3.245,3.2507,3.2544,3.2544,3.2667,3.2669,3.2509,3.3026,3.3168,3.2985,3.3301,3.3364,3.3198,3.3031,3.2873,3.269,3.2584,3.2545,3.2545,3.2545,3.1858,3.0877,3.1149,3.1066,3.0813,0.0,0.0,0.0,0.0,0.0,0.0,-1.3511,-1.3575,-1.3858,-1.4519,-1.4597,-1.4916,-1.5748,-1.6088,-1.6173,-1.5985,-1.6417,0.0,-1.606,-1.6894,-1.77,-1.8308,-1.9098,-1.9675,-1.9952,-2.0544,-2.0745,-2.0562,-2.0578,-2.1075,-2.2077,-2.2191,-2.2726,-2.3575,-2.3418,-2.2842,-2.1982,-2.1694,-2.089,-1.9752,-1.9472,-1.9265,-1.9064,-1.8716,-1.8537,-1.8327,-1.7592,-1.7276,-1.7094,-1.6595,-1.6032,-1.5457,-1.5006,-1.4337,-1.1592,-0.0794,0.0,0.4706,1.6418,2.0891,2.2752,2.487,2.5407,2.5649,0.0,0.0,2.6069,2.6528,2.6914,2.7186,2.7317,2.7741,2.8004,2.7826,2.8589,2.9144,2.8931,2.9344,3.0009,3.0912,3.0533,3.0433,3.1066,3.0921,3.1183,3.2139,3.1865,3.1775,3.2039,3.1592,3.131,3.1283,3.1513,3.1658,3.1658,3.2255,3.2744,3.3188,3.3132,3.3303,3.3584,3.3127,3.2752,3.249,3.223,3.2085,3.2017,3.1994,3.1994,3.1994,3.1994,3.202,3.2095,3.2141,3.2021,3.1799,0.0,0.0,0.0,0.0,0.0,0.0,0.0,-1.3436,-1.3606,-1.3922,-1.4129,-1.4389,-1.4777,-1.5109,-1.5301,-1.5256,-1.5842,-1.6113,-1.5897,-1.6864,-1.7564,-1.7821,-1.8762,-1.9362,-1.9546,-2.0184,-2.046,-2.0375,-2.046,-2.0903,-2.1645,-2.1872,-2.2339,-2.297,-2.3008,-2.2609,-2.1872,-2.1643,-2.0994,-2.0102,-1.9515,-1.9221,-1.9109,-1.8812,-1.8673,-1.8101,-1.4085,-1.2571,0.0,0.0,-1.1337,-1.1603,-1.4699,-1.3097,-0.8537,-0.062,0.2365,0.0,1.5125,2.1109,2.4842,0.0,2.6215,2.6251,2.6491,2.6327,2.6234,2.6572,2.6974,2.723,2.7211,2.755,2.7962,0.0,2.8737,2.9281,3.0037,3.036,3.0833,3.1653,3.1289,3.1202,3.1724,3.1301,3.1145,3.1545,3.1257,3.1249,3.1732,3.1543,3.1562,3.19,3.2006,3.2084,3.2084,3.2359,3.2619,3.2834,3.3106,3.3299,3.3473,3.3475,3.3347,3.3105,3.2908,3.2734,3.2675,3.2675,3.2866,3.3169,3.2997,3.3194,3.3481,3.2629,3.208,3.175,0.0,0.0,0.0,0.0,0.0,0.0,0.0,0.0,-1.3413,-1.3438,-1.3698,-1.3956,-1.4132,-1.4404,-1.4648,-1.4803,-1.5318,-1.5693,0.0,-1.6602,-1.7113,-1.718,-1.8111,0.0,-1.8961,-1.9622,-2.0085,-2.0304,-2.0392,-2.0672,-2.1082,-2.1381,-2.1717,-2.2115,-2.2173,-2.1943,-2.1467,-2.1204,-2.0784,-2.0222,-1.9588,-1.9281,-1.9184,-1.8874,-1.8487,-1.7485,-1.2817,-1.1177,0.0,0.0,-0.8684,-0.8362,-1.2233,-0.9481,-0.3734,0.1887,0.5888,0.9483,1.3995,1.8714,0.0,2.3245,2.3523,2.4091,2.5874,2.6246,2.6274,2.6421,2.6657,2.6858,2.6955,2.7164,2.7612,2.85,2.8846,2.9358,3.0456,3.0801,3.1112,3.1646,3.1382,3.1449,3.2154,3.1587,3.117,3.1227,3.1062,3.1219,3.1797,3.1677,3.1818,3.2327,3.2364,3.2369,3.2369,3.2534,3.2679,3.2803,3.3161,3.3397,3.3558,3.3643,3.3537,3.3313,3.3188,3.3029,3.2906,3.2906,3.3119,3.3491,3.3419,3.3662,3.3964,3.2886,3.2378,3.2181,0.0,0.0,0.0,0.0,0.0,0.0,0.0,0.0,0.0,-1.3303,0.0,-1.3793,-1.424,-1.4426,-1.4614,-1.4878,-1.5092,-1.5414,-1.587,-1.6116,-1.6294,-1.6423,-1.7094,-1.7678,-1.8129,-1.8786,-1.9509,-2.0304,-2.0304,-2.0373,-2.0525,-2.0542,-2.0643,-2.0841,-2.0591,-2.0457,-2.0424,-2.0161,-2.0038,-1.999,-1.9762,-1.9479,-1.9169,-1.8974,-1.7929,-1.6493,-1.5983,0.0,0.0,0.0,-1.0586,-0.7317,-0.67,-0.3477,0.0,0.7608,1.4589,1.9085,1.3544,0.0,1.4662,1.5144,1.5712,1.7977,2.5078,2.6641,2.6589,2.6589,2.6487,2.6521,2.6842,2.6923,2.7161,2.7913,2.8785,2.9398,2.9459,3.0057,3.0612,3.0897,3.0588,3.085,0.0,3.1679,3.1439,3.1746,3.2012,3.2305,3.2658,3.2177,3.1891,3.1907,3.1999,3.2033,3.2033,3.2609,3.3135,3.3569,3.3453,3.3659,3.4153,3.3245,3.2761,3.2614,3.2492,3.2327,3.213,3.213,3.2074,3.2015,3.2477,3.2788,3.3039,3.3008,3.3245,3.3594,0.0,0.0,0.0,0.0,0.0,0.0,0.0,0.0,0.0,0.0,0.0,0.0,0.0,0.0,0.0,0.0,-1.4772,-1.5003,-1.5163,-1.5859,-1.6208,-1.6068,-1.708,-1.7661,-1.7635,-1.8285,-1.89,-1.944,-1.9626,-1.9858,-2.0166,-2.0166,-2.02,-2.027,-2.0183,-2.0131,-2.0115,-1.9937,-1.9866,-1.9848,-1.9596,-1.9472,-1.9273,-1.8247,-1.7398,-1.652,0.0,0.0,0.0,0.0,0.0,0.0,-0.556,0.0,0.7114,1.3726,1.4662,1.3389,1.2589,0.9751,0.7234,0.8054,0.8359,1.0319,1.755,1.9201,2.0512,2.524,2.6135,2.6076,2.6088,2.6692,2.7421,2.8195,2.8968,2.9623,3.0074,3.0077,3.0038,3.0031,3.0099,0.0,0.0,0.0,0.0,3.1886,3.1557,3.1531,3.1949,3.1719,3.1768,3.2222,3.2462,3.2591,3.2591,3.2357,3.2477,3.2933,3.2711,3.2656,3.2722,3.2272,3.1992,3.1879,3.1724,3.1581,3.1423,3.1423,3.1623,3.189,3.1892,3.213,3.2501,3.2099,3.2043,3.2226,0.0,0.0,0.0,0.0,0.0,0.0,0.0,0.0,0.0,0.0,0.0,0.0,0.0,0.0,0.0,0.0,0.0,-1.4679,-1.4859,-1.5393,-1.5679,-1.5648,-1.633,-1.6756,-1.6824,-1.7251,-1.7718,-1.8207,-1.8548,-1.895,-1.9395,-1.9554,-1.9778,-2.0005,-1.9937,-1.9919,-1.9919,-1.9797,-1.9626,-1.9399,-1.9275,-1.9019,-1.865,-1.7752,-1.6752,0.0,0.0,0.0,0.0,0.0,0.0,0.0,0.0,0.4881,1.217,1.4541,1.2553,0.8875,0.5701,0.1915,-0.0884,0.0225,0.0458,0.2334,0.9656,1.1358,1.3455,2.0711,2.188,2.244,2.5232,2.6296,2.7059,2.799,2.8561,2.9137,2.9897,2.951,2.92,2.9275,2.9627,2.993,0.0,0.0,0.0,3.1582,3.1388,3.135,3.1515,3.1436,3.1551,3.1862,3.2048,3.2104,3.2104,3.1578,3.1405,3.1677,3.1751,3.1652,3.1466,3.1581,3.1523,3.1365,3.1263,3.1161,3.0984,3.0984,3.1161,3.1421,3.1422,3.1652,3.1877,3.1363,3.1232,3.1377,0.0,0.0,0.0,0.0,0.0,0.0,0.0,0.0,0.0,0.0,0.0,0.0,0.0,0.0,0.0,0.0,0.0,0.0,-1.4912,0.0,0.0,-1.5167,-1.4962,-1.5127,-1.5758,-1.5758,-1.6092,-1.6741,-1.7194,-1.7686,-1.8223,-1.8709,-1.9248,-1.9856,-1.9781,-1.9728,-1.9728,-1.9656,-1.9261,-1.8674,-1.8776,-1.825,-1.7405,-1.7458,0.0,0.0,0.0,0.0,0.0,0.0,0.0,0.0,0.0,1.2457,1.5251,0.995,0.8199,0.5455,-0.6058,-0.9505,-0.9528,-0.8296,-0.7924,-0.5884,0.1672,0.3504,0.5832,1.3693,1.4509,1.6244,0.0,0.0,2.616,2.7284,2.7688,2.8134,2.8982,2.8487,2.8199,0.0,0.0,0.0,0.0,0.0,0.0,3.0925,0.0,3.1751,3.1406,3.1377,3.1217,3.0896,3.0778,3.0689,3.0689,3.0346,3.0104,2.995,3.0644,3.0807,3.0524,3.119,3.1336,3.1087,3.1087,3.0984,3.0791,3.0791,3.0702,3.0628,3.1073,3.1248,3.1219,3.0881,3.0881,3.1072,0.0,0.0,0.0,0.0,0.0,0.0,0.0,0.0,0.0,0.0,0.0,0.0,0.0,0.0,0.0,0.0,0.0,0.0,-1.4106,0.0,0.0,0.0,0.0,0.0,0.0,0.0,0.0,0.0,0.0,-1.6482,-1.6976,-1.7596,-1.7972,0.0,-1.8734,-1.8952,-1.8889,-1.8668,-1.84,-1.8085,0.0,-1.7633,-1.7226,0.0,0.0,0.0,0.0,0.0,0.0,0.0,0.0,0.0,0.0,0.16,0.2252,0.0735,-0.2729,-0.6667,-0.9517,-1.3481,-1.6713,-1.6228,-1.5793,-1.3643,-0.656,-0.4643,-0.0868,1.1513,1.3959,1.6044,0.0,0.0,0.0,2.6992,2.7856,0.0,2.9028,2.8647,0.0,2.8738,0.0,2.9887,3.0263,3.0866,0.0,0.0,3.1346,3.1623,3.135,3.094,3.0689,3.0615,3.0569,3.0539,3.0539,3.0224,2.9735,2.9139,3.0147,3.0524,3.0372,3.0925,3.1087,3.0866,3.0762,3.0702,3.0642,3.0642,3.0642,3.0598,3.0717,3.0777,3.0717,3.0113,2.996,2.9915,0.0,0.0,0.0,0.0,0.0,0.0,0.0,0.0,0.0,0.0,0.0,0.0,0.0,0.0,0.0,0.0,0.0,0.0,0.0,0.0,0.0,0.0,0.0,0.0,0.0,0.0,0.0,0.0,0.0,0.0,0.0,-1.6307,-1.6743,-1.7044,-1.7863,-1.8191,-1.8163,0.0,0.0,0.0,0.0,0.0,0.0,0.0,0.0,0.0,0.0,0.0,0.0,0.0,0.0,-0.4287,-0.2717,-0.2507,-0.3377,-0.6115,0.0,-1.234,-1.4605,-1.7739,-2.0245,-1.9696,-1.9319,-1.7168,-1.0059,-0.8129,-0.3772,1.0511,1.3321,0.0,2.2547,0.0,0.0,0.0,0.0,0.0,2.7868,2.7667,2.7714,0.0,2.9146,0.0,2.9624,3.0161,3.0447,0.0,3.0688,3.0881,3.0568,3.0129,2.9808,2.9685,2.9685,2.9608,2.9453,2.9265,2.8853,2.8222,2.9125,2.9608,2.9806,3.0296,3.0598,3.0702,0.0,3.0598,3.0598,3.0598,3.0507,3.0371,3.0371,3.028,3.0097,2.9571,2.9383,2.932,0.0,0.0,0.0,0.0,0.0,0.0,0.0,0.0,0.0,0.0,0.0,-1.2195,-1.2205,-1.2366,0.0,0.0,0.0,0.0,0.0,0.0,0.0,0.0,0.0,0.0,0.0,0.0,0.0,0.0,0.0,0.0,0.0,0.0,0.0,0.0,0.0,0.0,0.0,0.0,0.0,0.0,0.0,0.0,0.0,0.0,0.0,0.0,0.0,0.0,0.0,0.0,-0.9781,-0.4692,-0.4638,-0.5223,-0.6939,-1.2164,-1.3843,-1.5012,-1.9838,-2.1372,-2.1385,-2.0598,-2.0207,-1.8112,-1.0836,-0.8856,-0.4441,1.008,0.0,1.476,2.2308,2.4115,2.4575,2.4906,0.0,2.5719,2.6421,2.6382,2.6691,2.7735,2.866,2.9152,2.8991,2.9377,2.9623,2.9453,2.9605,2.9682,2.9665,2.9289,2.8908,2.8554,2.8522,2.836,2.8079,2.8046,2.7868,2.7503,2.8039,2.8527,2.8926,2.9449,2.9901,3.0312,3.0387,0.0,3.0387,3.0447,3.031,3.0019,3.0019,2.9865,2.954,2.9226,2.9099,2.9035,0.0,0.0,0.0,0.0,0.0,0.0,0.0,0.0,0.0,0.0,-1.188,-1.2138,0.0,0.0,0.0,0.0,0.0,0.0,0.0,0.0,0.0,0.0,0.0,0.0,0.0,0.0,0.0,0.0,0.0,0.0,0.0,0.0,0.0,0.0,0.0,0.0,0.0,0.0,0.0,0.0,0.0,0.0,0.0,0.0,0.0,0.0,0.0,0.0,0.0,0.0,-1.4893,-1.5922,-1.7416,-1.8625,-1.9698,-2.0756,-2.0815,-2.0767,-2.1741,-2.1722,-2.1447,-2.1506,-2.0833,-1.84,-1.1614,-0.9439,0.0,0.0,1.2658,1.5469,2.2348,2.4529,2.541,2.5728,0.0,0.0,0.0,0.0,2.657,0.0,0.0,0.0,0.0,0.0,0.0,0.0,0.0,2.8376,2.9927,2.9261,2.8656,2.821,2.8177,2.8066,2.7855,2.7855,2.7689,2.7335,2.8006,2.8189,2.8039,2.8675,2.8935,2.8889,2.923,0.0,2.9369,2.9665,2.9727,2.9696,2.9696,2.9634,2.954,2.9226,2.9099,2.9035,0.0,0.0,0.0,0.0,0.0,0.0,0.0,-1.0861,-1.1036,-1.1175,-1.1452,-1.174,-1.2018,-1.2123,-1.2241,0.0,0.0,0.0,0.0,0.0,0.0,0.0,0.0,0.0,0.0,0.0,-1.2928,-1.2808,0.0,0.0,0.0,-1.3199,-1.3307,-1.3303,0.0,0.0,0.0,0.0,0.0,0.0,0.0,0.0,0.0,0.0,0.0,0.0,0.0,0.0,0.0,0.0,-1.5269,-1.8186,-2.0558,-2.193,-2.2724,-2.2869,-2.2836,-2.2678,-2.2301,-2.202,-2.1746,-2.1544,-2.0896,-1.7519,-0.6896,0.0,0.0,0.0,1.8315,1.9924,2.3602,0.0,0.0,0.0,0.0,0.0,0.0,0.0,0.0,0.0,0.0,0.0,0.0,0.0,0.0,0.0,0.0,2.7471,2.9071,2.8293,2.7703,2.7464,2.741,2.7263,2.7061,2.7377,2.7403,2.7146,2.7343,2.7577,2.7809,2.7927,2.8097,2.8376,2.8771,0.0,2.8976,2.9415,2.9509,2.9352,2.9352,2.918,2.8926,2.8876,2.8766,2.867,0.0,0.0,0.0,0.0,0.0,0.0,0.0,-1.0448,-1.0644,-1.0861,-1.1015,-1.1247,-1.1615,-1.1869,-1.2075,0.0,0.0,0.0,0.0,0.0,0.0,0.0,0.0,0.0,0.0,0.0,0.0,-1.2546,-1.2406,0.0,0.0,0.0,0.0,0.0,-1.3189,-1.3408,0.0,0.0,0.0,0.0,0.0,-1.5049,0.0,0.0,0.0,0.0,0.0,0.0,0.0,0.0,-1.3732,-1.6235,-1.8843,-1.9995,-2.0506,-2.1009,-2.1223,-2.1467,-2.2098,-2.2217,-2.2067,-2.1447,-2.0871,-1.6775,-0.2506,0.1035,0.0,0.0,2.3626,2.4072,2.4902,0.0,2.5338,0.0,0.0,0.0,0.0,0.0,0.0,0.0,0.0,0.0,0.0,0.0,0.0,0.0,0.0,0.0,2.7993,2.709,2.6616,2.6718,2.6595,2.6436,2.6264,2.6918,2.7146,2.6943,2.6726,2.6918,2.7456,2.7108,2.7217,2.7723,2.813,0.0,0.0,2.8771,2.8803,2.8624,2.8624,2.8384,2.8045,2.8411,2.8444,2.832,0.0,0.0,0.0,0.0,0.0,0.0,0.0,-1.0248,-1.0446,-1.0522,-1.0717,-1.0849,-1.0897,-1.1404,-1.1779,0.0,0.0,0.0,0.0,0.0,0.0,0.0,0.0,0.0,0.0,0.0,0.0,-1.171,-1.1811,0.0,0.0,0.0,0.0,0.0,0.0,-1.2334,-1.237,-1.3042,0.0,0.0,0.0,0.0,0.0,0.0,0.0,0.0,0.0,0.0,0.0,0.0,0.0,-1.1529,-1.3367,-1.3797,-1.3847,-1.5087,0.0,0.0,-2.1091,-2.2342,-2.2114,-2.1688,-2.1153,-1.7087,-0.3032,0.0,0.0,2.0067,2.387,2.4734,2.542,2.6083,2.6468,0.0,0.0,2.5716,0.0,0.0,0.0,0.0,0.0,0.0,0.0,0.0,0.0,0.0,0.0,0.0,2.7302,2.6089,2.5625,2.6148,2.5963,2.5881,2.5859,2.6645,2.6943,2.6726,2.653,2.6405,2.6339,2.6119,2.6037,2.6141,2.6483,0.0,0.0,2.682,2.6854,2.7103,2.7103,2.7056,2.7124,2.8026,2.832,2.832,0.0,0.0,0.0,0.0,0.0,0.0,-0.9905,-0.9931,-1.0021,-1.0123,-1.0273,-1.041,-1.0496,-1.0857,-1.1196,-1.1457,0.0,0.0,0.0,0.0,0.0,0.0,0.0,0.0,0.0,0.0,-1.1349,-1.1423,-1.1434,0.0,0.0,0.0,0.0,0.0,0.0,-1.1786,-1.1747,-1.2184,0.0,0.0,0.0,0.0,0.0,0.0,0.0,0.0,0.0,0.0,-1.1656,0.0,0.0,0.0,-0.68,-0.4703,0.0,0.0,-1.4924,-1.4676,-2.041,-2.1779,-2.1541,-2.1302,-1.7836,-1.1851,-0.1775,0.0,1.0287,2.1615,2.4286,2.4987,2.6212,2.6655,2.6776,2.6718,0.0,0.0,0.0,0.0,0.0,0.0,0.0,0.0,0.0,0.0,0.0,0.0,0.0,0.0,2.5146,2.4553,2.423,2.4349,2.4205,2.4277,2.4601,2.5276,2.5838,2.6211,2.6141,2.6072,2.598,2.5571,2.5347,2.5382,2.5511,0.0,0.0,2.5963,2.6136,2.6274,2.6718,2.6867,2.69,2.7842,2.8118,2.8039,0.0,0.0,0.0,0.0,0.0,-0.9905,-0.9789,-0.9697,-0.9671,-0.9763,-0.9841,-0.9932,-1.0059,-1.0323,-1.0606,-1.0891,-1.1287,0.0,0.0,0.0,0.0,0.0,0.0,0.0,0.0,0.0,-1.0859,-1.1057,-1.1022,-1.1092,0.0,0.0,-1.1127,-1.115,0.0,0.0,0.0,0.0,0.0,0.0,0.0,0.0,0.0,0.0,0.0,0.0,0.0,0.0,0.0,0.0,0.0,0.0,0.0,0.0,0.0,0.0,-1.1105,-1.1484,-1.7304,-2.0004,-2.1164,-2.0959,-1.5631,-0.8455,0.0,0.0,1.3434,2.2411,2.435,2.4899,2.6354,2.6691,2.6725,2.6725,0.0,2.5791,2.5571,0.0,0.0,0.0,0.0,0.0,0.0,0.0,0.0,0.0,0.0,0.0,0.0,2.2909,2.2861,2.3036,2.2909,2.3095,2.3708,2.4373,2.504,2.5723,2.5641,2.5571,2.5465,2.4993,2.4778,2.4778,0.0,0.0,0.0,2.5099,2.5228,2.5357,2.5881,2.6171,2.6402,2.7343,2.7723,2.7822,0.0,0.0,0.0,0.0,0.0,0.0,-0.971,-0.9591,-0.951,-0.951,-0.9446,-0.9434,-0.9498,-0.9802,-1.0059,-1.0198,-1.0643,0.0,0.0,0.0,0.0,0.0,0.0,0.0,0.0,0.0,0.0,-1.0511,-1.0511,-1.0584,-1.0705,-1.0837,-1.0932,-1.0991,0.0,0.0,0.0,0.0,0.0,0.0,0.0,0.0,-1.3039,0.0,0.0,0.0,0.0,0.0,0.0,0.0,0.0,0.0,0.0,0.1132,0.0,0.0,-0.139,-0.4989,-1.0892,-1.6767,-2.1115,-2.0799,-1.5656,-0.87,0.0,0.0,1.2944,2.1879,2.3918,2.4448,2.5607,2.6067,2.6313,2.6313,2.5899,0.0,2.5242,0.0,0.0,0.0,0.0,0.0,0.0,0.0,0.0,0.0,0.0,0.0,0.0,2.1244,2.1634,2.259,2.2462,2.2761,2.3514,2.4301,2.4898,2.5312,2.5087,2.4838,2.4527,2.4298,2.42,0.0,0.0,0.0,0.0,2.3911,2.3827,2.412,2.412,2.46,2.5441,2.6368,2.7196,2.7822,0.0,0.0,0.0,0.0,0.0,0.0,0.0,-0.9393,-0.9366,-0.9366,-0.9353,-0.9339,-0.9353,-0.9539,-0.9671,-0.9723,-1.036,0.0,0.0,0.0,0.0,0.0,0.0,0.0,0.0,0.0,0.0,0.0,0.0,-1.0336,-1.056,-1.0511,-1.0535,-1.0609,-1.0777,-1.0885,0.0,0.0,0.0,0.0,0.0,-1.2963,-1.2368,0.0,0.0,0.0,0.0,0.0,0.0,0.0,0.0,0.0,0.0,0.0,0.0,0.5189,0.4372,0.2949,-0.3047,-0.5685,-0.6696,-0.6686,-0.1715,0.3955,0.6896,0.0,1.8466,2.2813,2.4032,2.4611,2.5607,2.5697,2.5487,2.5074,2.4275,0.0,0.0,0.0,0.0,0.0,0.0,0.0,0.0,0.0,0.0,0.0,0.0,0.0,0.0,2.0654,2.0799,2.1231,2.1203,2.1614,2.2537,2.2798,2.3475,2.455,2.4467,2.4394,2.4286,2.3922,0.0,0.0,0.0,0.0,0.0,2.3287,2.325,2.3423,2.3902,2.4264,2.4588,2.5429,2.5896,2.6104,0.0,0.0,0.0,0.0,0.0,0.0,0.0,-0.9178,-0.9139,-0.9139,-0.9139,-0.9178,-0.9218,-0.9298,-0.9378,-0.9458,-0.9893,0.0,0.0,0.0,0.0,0.0,0.0,0.0,0.0,0.0,0.0,0.0,0.0,0.0,0.0,0.0,-1.0312,-1.0362,-1.056,-1.0656,0.0,0.0,0.0,0.0,-1.2386,-1.2249,-1.1525,0.0,0.0,0.0,0.0,0.0,0.0,0.0,0.0,0.0,0.0,0.0,0.0,0.0,0.8335,0.8202,0.3923,0.1398,-0.0021,-0.0127,0.4822,0.9906,0.0,0.0,2.1157,2.3258,2.3983,2.4398,2.4922,2.4984,2.4634,2.3612,2.29,0.0,0.0,0.0,0.0,0.0,0.0,0.0,0.0,0.0,0.0,0.0,0.0,0.0,0.0,2.0059,1.9942,1.9981,2.0216,2.0895,2.2096,2.2021,2.267,2.397,2.3897,2.3824,2.3751,2.3482,0.0,0.0,0.0,0.0,0.0,2.2927,2.2889,2.2916,2.3302,2.3683,2.4036,2.4564,2.4969,2.5312,0.0,0.0,0.0,0.0,0.0,0.0,0.0,-0.8974,-0.8905,-0.8905,-0.8905,-0.8946,-0.9081,-0.9106,-0.9176,-0.9368,0.0,0.0,0.0,0.0,0.0,0.0,0.0,0.0,0.0,0.0,0.0,-1.0186,-1.0186,-1.0224,-1.0287,0.0,0.0,-1.0262,-1.0324,-1.0387,0.0,0.0,0.0,0.0,-1.1567,-1.1369,0.0,0.0,0.0,0.0,0.0,0.0,0.0,0.0,0.0,0.0,0.0,0.0,0.0,0.0,0.0,0.0,0.0,0.5634,0.145,0.1389,0.6071,1.0819,1.1401,0.0,0.0,2.3007,2.3471,2.3484,2.3334,2.3701,2.3462,2.1879,2.1573,0.0,0.0,0.0,0.0,0.0,0.0,0.0,0.0,0.0,0.0,0.0,0.0,0.0,0.0,1.942,1.9112,1.8922,1.9469,2.0469,2.1869,2.1756,2.2258,2.3361,2.3261,2.3113,2.2927,2.2927,2.2927,0.0,0.0,0.0,0.0,2.2777,2.2665,2.2665,2.2478,2.2931,2.3708,2.3708,2.4301,2.5087,0.0,0.0,0.0,0.0,0.0,0.0,0.0,0.0,0.0,0.0,-0.8905,-0.8933,-0.901,-0.9065,-0.9135,0.0,0.0,0.0,0.0,0.0,0.0,0.0,0.0,0.0,0.0,0.0,0.0,-0.997,-0.997,-1.0059,-1.0224,-1.011,0.0,0.0,0.0,0.0,0.0,0.0,0.0,0.0,-1.1508,-1.1649,0.0,0.0,0.0,0.0,-0.8801,-0.7828,0.0,0.0,0.0,0.0,0.0,0.0,0.0,0.0,0.9216,1.3903,1.4701,0.0,1.5832,1.5809,1.6962,1.8212,0.0,0.0,0.0,0.0,0.0,0.0,0.0,1.9832,1.9752,1.8913,1.8433,0.0,0.0,0.0,0.0,0.0,0.0,0.0,0.0,0.0,0.0,0.0,0.0,0.0,0.0,1.8425,1.8273,1.8241,1.8353,1.8856,1.9737,2.0275,2.0817,2.1229,2.1852,2.2214,2.2327,2.2138,2.2327,0.0,0.0,0.0,2.2553,2.2478,2.2478,2.2478,2.2402,2.2542,2.2718,2.2718,2.2868,2.3091,0.0,0.0,0.0,0.0,0.0,0.0,0.0,0.0,0.0,0.0,0.0,0.0,0.0,0.0,0.0,0.0,0.0,0.0,0.0,0.0,0.0,0.0,0.0,0.0,0.0,0.0,0.0,0.0,0.0,-0.9646,0.0,0.0,0.0,0.0,0.0,0.0,0.0,0.0,0.0,-1.089,-1.1305,0.0,0.0,0.0,0.0,0.0,-0.9243,-0.7948,0.0,-0.4184,-0.2312,-0.103,0.0,0.0,0.0,0.0,0.7363,1.0444,1.3931,1.6881,1.9007,1.9007,1.8147,1.7396,1.7828,0.0,0.0,0.0,0.0,0.0,0.0,0.0,0.0,0.0,1.575,0.0,0.0,0.0,0.0,0.0,0.0,0.0,0.0,0.0,0.0,0.0,0.0,0.0,0.0,1.7789,1.7587,1.7587,1.7302,1.774,1.9006,1.9353,1.9737,2.0236,2.0615,2.1088,2.1624,2.1548,2.1901,0.0,0.0,0.0,2.2402,2.2289,2.2252,2.2252,2.2138,2.2176,2.2252,2.2252,2.2327,2.2402,0.0,0.0,0.0,0.0,0.0,0.0,0.0,0.0,0.0,0.0,0.0,0.0,0.0,0.0,0.0,0.0,0.0,0.0,0.0,0.0,0.0,0.0,0.0,0.0,0.0,0.0,0.0,0.0,0.0,0.0,0.0,0.0,-0.8965,0.0,0.0,0.0,0.0,0.0,-1.0546,-1.0908,-1.1089,0.0,0.0,0.0,0.0,0.0,0.0,0.0,0.0,-0.4399,-0.2375,-0.0463,0.0758,0.0,0.0,0.0,0.0,0.0,1.0577,1.3515,1.5359,1.6225,1.4994,1.3652,1.4064,0.0,0.0,0.0,0.0,0.0,0.0,0.0,0.0,0.0,0.0,0.0,0.0,0.0,0.0,0.0,0.0,0.0,0.0,0.0,0.0,0.0,0.0,0.0,0.0,1.7221,1.6935,1.6935,1.6451,1.6927,1.8519,1.8536,1.8886,1.9511,1.9432,1.9933,2.0942,2.0904,2.1413,2.2365,0.0,0.0,2.2289,2.2101,2.2063,2.2025,2.1883,2.1921,2.2063,2.2063,2.2138,2.2327,0.0,0.0,0.0,0.0,0.0,0.0,0.0,0.0,0.0,0.0,0.0,0.0,0.0,0.0,0.0,0.0,0.0,0.0,0.0,0.0,0.0,0.0,0.0,0.0,0.0,0.0,0.0,0.0,0.0,0.0,-0.8761,-0.8637,-0.8646,-0.876,0.0,-0.9357,-1.0194,-1.0104,-1.0545,-1.1294,-1.112,0.0,0.0,0.0,0.0,0.0,0.0,0.0,0.0,-0.3833,-0.1523,0.0737,0.0448,0.0,0.0,0.0,0.0,0.0,0.8099,0.7626,0.7911,1.2751,1.4092,1.4278,1.4413,0.0,0.0,0.0,0.0,0.0,0.0,0.0,0.0,0.0,0.0,0.0,0.0,0.0,0.0,0.0,0.0,0.0,0.0,0.0,0.0,0.0,0.0,0.0,0.0,1.6294,1.6252,1.6252,1.6319,1.6402,1.6525,1.7416,1.7821,1.7789,1.8278,1.9137,2.0314,1.9982,2.0692,2.2149,0.0,2.1883,2.1883,2.1845,2.1845,2.1845,2.1807,2.1807,2.1845,2.1845,2.1883,2.1987,0.0,0.0,0.0,0.0,0.0,0.0,0.0,0.0,0.0,0.0,0.0,0.0,0.0,0.0,0.0,0.0,0.0,0.0,0.0,0.0,0.0,0.0,0.0,0.0,0.0,0.0,0.0,0.0,0.0,-0.8074,-0.7888,-0.797,-0.8205,-0.8534,0.0,-0.9034,-0.9867,-0.9839,-1.0379,-1.1241,0.0,0.0,0.0,0.0,0.0,0.0,0.0,0.0,0.0,0.0,-0.2004,0.1169,0.1013,0.0,0.0,0.0,0.0,0.0,0.572,0.5475,0.5455,0.6921,0.6486,0.5801,0.6206,0.0,0.0,0.0,0.0,0.0,0.0,0.0,0.0,0.0,0.0,0.0,0.0,0.0,0.0,0.0,0.0,0.0,0.0,0.0,0.0,0.0,0.0,0.0,0.0,0.0,1.5741,1.5741,1.5824,1.5873,1.5865,1.6353,1.664,1.6697,1.6968,1.7948,1.9492,1.9304,2.0216,2.1921,0.0,2.1655,2.1655,2.1655,2.1655,2.1655,2.1769,2.1807,2.1807,2.1807,2.1807,2.1835,0.0,0.0,0.0,0.0,0.0,0.0,0.0,0.0,0.0,0.0,0.0,0.0,0.0,0.0,0.0,0.0,0.0,0.0,0.0,0.0,0.0,0.0,0.0,0.0,0.0,0.0,-0.7908,-0.7666,-0.7554,-0.7375,-0.7114,-0.7381,-0.7825,0.0,0.0,-0.8838,-0.972,-0.9729,-1.0242,-1.1059,0.0,0.0,0.0,0.0,0.0,0.0,0.0,0.0,0.0,0.0,0.0,0.0,0.0,0.0,0.0,0.2727,0.338,0.392,0.4022,0.4157,0.3907,0.2329,0.113,0.0175,-0.0414,0.0,0.0,0.0,0.0,0.0,0.0,0.0,0.0,0.0,0.0,0.0,0.0,0.0,0.0,0.0,0.0,0.0,0.0,0.0,0.0,0.0,0.0,0.0,0.0,0.0,1.536,1.5401,1.5416,1.5458,1.5575,1.5609,1.5782,1.6087,1.6046,1.6992,1.8829,1.878,1.9816,2.1655,2.1502,2.1436,2.1436,2.1436,2.1436,2.1436,2.1617,2.1655,2.1655,2.1655,2.1693,2.1731,0.0,0.0,0.0,0.0,0.0,0.0,0.0,0.0,0.0,0.0,0.0,0.0,0.0,0.0,0.0,0.0,0.0,0.0,0.0,0.0,0.0,0.0,0.0,0.0,0.0,-0.7353,-0.7125,-0.6975,-0.696,-0.692,-0.6844,-0.7103,-0.7607,-0.8314,0.0,-0.9008,-1.006,-0.9943,-1.0273,-1.0897,-1.0717,0.0,0.0,0.0,0.0,0.0,0.0,0.0,0.0,0.0,0.0,0.0,0.0,0.0,0.3101,0.2671,0.3062,0.3638,0.363,0.2465,0.125,0.142,0.3894,0.0,0.0911,0.2951,0.0,0.0,0.0,0.0,0.0,0.0,0.0,0.0,0.0,0.0,0.0,0.0,0.0,0.0,0.0,0.0,0.0,0.0,0.0,0.0,0.0,0.0,0.0,0.0,1.5215,1.5382,1.5409,1.5318,1.5131,1.5318,1.5658,1.6087,1.5865,1.6747,1.8638,1.8421,1.9383,2.1244,2.1244,2.1205,2.1205,2.1205,2.1205,2.1205,2.1244,2.1244,2.1244,2.1244,2.1359,2.1512,0.0,0.0,0.0,0.0,0.0,0.0,0.0,0.0,0.0,0.0,0.0,0.0,0.0,0.0,0.0,0.0,0.0,0.0,0.0,0.0,0.0,0.0,0.0,-0.6921,-0.6921,-0.7035,-0.7059,-0.6971,-0.6717,-0.672,-0.6996,-0.6958,0.0,0.0,0.0,0.0,-0.925,-0.9399,-0.9804,-1.0322,-1.0264,-0.9424,0.0,0.0,0.0,0.0,0.0,0.0,0.0,0.0,-0.1743,0.023,0.1515,0.294,0.4085,0.3917,0.4252,0.4598,0.4349,0.3142,0.1925,0.186,0.0,0.0,0.0,0.0,0.0,0.0,0.0,0.0,0.0,0.0,0.0,0.0,0.0,0.0,0.0,0.0,0.0,0.0,0.0,0.0,0.0,0.0,0.0,0.0,0.0,0.0,0.0,1.4538,1.4587,1.4783,1.4901,1.4943,1.4866,1.4943,1.5068,1.5242,1.5416,1.6263,1.7617,1.8101,1.9058,2.043,2.0809,2.1022,2.1022,2.1022,2.1022,2.1022,2.1167,2.1205,2.1205,2.1359,2.1359,2.132,0.0,0.0,0.0,0.0,0.0,0.0,0.0,0.0,0.0,0.0,0.0,0.0,0.0,0.0,0.0,0.0,0.0,0.0,0.0,0.0,0.0,0.0,0.0,-0.6532,-0.6584,-0.678,-0.6817,-0.6677,-0.634,-0.6367,-0.6744,0.0,0.0,0.0,0.0,0.0,0.0,-0.8785,-0.9228,-0.9705,-0.8958,-0.7735,0.0,0.0,0.0,0.0,0.0,0.0,0.0,0.0,0.0296,0.1472,0.2973,0.4212,0.5063,0.4867,0.4498,0.4123,0.3878,0.3156,0.2279,0.0,0.0,0.0,0.0,0.0,0.0,0.0,0.0,0.0,0.0,0.0,0.0,0.0,0.0,0.0,0.0,0.0,0.0,0.0,0.0,0.0,0.0,0.0,0.0,0.0,0.0,0.0,0.0,1.4075,1.4117,1.4482,1.4489,1.4531,1.4608,1.4608,1.4608,1.4608,1.5082,1.5816,1.6854,1.7779,1.8749,1.9756,2.0498,2.0819,2.0819,2.0819,2.0819,2.0819,2.0974,2.1002,2.1041,2.1156,2.1156,2.1128,0.0,0.0,0.0,0.0,0.0,0.0,0.0,0.0,0.0,0.0,0.0,0.0,0.0,0.0,0.0,0.0,0.0,0.0,0.0,0.0,0.0,0.0,0.0,-0.6592,-0.6785,-0.6525,-0.6256,-0.5998,-0.5793,-0.5797,-0.6003,-0.6283,0.0,0.0,0.0,0.0,0.0,0.0,-0.8578,-0.9056,-0.6626,-0.5872,-0.5971,0.0,0.0,0.0,0.0,0.0,0.0,0.0,0.0368,0.3041,0.2137,0.3864,0.6068,0.5328,0.352,0.1779,0.1918,0.2004,0.1731,0.0,0.0,0.0,0.0,0.0,0.0,0.0,0.0,0.0,0.0,0.0,0.0,0.0,0.0,0.0,0.0,0.0,0.0,0.0,0.0,0.0,0.0,0.0,0.0,0.0,0.0,0.0,0.0,1.3828,1.3984,1.465,1.4292,1.4208,1.4398,1.4398,1.4398,1.4398,1.4873,1.5533,1.6435,1.7521,1.8447,1.9301,2.0216,2.0566,2.0605,2.0605,2.0605,2.0605,2.0605,2.0605,2.0605,2.0605,2.0731,2.0906,0.0,0.0,0.0,0.0,0.0,0.0,0.0,0.0,0.0,0.0,0.0,0.0,0.0,0.0,0.0,0.0,0.0,0.0,0.0,0.0,0.0,0.0,0.0,0.0,0.0,0.0,-0.5831,-0.5939,-0.5923,-0.6073,0.0,0.0,0.0,-0.7412,0.0,0.0,0.0,-0.4895,-0.4697,-0.6403,-0.3803,-0.1823,-0.0373,0.0,0.0,0.0,0.0,0.0,0.0,0.0,0.0,0.0,0.5288,0.6345,0.6901,0.6485,0.5814,0.5167,0.4971,0.2901,0.0,0.2044,0.0,0.0,0.0,0.0,0.0,0.0,0.0,0.0,0.0,0.0,0.0,0.0,0.0,0.0,0.0,0.0,0.0,0.0,0.0,0.0,0.0,0.0,0.0,0.0,0.0,0.0,0.0,1.3398,1.3519,1.3984,1.3864,1.3955,1.4208,1.4208,1.4208,1.4208,1.4489,1.4908,1.5533,1.6583,1.7229,1.7513,1.8399,1.9125,1.9736,2.0372,2.0605,2.0605,2.0605,2.0605,2.0605,2.078,2.078,2.0693,0.0,0.0,0.0,0.0,0.0,0.0,0.0,0.0,0.0,0.0,0.0,0.0,0.0,0.0,0.0,0.0,0.0,0.0,0.0,0.0,0.0,0.0,0.0,0.0,0.0,-0.5659,-0.5516,0.0,0.0,0.0,0.0,0.0,0.0,-0.7571,0.0,-0.7017,0.0,0.0,-0.3855,-0.5352,-0.1469,0.0928,0.2322,0.0,0.0,0.0,0.0,0.0,0.0,0.0,0.0,0.0,0.7168,0.7542,0.7182,0.6188,0.5656,0.4969,0.3075,0.1325,0.0,0.0091,-0.0314,0.0,0.0,0.0,0.0,0.0,0.0,0.0,0.0,0.0,0.0,0.0,0.0,0.0,0.0,0.0,0.0,0.0,0.0,0.0,0.0,0.0,0.0,0.0,0.0,0.0,0.0,1.3052,1.3137,1.3561,1.3483,1.361,1.3955,1.3955,1.3997,1.4088,1.4321,1.4566,1.4866,1.5925,1.6494,1.6665,1.7957,1.8807,1.9341,2.0137,2.0527,2.0605,2.0489,2.0527,2.0605,2.0731,2.0693,2.0605,0.0,0.0,0.0,0.0,0.0,0.0,0.0,0.0,0.0,0.0,0.0,0.0,0.0,0.0,0.0,0.0,0.0,0.0,0.0,0.0,0.0,0.0,0.0,0.0,0.0,0.0,0.0,0.0,0.0,0.0,0.0,0.0,-0.534,-0.7641,0.0,-0.8044,-0.8545,-0.5264,-0.4378,-0.4724,0.0689,0.2875,0.3123,0.5383,0.0,0.0,0.0,0.0,0.0,0.0,0.0,0.0,0.7984,0.775,0.716,0.5242,0.4129,0.2619,-0.1318,0.0,0.0,-0.3766,-0.2277,0.0,0.0,0.0,0.0,0.0,0.0,0.0,0.0,0.0,0.0,0.0,0.0,0.0,0.0,0.0,0.0,0.0,0.0,0.0,0.0,0.0,0.0,0.0,0.0,0.0,0.0,1.2833,1.2918,1.3349,1.3185,1.3313,1.3695,1.3695,1.3786,1.4088,1.4237,1.4356,1.4356,1.5421,1.6008,1.6345,1.8287,1.9134,1.9173,1.9942,2.0381,2.0527,2.0342,2.042,2.0527,2.0566,2.0605,2.0566,0.0,0.0,0.0,0.0,0.0,0.0,0.0,0.0,0.0,0.0,0.0,0.0,0.0,0.0,0.0,0.0,0.0,0.0,0.0,0.0,0.0,0.0,0.0,0.0,0.0,0.0,0.0,0.0,0.0,0.0,0.0,0.0,0.0,-0.8614,0.0,-0.6245,-0.5967,-0.1138,0.0877,0.1113,0.4467,0.577,0.5785,0.6377,0.6173,0.0,0.0,0.0,0.0,0.0,0.0,0.0,0.8109,0.7975,0.7687,0.703,0.5575,0.3929,0.2681,0.0154,0.0,0.0,-0.1365,-0.074,0.0,0.0,0.0,0.0,0.0,0.0,0.0,0.0,0.0,0.0,0.0,0.0,0.0,0.0,0.0,0.0,0.0,0.0,0.0,0.0,0.0,0.0,0.0,0.0,1.279,1.2747,1.2833,1.3137,1.3137,1.3313,1.3695,1.3519,1.3561,0.0,1.3822,1.3857,1.3899,1.4643,1.5019,1.5186,1.6935,1.7747,1.7868,1.9371,2.002,2.0059,2.0225,2.0186,2.0098,2.045,2.0489,2.0381,0.0,0.0,0.0,0.0,0.0,0.0,0.0,0.0,0.0,0.0,0.0,0.0,0.0,0.0,0.0,0.0,0.0,0.0,0.0,0.0,0.0,0.0,0.0,0.0,0.0,0.0,0.0,0.0,0.0,0.0,0.0,0.0,0.0,-0.5368,0.0,-0.3662,-0.3408,0.0879,0.2644,0.2842,0.5675,0.677,0.675,0.6866,0.6872,0.6874,0.7177,0.0,0.0,0.0,0.0,0.0,0.0,0.0,0.7827,0.6752,0.6142,0.5061,0.178,0.0,0.0,-0.1742,0.0,0.0,0.0,0.0,0.0,0.0,0.0,0.0,0.0,0.0,0.0,0.0,0.0,0.0,0.0,0.0,0.0,0.0,0.0,0.0,0.0,0.0,0.0,0.0,0.0,1.2705,1.2705,1.2705,1.2747,1.2881,1.2924,1.3052,1.3398,1.3307,1.3349,1.3568,1.3568,1.3568,1.3568,1.423,1.4566,1.4643,1.6478,1.7302,1.7423,1.9094,1.9833,1.9902,1.9951,1.9951,1.9942,2.0333,2.0381,2.0342,0.0,0.0,0.0,0.0,0.0,0.0,0.0,0.0,0.0,0.0,0.0,0.0,0.0,0.0,0.0,0.0,0.0,0.0,0.0,0.0,0.0,0.0,0.0,0.0,0.0,0.0,0.0,0.0,0.0,0.0,0.0,0.0,0.0,-0.2065,0.0,-0.1108,-0.0702,0.1894,0.31,0.351,0.5954,0.696,0.6987,0.7058,0.7171,0.7257,0.7257,0.7365,0.744,0.7311,0.0,0.0,0.0,0.0,0.7806,0.6105,0.6192,0.5628,0.0156,0.0,-0.0363,-0.2365,-0.2088,0.0,0.0,0.0,0.0,0.0,0.0,0.0,0.0,0.0,0.0,0.0,0.0,0.0,0.0,0.0,0.0,0.0,0.0,0.0,0.0,0.0,0.0,0.0,0.0,1.24,1.24,1.2577,1.2705,1.2705,1.2705,1.2833,1.3094,1.3052,1.3137,1.3355,1.3355,1.3355,1.3434,1.4019,1.4272,1.4391,1.6363,1.722,1.7302,1.8895,1.9636,1.9784,1.9636,1.9676,1.9824,2.0108,2.0225,2.0235,0.0,0.0,0.0,0.0,0.0,0.0,0.0,0.0,0.0,0.0,0.0,0.0,0.0,0.0,0.0,0.0,0.0,0.0,0.0,0.0,0.0,0.0,-0.4255,0.0,0.0,0.0,0.0,0.0,0.0,0.0,0.0,0.0,0.0,-0.4354,0.0,0.0,0.2474,0.2783,0.4307,0.6535,0.6903,0.7144,0.723,0.7139,0.7112,0.7139,0.7139,0.7225,0.7311,0.7171,0.7333,0.0,0.0,0.0,0.7794,0.7074,0.5949,0.4593,0.3004,0.0,-0.1366,0.0,-0.2065,-0.0976,0.0,0.0,0.0,0.0,0.0,0.0,0.0,0.0,0.0,0.0,0.0,0.0,0.0,0.0,0.0,0.0,0.0,0.0,0.0,0.0,0.0,0.0,1.0788,1.1219,1.1219,1.218,1.2705,1.2705,1.2705,1.2833,1.3094,1.2881,1.2875,1.3143,1.3143,1.3228,1.3398,1.3688,1.3773,1.3899,1.5918,1.678,1.6903,1.8647,1.9341,1.9381,1.9557,1.9508,1.942,1.9824,1.9833,1.9771,0.0,0.0,0.0,0.0,0.0,0.0,0.0,0.0,0.0,0.0,0.0,0.0,0.0,0.0,0.0,0.0,0.0,0.0,0.0,0.0,0.0,-0.4141,-0.4746,-0.5195,-0.5422,0.0,0.0,0.0,0.0,0.0,0.0,-0.0721,0.0753,0.0,0.0,0.0,0.0,0.0,0.6132,0.7314,0.724,0.6442,0.5433,0.6727,0.6383,0.5373,0.664,0.709,0.7068,0.7014,0.7225,0.7488,0.7343,0.0,0.0,0.0,0.6498,0.4763,0.199,-0.0466,-0.2344,0.0,-0.2387,-0.1527,0.0196,0.0,0.0,0.0,0.0,0.0,0.0,0.0,0.0,0.0,0.0,0.0,0.0,0.0,0.0,0.0,0.0,0.0,0.0,0.0,0.0,0.0,1.0389,1.0999,1.0999,1.1832,1.2448,1.2705,1.2443,1.2491,1.2881,1.2747,1.2747,1.2881,1.2881,1.2918,1.3009,1.3264,1.3483,1.3779,1.513,1.6116,1.678,1.7908,1.8767,1.9301,1.939,1.9381,1.9341,1.9636,1.9676,1.9701,0.0,0.0,0.0,0.0,0.0,0.0,0.0,0.0,0.0,0.0,0.0,0.0,0.0,0.0,0.0,0.0,0.0,0.0,0.0,0.0,0.0,-0.407,-0.4803,-0.52,-0.5208,0.0,0.0,0.0,0.0,0.0,-0.3265,0.0926,0.4257,0.0,0.7073,0.0,0.0,0.0,0.0,0.0,0.6514,0.5165,0.0,0.0,0.4343,0.3098,0.5426,0.6193,0.6184,0.6769,0.7117,0.7344,0.7258,0.7389,0.0,0.0,0.0,0.5239,0.145,-0.0547,-0.1721,-0.229,-0.213,-0.1475,0.0,0.0,0.0,0.0,0.0,0.0,0.0,0.0,0.0,0.0,0.0,0.0,0.0,0.0,0.0,0.0,0.0,0.0,0.0,0.0,0.0,0.0,0.9691,1.0346,1.0346,1.1268,1.2057,1.2491,1.2186,1.2229,1.2705,1.2705,1.2705,1.2705,1.2705,1.2705,1.2705,1.2966,1.327,1.3603,1.4713,1.5745,1.669,1.7594,1.8416,1.9152,1.9262,1.9222,1.9192,1.9439,1.9583,1.9771,0.0,0.0,0.0,0.0,0.0,0.0,0.0,0.0,0.0,0.0,0.0,0.0,0.0,0.0,0.0,-0.4017,0.0,0.0,0.0,0.0,0.0,-0.3172,-0.3643,0.0,-0.491,0.0,0.0,0.0,0.0,0.0,0.2461,0.2327,0.3836,0.6725,0.6848,0.6993,0.7095,0.0,0.0,0.0,0.0,0.0,0.0,0.0,0.0,0.0,0.0,0.3952,0.4277,0.6391,0.7009,0.6943,0.6995,0.7113,0.7234,0.0,0.0,0.0,0.3392,0.2462,0.1634,-0.0851,-0.0754,0.0,0.0,0.0,0.0,0.0,0.0,0.0,0.0,0.0,0.0,0.0,0.0,0.0,0.0,0.0,0.0,0.0,0.0,0.0,0.0,0.0,0.0,0.0,0.7998,0.8611,0.8611,1.0361,1.1542,1.2015,1.2015,1.2229,1.2705,1.2705,1.2705,1.2705,1.2705,1.2705,1.2705,1.2966,1.31,1.3222,1.4914,1.5944,1.6527,1.8031,1.8692,1.8772,1.9152,1.9082,1.8772,1.9152,1.9558,1.9952,0.0,0.0,0.0,0.0,0.0,0.0,0.0,0.0,0.0,0.0,0.0,0.0,0.0,-0.3934,-0.3736,-0.3437,-0.3068,0.0,0.0,0.0,0.0,-0.2963,-0.345,-0.3734,-0.3757,0.0,0.0,0.0,0.0,0.0994,0.1839,0.3827,0.5245,0.6146,0.6663,0.6933,0.6955,0.6788,0.0,0.0,0.0,0.0,0.0,0.0,0.0,0.0,0.0,0.0,0.0,0.4456,0.5583,0.0,0.0,0.0,0.0,0.5796,0.5555,0.4951,0.2896,0.233,0.1996,0.047,0.0186,0.0378,0.061,0.0,0.0,0.0,0.0,0.0,0.0,0.0,0.0,0.0,0.0,0.0,0.0,0.0,0.0,0.0,0.0,0.0,0.0,0.0,0.0,0.0,0.0,0.848,0.848,1.0014,1.1068,1.1542,1.1278,1.1451,1.2229,1.2528,1.2705,1.2705,1.2705,1.2705,1.2705,1.279,1.2833,1.2918,1.3971,1.4754,1.5323,1.5779,1.6355,1.705,1.7948,1.8198,1.8201,1.9282,1.9756,1.9976,0.0,0.0,0.0,0.0,0.0,0.0,0.0,0.0,0.0,0.0,0.0,0.0,0.0,0.0,-0.3229,-0.2711,-0.2377,-0.2196,-0.2224,-0.2301,-0.2349,-0.2371,-0.2803,-0.2931,0.0,0.0,0.0,0.0,0.0,0.0,0.0,0.458,0.557,0.5555,0.6121,0.6439,0.0,0.0,0.0,0.6463,0.0,0.0,0.1051,0.0,0.0,0.0,0.0,0.0,0.0,0.0,0.0,0.0,0.0,0.0,0.0,0.0,0.4938,0.4667,0.3253,0.3004,0.2868,0.1801,0.1484,0.1402,0.1202,0.0,0.0,0.0,0.0,0.0,0.0,0.0,0.0,0.0,0.0,0.0,0.0,0.0,0.0,0.0,0.0,0.0,0.0,0.0,0.0,0.0,0.0,0.0,0.8265,0.9628,1.0593,1.1063,1.1068,1.137,1.1972,1.2491,1.2705,1.2705,1.2705,1.2705,1.2705,1.2705,1.2705,1.2705,1.3179,1.3837,1.4615,1.4706,1.5157,1.5895,1.6789,1.7163,1.7432,1.8854,1.9587,2.0011,0.0,0.0,0.0,0.0,0.0,0.0,0.0,0.0,0.0,0.0,0.0,0.0,0.0,0.0,0.0,-0.1902,-0.1682,-0.1515,-0.1319,-0.1484,-0.151,-0.1313,0.0,0.0,0.0,0.0,0.0,0.0,0.0,0.0,0.0,0.0,0.4588,0.4965,0.5184,0.551,0.595,0.0,0.597,0.5448,0.0,0.088,0.2171,0.0,0.0,0.0,0.007,0.0207,0.0,0.0266,0.0,0.0,0.0,0.0,0.0,0.0,0.0,0.0,0.0,0.0,0.0,0.3168,0.3199,0.3043,0.1225,0.0,0.0,0.0,0.0,0.0,0.0,0.0,0.0,0.0,0.0,0.0,0.0,0.0,0.0,0.0,0.0,0.0,0.0,0.0,0.0,0.0,0.6732,0.779,0.779,0.92,1.0164,1.0549,1.1499,1.1972,1.1972,1.2448,1.2662,1.2662,1.2662,1.2662,1.2662,1.2705,1.2705,1.2705,1.2705,1.3324,1.4406,1.5054,1.5311,1.5345,1.5812,1.6157,1.6531,1.7871,1.9005,1.9992,0.0,0.0,0.0,0.0,0.0,0.0,0.0,0.0,0.0,0.0,0.0,0.0,0.0,0.0,0.0,-0.2437,-0.1794,-0.1459,-0.1657,-0.1402,-0.1261,-0.1289,-0.1205,-0.0931,0.0,0.0,0.0,0.0,0.0,0.0,0.0,0.0,0.0,0.0,0.4385,0.4583,0.4749,0.5389,0.0,0.0,0.1337,-0.0035,0.0,0.0,0.0,0.0,0.0,-0.1151,-0.0497,0.0,0.0313,0.3367,0.0,0.0,0.0,0.0,0.0,0.0,0.4161,0.0,0.0,0.0,0.0,0.0,0.3231,0.1833,0.0906,0.0,0.0,0.0,0.0,0.0,0.0,0.0,0.0,0.0,0.0,0.0,0.0,0.0,0.0,0.0,0.0,0.0,0.0,0.0,0.6912,0.779,0.779,0.92,1.0038,1.0168,1.0679,1.1149,1.1499,1.1628,1.1843,1.2186,1.2186,1.2186,1.2229,1.2528,1.2705,1.2705,1.2705,1.2869,1.316,1.3379,1.3464,1.3584,1.5005,1.5769,1.6269,1.821,1.929,1.9852,0.0,0.0,0.0,0.0,0.0,0.0,0.0,0.0,0.0,0.0,0.0,0.0,0.0,0.0,0.0,-0.2303,-0.181,-0.149,-0.1462,-0.1199,-0.0994,-0.0877,-0.0643,-0.0324,0.006,0.0,0.0,0.0,0.0,0.0,0.0,0.0,0.0,0.0,0.0,0.0,0.0,0.0,0.0,0.0,0.1093,0.0,0.0,-0.1981,-0.3326,0.0,0.0,0.0,-0.1759,-0.3768,-0.1527,0.0,0.0,0.0,0.0,0.0,0.0,0.0,0.0,0.0,0.0,0.45,0.0,0.0,0.3705,0.2468,0.1456,0.0,0.0,0.0,0.0,0.0,0.0,0.0,0.0,0.0,0.0,0.0,0.0,0.0,0.0,0.0,0.0,0.39,0.4257,0.4795,0.6425,0.7746,0.8496,0.9467,0.9994,0.9994,1.0381,1.0722,1.102,1.1198,1.1456,1.1714,1.1929,1.2015,1.2015,1.2272,1.2528,1.2705,1.2491,1.2528,1.2705,1.2705,1.2705,1.2802,1.3982,1.4935,1.587,1.7612,1.874,1.9476,0.0,0.0,0.0,0.0,0.0,0.0,0.0,0.0,0.0,0.0,0.0,0.0,0.0,0.0,0.0,0.0,-0.1848,-0.1573,-0.1142,-0.1019,-0.0772,-0.037,-0.0123,0.0031,0.0186,0.0465,0.0,0.0,0.0,0.0,0.0,0.0,0.0,0.0,0.0,0.0,0.0,0.0,0.0,0.404,0.0836,0.0637,0.0,0.0,-0.2098,-0.0869,-0.2787,-0.3222,-0.3229,-0.5114,-0.3988,0.0,0.0,0.0,0.0,0.0,0.3165,0.0,0.0,0.0,0.0,0.0,0.4694,0.0,0.3453,0.2999,0.2497,0.1498,0.0,0.0,0.0,0.0,0.0,0.0,0.0,0.0,0.0,0.0,0.0,0.0,0.0,0.0,0.2963,0.3365,0.3631,0.3676,0.5628,0.7614,0.9336,0.982,0.9994,0.9994,1.0337,1.0549,1.0593,1.0982,1.1198,1.1241,1.1671,1.1837,1.1843,1.1886,1.2186,1.2619,1.2186,1.2272,1.2705,1.2735,1.2747,1.2777,1.3112,1.4106,1.5524,1.6571,1.7809,1.908,0.0,0.0,0.0,0.0,0.0,0.0,0.0,0.0,0.0,0.0,0.0,0.0,0.0,0.0,0.0,0.0,-0.2093,-0.1633,-0.1788,-0.1049,-0.0617,-0.0617,-0.034,-0.0094,0.0032,0.0096,0.0356,0.0,0.0,0.0,0.0,0.0,0.0,0.0,0.0,0.0,0.0,0.0,0.0,0.1334,0.1077,0.0,-0.0538,-0.2851,-0.4282,-0.5114,-0.5532,-0.4817,-0.3558,-0.2729,-0.2771,-0.2737,0.0,0.0,0.0,0.0,0.0,0.0,0.0,0.0,0.0,0.0,0.0,0.0,0.4684,0.3593,0.278,0.0,0.0,0.0,0.0,0.0,0.0,0.0,0.0,0.0,0.0,0.0,0.0,0.0,0.0,0.0,0.3403,0.3544,0.3765,0.4121,0.5933,0.7474,0.84,0.9462,0.9994,0.9994,1.0081,1.025,1.0593,1.0381,1.0424,1.0722,1.0847,1.0852,1.0895,1.1278,1.1671,1.2143,1.2057,1.2272,1.2723,1.2952,1.2999,1.3092,1.3661,1.4783,1.6119,1.6844,1.7842,1.887,0.0,0.0,0.0,0.0,0.0,0.0,0.0,0.0,0.0,0.0,0.0,0.0,0.0,0.0,0.0,0.0,0.0,0.0,0.0,0.0,-0.1096,-0.0903,-0.0645,-0.0423,-0.0264,-0.0099,0.0166,0.0,0.0,0.0,0.0,0.0,0.0,0.0,0.0,0.0,0.0,0.0,0.2122,0.1278,0.0319,0.0,-0.2651,-0.4435,-0.5605,-0.63,-0.63,-0.5777,-0.4936,-0.4,-0.3239,0.0,0.0,-0.0717,0.0355,0.0,0.2112,0.1837,0.0,0.0,0.0,0.428,0.0,0.0,0.0,0.3866,0.3391,0.3728,0.309,0.0,0.0,0.0,0.0,0.0,0.0,0.0,0.0,0.0,0.0,0.0,0.0,0.0,0.3174,0.318,0.3502,0.4251,0.5844,0.7122,0.7962,0.9288,0.9994,0.9994,0.9994,1.0081,1.0294,1.0081,1.0081,1.0294,1.0506,1.0593,1.0593,1.0852,1.1322,1.1972,1.1757,1.2132,1.2922,1.3023,1.3278,1.3513,1.387,1.4663,1.5667,1.6149,1.6908,1.7707,0.0,0.0,0.0,0.0,0.0,0.0,0.0,0.0,0.0,0.0,0.0,0.0,0.0,0.0,0.0,0.0,0.0,0.0,0.0,0.0,-0.2096,-0.1723,-0.1147,-0.0911,-0.105,-0.0405,0.0,0.0236,0.0,0.0,0.0,0.0,0.0,0.0,0.0,0.0,0.0,0.0,0.0,0.0993,0.0,-0.2247,-0.327,-0.4909,-0.5682,-0.5947,-0.6254,-0.6385,-0.63,-0.571,-0.3975,-0.2146,-0.2692,-0.1434,0.0,0.0,0.0,0.0,0.0,0.0,0.0,0.0,0.0,0.4764,0.0,0.0,0.0,0.3833,0.374,0.0,0.0,0.0,0.0,0.0,0.0,0.0,0.0,0.0,0.0,0.0,0.0,0.0,0.0,0.3108,0.3359,0.3979,0.5689,0.6916,0.7434,0.8982,0.9864,0.9907,0.9907,0.9951,0.9994,0.9994,0.9994,0.9994,1.0337,1.0463,1.0463,1.0463,1.0982,1.1843,1.1505,1.1947,1.2951,1.3191,1.3429,1.3766,1.3859,1.4397,1.5119,1.5306,1.5913,1.6588,-0.6083,-0.5843,0.0,0.0,0.0,0.0,0.0,0.0,0.0,0.0,0.0,0.0,0.0,0.0,0.0,0.0,0.0,0.0,-0.4771,0.0,0.0,-0.3834,-0.207,-0.166,-0.2964,-0.1322,-0.0303,0.0034,0.0,0.0,0.0,0.0,0.0,0.0,-0.0212,0.0,0.0,0.0,-0.111,0.0,-0.2303,-0.1424,0.0,-0.2047,-0.3435,-0.4716,-0.6144,-0.6651,-0.6419,0.0,-0.3597,-0.2448,0.0,-0.0654,-0.1215,0.2878,0.0,0.0,0.0,0.0,0.0,0.0,0.5218,0.0,0.0,0.0,0.5529,0.53,0.0,0.5477,0.0,0.0,0.0,0.0,0.0,0.0,0.0,0.0,0.0,0.0,0.0,0.0,0.0,0.4204,0.3941,0.3132,0.5918,0.7246,0.6328,0.8237,0.9476,0.9646,0.9646,0.9777,0.9994,0.9994,0.9994,0.9994,1.0038,1.0081,1.0081,1.0081,1.0554,1.1381,1.1558,1.1938,1.2437,1.3439,1.3566,1.3239,1.3713,1.4515,1.5345,1.5378,1.5913,1.6588,-0.5965,-0.5786,0.0,0.0,0.0,0.0,0.0,0.0,0.0,0.0,0.0,0.0,0.0,0.0,0.0,0.0,0.0,-0.5918,0.0,0.0,0.0,-0.3205,-0.1925,-0.1518,-0.2143,-0.0979,-0.0269,0.0,0.0273,0.0,0.0,0.0,0.0,0.0,-0.0927,0.0,-0.1418,0.0,-0.2092,0.0,0.0,0.0,0.0,-0.3643,-0.5192,-0.5779,-0.6465,-0.6702,-0.6564,0.0,-0.408,0.0,0.0,0.0,0.0,0.0,0.0,0.0,0.0,0.0,0.0,0.0,0.0,0.0,0.5132,0.0,0.5767,0.0,0.0,0.0,0.0,0.0,0.0,0.0,0.5715,0.0,0.0,0.0,0.0,0.0,0.0,0.0,0.0,0.0,0.0,0.0,0.5181,0.6443,0.611,0.8149,0.9388,0.9602,0.9602,0.9733,0.9994,0.9994,0.9994,0.9994,0.9994,0.9994,0.9994,0.9994,1.0337,1.0906,1.1193,1.1774,1.2648,1.3188,1.3567,1.3838,1.4034,1.4386,1.4771,1.4771,1.4962,1.5248,-0.5896,0.0,0.0,0.0,0.0,0.0,0.0,0.0,0.0,0.0,0.0,0.0,-0.4434,-0.5232,0.0,0.0,-0.7442,-0.7374,0.0,0.0,-0.5472,0.0,0.0,0.0,-0.3036,-0.1494,-0.0539,-0.0303,0.0035,0.0,0.0,0.0,0.0,0.0,0.0,-0.2,-0.2929,0.0,-0.314,-0.2615,-0.3392,-0.322,-0.2763,-0.522,-0.6444,-0.682,-0.682,-0.682,-0.6729,-0.6218,-0.4367,0.0,-0.4508,0.0,0.0,0.0,0.0,0.0,0.4363,0.0,0.0,0.0,0.0,0.0,0.0,0.0,0.0,0.0,0.0,0.0,0.0,0.0,0.0,0.0,0.0,0.6325,0.0,0.0,0.0,0.0,0.0,0.0,0.0,0.0,0.0,0.328,0.5063,0.6121,0.5977,0.7977,0.9213,0.9388,0.9476,0.965,0.9907,0.9951,0.9994,0.9994,0.9994,0.9994,0.9994,0.9994,1.0241,1.0698,1.0975,1.1612,1.249,1.2869,1.3261,1.3667,1.3817,1.3962,1.4112,1.425,1.4298,1.4298,-0.5914,-0.5745,0.0,0.0,0.0,0.0,0.0,0.0,0.0,0.0,0.0,0.0,0.0,0.0,0.0,0.0,0.0,-1.2329,-1.0827,0.0,-0.8639,0.0,0.0,-0.4187,0.0,-0.3611,-0.1412,-0.1076,-0.0346,0.0,0.0,0.0,0.0,0.0,0.0,-0.1796,-0.176,-0.3316,-0.4753,-0.592,-0.5766,-0.6342,-0.7102,0.0,-0.5727,-0.7082,-0.7082,0.0,0.0,-0.5081,-0.4128,0.0,0.0,0.0,0.0,0.0,0.0,0.0,0.0,0.0,0.0,0.5326,0.0,0.0,0.0,0.0,0.6511,0.0,0.0,0.0,0.0,0.0,0.0,0.0,0.0,0.0,0.0,0.0,0.0,0.0,0.0,0.0,0.0,0.0,0.0,0.4353,0.6186,0.6869,0.5753,0.754,0.8696,0.8911,0.9174,0.9388,0.9602,0.9864,0.9994,0.9994,0.9994,0.9994,0.9994,0.9994,1.0372,1.0985,1.1253,1.1476,1.1704,1.2507,1.2511,1.2122,1.2662,1.3152,1.3588,1.4106,1.4298,1.4298,0.0,0.0,0.0,0.0,0.0,0.0,0.0,-0.4495,0.0,0.0,0.0,0.0,0.0,-0.9263,-1.0267,0.0,0.0,-1.1465,-1.0939,-0.9133,0.0,0.0,0.0,-0.3648,0.0,0.0,0.0,0.0,0.0,0.0,0.0,0.0,0.0,0.0,0.0,-0.2363,0.0,0.0,0.0,0.0,0.0,-0.5782,-0.6118,0.0,-0.6605,-0.7095,-0.7095,-0.7095,0.0,-0.6414,-0.5282,-0.4316,-0.5043,-0.3902,-0.2362,-0.2758,-0.241,0.0,0.0,0.0,-0.0457,0.3252,0.0,0.0,0.0,0.0,0.0,0.0,0.0,0.0,0.0,0.0,0.0,0.0,0.0,0.0,0.0,0.0,0.7676,0.814,0.7433,0.0,0.0,0.0,0.0,0.4314,0.5394,0.5979,0.5714,0.7544,0.8784,0.9174,0.9262,0.9476,0.9864,0.9951,0.9994,0.9994,0.9994,0.9994,0.9999,1.0146,1.034,1.0561,1.0915,1.1303,1.172,1.2083,1.237,1.2565,1.2716,1.3104,1.3539,1.3678,1.401,1.4298,-0.5395,0.0,0.0,0.0,0.0,0.0,0.0,0.0,0.0,0.0,-0.6832,0.0,-0.9499,0.0,-1.0716,0.0,-1.1952,-1.1866,-1.1249,-1.0033,0.0,-0.98,-0.6503,0.0,0.0,0.0,0.0,0.0,0.0,-0.1678,0.0,0.0,0.0,0.0,0.0,-0.2545,-0.4254,-0.5184,-0.6108,0.0,0.0,-0.6294,0.0,0.0,-0.6794,-0.6402,0.0,-0.7095,-0.7095,-0.7095,-0.632,-0.5559,-0.675,-0.5507,-0.3809,-0.4685,-0.4136,-0.2975,-0.1854,-0.2422,0.0,0.1067,0.0987,0.0,0.4456,0.0,0.0,0.0,0.0,0.0,0.0,0.0,0.0,0.0,0.0,0.0,0.0,0.7484,0.7638,0.8021,0.7629,0.7227,0.0,0.5928,0.5018,0.4357,0.5043,0.558,0.0,0.0,0.8384,0.9047,0.9218,0.9432,0.9733,0.9907,0.9994,0.9994,0.9994,0.9994,1.0004,1.0217,1.036,1.0445,1.0745,1.1125,1.1543,1.1677,1.1932,1.2224,1.2224,1.2662,1.3249,1.3443,1.3823,1.4298,-0.5482,0.0,0.0,0.0,-0.5246,0.0,0.0,0.0,-0.5348,0.0,-0.7317,-0.8079,-0.9959,-1.1522,-1.2353,-1.2154,-1.3515,-1.3671,-1.2017,-1.1584,0.0,0.0,-0.986,-0.9468,-1.1078,0.0,0.0,0.0,0.0,0.0,0.0,0.0,0.0,0.0,-0.0903,0.0,-0.4594,-0.4594,-0.6126,-0.8524,-0.8076,-0.7848,-0.7709,-0.7272,-0.6209,-0.5201,-0.6599,-0.7095,-0.7095,-0.7095,-0.7095,-0.7095,-0.7095,-0.7095,-0.7095,-0.7095,-0.7095,-0.6659,-0.4772,-0.392,-0.3083,-0.1046,-0.0208,0.0,0.0,0.0,0.3471,0.0,0.0,0.0,0.0,0.0,0.0,0.0,0.0,0.0,0.0,0.0,0.7522,0.7522,0.7838,0.7944,0.7664,0.7309,0.6347,0.4511,0.5207,0.5718,0.0,0.0,0.7621,0.8568,0.9043,0.9305,0.9305,0.9733,0.9994,0.9994,0.9994,0.9999,1.0018,1.0232,1.04,1.0649,1.0816,1.1019,1.1194,1.1194,1.1194,1.1194,1.1194,1.1834,1.2813,1.3346,1.3871,1.4298,-0.6386,-0.6113,-0.5835,0.0,-0.555,-0.5473,0.0,0.0,0.0,0.0,-1.0401,-1.1856,-1.3568,-1.4111,-1.4207,-1.3821,-1.4177,0.0,0.0,0.0,0.0,-1.3468,-1.0426,-0.9584,-1.1409,-0.8163,0.0,-0.6326,0.0,0.0,-0.316,0.0,0.0,0.0,0.0,0.0,-0.4804,-0.4432,-0.5746,-0.8076,-0.7944,-0.7155,-0.6103,0.0,-0.6209,-0.5201,-0.6599,-0.7095,-0.7095,-0.7095,-0.7095,-0.7095,-0.7095,-0.7095,-0.7095,-0.7095,-0.7095,-0.6953,-0.6295,-0.6019,-0.5365,-0.3004,-0.2304,-0.1484,0.0,0.0,0.0,0.0,0.0,0.0,0.0,0.0,0.0,0.0,0.0,0.0,0.0,0.0,0.0,0.7949,0.7512,0.7395,0.7906,0.6857,0.5955,0.5471,0.5782,0.0,0.0,0.0,0.0,0.8819,0.913,0.9305,0.9305,0.9563,0.9689,0.9689,0.9689,0.9904,1.0241,1.045,1.0612,1.0825,1.1033,1.1146,1.1194,1.1194,1.1194,1.1194,1.1194,1.159,1.237,1.3624,1.4202,1.4298,-0.6623,0.0,0.0,-0.6014,0.0,0.0,-0.6343,-0.6513,0.0,-0.9818,-1.0997,0.0,-1.4042,-1.483,-1.5041,-1.4566,-1.4524,0.0,-1.3159,0.0,0.0,-1.3063,-1.1798,-1.1553,-1.2685,-1.0232,0.0,-0.8107,0.0,0.0,-0.3795,0.0,0.0,0.0,0.0,-0.2439,-0.417,-0.4964,-0.6108,-0.7396,-0.7779,-0.7351,0.0,-0.6929,-0.6599,-0.6014,-0.6797,-0.7095,-0.7095,-0.7095,-0.7095,-0.7095,-0.7095,-0.7095,-0.7095,-0.7095,-0.7095,-0.7098,-0.6969,-0.6792,-0.6278,-0.4872,-0.4378,-0.3438,-0.0298,0.0381,0.0762,0.0,0.2866,0.3144,0.0,0.0,0.0,0.0,0.0,0.0,0.0,0.0,0.0,0.0,0.7677,0.7665,0.8441,0.6866,0.5847,0.5927,0.6116,0.0,0.0,0.0,0.0,0.9125,0.9126,0.913,0.913,0.9345,0.9476,0.9476,0.9654,0.9892,1.0147,1.0533,1.0783,1.0905,1.1109,1.1194,1.1194,1.1194,1.1194,1.1243,1.1443,1.1736,1.2122,1.3238,1.3769,1.3968,-0.6584,0.0,0.0,0.0,0.0,0.0,0.0,-0.7073,0.0,-1.0262,0.0,-1.1595,-1.3179,-1.4573,-1.5215,-1.4734,0.0,-1.3976,-1.2254,-1.3371,-1.3487,-1.2171,-1.3384,-1.4088,-1.4088,-1.2588,-1.1191,0.0,0.0,0.0,0.0,0.0,0.0,0.0,0.0,0.0,0.0,-0.5732,-0.6748,-0.6906,-0.7661,-0.79,-0.7812,-0.7319,-0.7139,-0.7095,-0.7095,-0.7095,-0.7095,-0.7095,-0.7095,-0.7095,-0.7095,-0.7095,-0.7095,-0.7095,-0.7095,-0.7095,-0.7095,-0.6786,-0.6432,-0.6428,-0.608,-0.4984,-0.2176,-0.1516,-0.0954,0.1001,0.2099,0.2181,0.0,0.0,0.0,0.0,0.0,0.0,0.0,0.0,0.0,0.0,0.0,0.0,0.8962,0.7174,0.6045,0.6312,0.6548,0.0,0.0,0.0,0.0,0.9342,0.9083,0.8867,0.8867,0.0,0.9262,0.9262,0.9683,0.9881,0.9922,1.0576,1.091,1.0895,1.1118,1.1194,1.1194,1.1194,1.1194,1.1243,1.1731,1.1883,1.1932,1.2419,1.2926,1.3342,-0.7391,0.0,0.0,0.0,0.0,-0.9262,-1.0306,-1.1209,-1.1876,-1.2292,-1.3606,-1.4579,-1.4733,-1.5137,-1.5215,-1.4734,-1.4692,0.0,0.0,0.0,0.0,-1.3701,-1.3971,-1.4088,-1.4088,-1.2588,-1.1191,0.0,0.0,0.0,0.0,0.0,0.0,0.0,0.0,0.0,-0.4672,-0.6111,0.0,-0.7724,-0.8013,-0.7896,-0.7547,-0.7462,-0.7279,-0.7095,-0.7095,-0.7095,-0.7095,-0.7095,-0.7095,-0.7095,-0.7095,-0.7095,-0.7095,-0.7095,-0.7095,-0.7095,-0.7095,-0.6922,-0.6659,-0.6476,-0.6213,-0.545,-0.3161,-0.2625,-0.2048,-0.0134,0.0401,0.0708,0.1224,0.0,0.0,0.0,0.0,0.0,0.0,0.0,0.0,0.0,0.0,0.6502,0.9,0.77,0.6958,0.7541,0.7919,0.0,0.0,0.0,0.0,0.0,0.8855,0.0,0.0,0.0,0.8955,0.8955,0.9451,0.9717,0.984,1.0594,1.089,1.0854,1.1082,1.1194,1.1194,1.1194,1.1194,1.1194,1.1292,1.134,1.134,1.1438,1.1944,1.2592,-0.7522,0.0,0.0,0.0,0.0,0.0,0.0,-1.3561,-1.4157,-1.3082,-1.368,-1.4255,-1.4329,-1.5099,-1.5575,-1.5382,-1.5248,-1.5071,-1.4851,-1.4578,-1.437,-1.4237,-1.4243,-1.4201,-1.4088,-1.3377,-1.2046,-1.007,0.0,0.0,0.0,0.0,0.0,0.0,0.0,-0.3632,0.0,0.0,0.0,-0.7335,-0.7943,-0.7984,-0.768,-0.7551,-0.7323,-0.7095,-0.7095,-0.7095,-0.7095,-0.7095,-0.7095,-0.7095,-0.7095,-0.7095,-0.7095,-0.7095,-0.7095,-0.7095,-0.7095,-0.6966,-0.6748,-0.6476,-0.6257,-0.568,-0.3985,-0.327,-0.2465,-0.1032,-0.0359,0.0312,0.1393,0.2507,0.0,0.0,0.0,0.0,0.0,0.0,0.0,0.0,0.0,0.0,0.0,0.8305,0.8226,0.8072,0.811,0.8032,0.7818,0.0,0.0,0.0,0.0,0.0,0.0,0.0,0.0,0.8877,0.9332,0.9654,0.9798,1.0377,1.0715,1.0806,1.0953,1.1047,1.1194,1.1194,1.1194,1.1194,1.1194,1.1194,1.1208,1.1321,1.177,1.2349,0.0,-0.7962,0.0,0.0,-1.1118,0.0,-1.3446,-1.4979,-1.5447,-1.3903,-1.3751,-1.3919,-1.4153,-1.5276,-1.6024,-1.6094,-1.5842,-1.5619,-1.5388,-1.507,-1.4775,-1.4536,-1.4494,-1.4389,-1.413,-1.4088,-1.2935,0.0,0.0,0.0,0.0,0.0,0.0,0.0,0.0,0.0,0.0,0.0,-0.684,-0.7182,-0.7971,-0.816,-0.794,-0.7724,-0.7455,-0.7187,-0.7187,-0.7143,-0.7095,-0.7095,-0.7095,-0.7095,-0.7095,-0.7095,-0.7095,-0.7095,-0.7095,-0.7095,-0.7095,-0.6966,-0.6748,-0.6476,-0.6257,-0.5725,-0.4342,-0.3448,-0.2553,-0.1345,-0.0494,0.0312,0.1393,0.2058,0.0,0.0,0.0,0.0,0.0,0.0,0.0,0.0,0.0,0.0,0.6946,0.8052,0.851,0.8014,0.8032,0.8112,0.816,0.8778,0.915,0.0,0.0,0.8784,0.8872,0.0,0.8686,0.8824,0.9322,0.9596,0.9744,1.0174,1.0511,1.0703,1.0806,1.0949,1.1194,1.1194,1.1194,1.1194,1.1194,1.1222,1.1283,1.1453,1.182,1.2243,0.0,0.0,0.0,0.0,0.0,0.0,-1.422,-1.5472,-1.6155,-1.5691,-1.5879,-1.6111,-1.6133,-1.6257,-1.6338,-1.6367,-1.6131,-1.594,-1.594,-1.5727,-1.5367,-1.4865,-1.4852,-1.46,-1.4095,-1.4088,-1.3365,0.0,0.0,-0.885,0.0,0.0,0.0,0.0,0.0,0.0,0.0,-0.6724,-0.7382,-0.8408,-0.8516,-0.8428,-0.8157,-0.8157,-0.7852,-0.7462,-0.7462,-0.7323,-0.7095,-0.7095,-0.7095,-0.7095,-0.7095,-0.7095,-0.7095,-0.7095,-0.7095,-0.7095,-0.7095,-0.6966,-0.6748,-0.6476,-0.6257,-0.5547,-0.3492,-0.2957,-0.2376,-0.0494,-0.0045,0.0312,0.1393,0.0881,0.0665,0.0,0.0,0.0,0.0,0.0,0.1433,0.2546,0.0,0.0,0.5676,0.5819,0.6166,0.0,0.8371,0.8561,0.7381,0.829,0.876,0.8582,0.0,0.9432,0.9772,0.9112,0.8804,0.8824,0.9447,0.9671,0.9456,1.0125,1.0413,1.0462,1.0708,1.0949,1.1194,1.1194,1.1194,1.1194,1.1194,1.1316,1.1491,1.151,1.1756,1.2135,0.0,0.0,0.0,0.0,0.0,0.0,0.0,-1.6225,-1.6661,-1.6543,-1.6463,-1.6485,-1.6683,-1.6705,-1.6778,-1.693,-1.6686,-1.6532,-1.6532,-1.6127,-1.5749,-1.5395,-1.5218,-1.4906,-1.4355,-1.4349,-1.3593,0.0,0.0,0.0,0.0,0.0,0.0,0.0,0.0,-0.8068,-0.8051,-0.8467,-0.8613,-0.8612,-0.8612,-0.8428,-0.8201,-0.8201,-0.7896,-0.7507,-0.7507,-0.7323,-0.7095,-0.7095,-0.7095,-0.7095,-0.7095,-0.7095,-0.7095,-0.7095,-0.7095,-0.7095,-0.7095,-0.7054,-0.6877,-0.652,-0.6343,-0.5855,-0.4117,-0.3314,-0.251,-0.1122,-0.0404,0.0134,0.0577,0.0794,0.0925,0.0797,0.0,0.0,0.0,0.0,0.0,0.1567,0.0,0.3261,0.0,0.5166,0.5783,0.0,0.0,0.8002,0.8198,0.7812,0.8024,0.8934,0.0,0.8241,0.9126,0.891,0.8877,0.8991,0.9376,0.9558,0.9522,0.9985,1.0364,1.0659,1.09,1.1096,1.1194,1.1194,1.1274,1.1387,1.1387,1.1515,1.1713,1.1846,1.1944,1.2104,-1.2991,0.0,-1.3423,0.0,-1.514,-1.5464,-1.6511,-1.685,-1.7042,-1.7042,-1.6791,-1.674,-1.6967,-1.7042,-1.7084,-1.7264,-1.7121,-1.7042,-1.7042,-1.6603,-1.6211,-1.5849,-1.5625,0.0,-1.4656,-1.4649,-1.405,-1.283,-1.1675,0.0,0.0,0.0,0.0,0.0,-1.0243,-1.0102,-0.9493,-0.9789,-0.9559,-0.8955,-0.8696,-0.8504,-0.8363,-0.8363,-0.8131,-0.7732,-0.7732,-0.7503,-0.723,-0.723,-0.723,-0.7216,-0.7125,-0.7095,-0.7095,-0.7095,-0.7095,-0.7095,-0.7095,-0.7095,-0.7007,-0.6609,-0.6476,-0.603,-0.4741,-0.3626,-0.2553,-0.1256,-0.0449,0.0,0.0,0.062,0.0925,0.0224,0.0,0.0,0.0,0.0538,0.0,0.0,0.2416,0.304,0.3173,0.4457,0.0,0.0,0.0,0.646,0.7285,0.6543,0.6814,0.0,0.0,0.0,0.8992,0.8902,0.8995,0.9173,0.9352,0.9502,0.9628,0.9871,1.0216,1.0556,1.0949,1.1096,1.11,1.1215,1.1378,1.1524,1.1581,1.1732,1.1931,1.2029,1.2123,1.2194,-1.4416,-1.4519,-1.4882,-1.659,-1.6888,-1.6952,-1.7267,-1.7271,-1.7279,-1.7279,-1.7271,-1.7271,-1.7271,-1.7279,-1.7279,-1.7279,-1.7279,-1.7279,-1.7279,-1.7271,-1.6947,0.0,0.0,-1.5745,-1.5008,-1.5001,-1.481,-1.4466,0.0,0.0,-1.2029,0.0,-1.0362,-1.0663,-1.071,-1.0927,-1.1192,-1.0289,-0.9903,-0.9816,-0.8955,-0.867,-0.8771,-0.8771,-0.8605,-0.8286,-0.8286,-0.8009,-0.7594,-0.7594,-0.7594,-0.7543,-0.7189,-0.7095,-0.7095,-0.7095,-0.7095,-0.7095,-0.7095,-0.7095,-0.7054,-0.6836,-0.6612,-0.6118,-0.4961,-0.3758,-0.2331,-0.0404,0.0,0.0,0.0,0.0,0.009,0.0359,0.0,0.0,0.0,0.0,0.0,0.2727,0.3084,0.3218,0.3218,0.3444,0.0,0.0,0.0,0.0,0.0,0.0,0.0,0.6386,0.7105,0.0,0.9885,0.9368,0.9181,0.9404,0.9539,0.9575,0.9628,0.9871,1.0019,1.0019,1.056,1.0801,1.082,1.1325,1.1515,1.1539,1.1737,1.1893,1.2085,1.2085,1.2212,1.2382,-1.7537,-1.795,-1.8335,-1.8224,-1.8217,-1.821,-1.8319,-1.7738,-1.7279,-1.7279,-1.7279,-1.7279,-1.7279,-1.7279,-1.7279,0.0,-1.7279,-1.7279,0.0,-1.7153,-1.6976,-1.6736,-1.6355,-1.5984,-1.5552,-1.5355,-1.5117,-1.4823,0.0,0.0,0.0,-1.2484,-1.2763,-1.3649,-1.3649,-1.334,-1.2841,-1.2568,-1.1531,-1.0085,-0.9817,-0.9217,-0.8444,-0.8444,-0.8292,-0.8013,-0.8013,-0.7828,-0.76,-0.76,-0.76,-0.7584,-0.7485,-0.7455,-0.7455,-0.7455,-0.7455,-0.7385,-0.7102,-0.7163,-0.7182,-0.6678,-0.6476,-0.6118,-0.4961,-0.3223,-0.1524,-0.0269,0.0,0.0,0.0,0.0,0.0045,0.0135,0.0269,0.0,0.0673,0.0,0.13,0.1836,0.1927,0.1972,0.1972,0.2061,0.0,0.0,0.0,0.0,0.0,0.0,0.0,0.0,0.6051,0.0,0.8247,0.8942,0.9347,0.9404,0.9539,0.9677,0.9871,0.9969,1.019,1.0515,1.0865,1.1093,1.1216,1.1592,1.1808,1.1897,1.1958,1.2109,1.2288,1.2288,1.233,1.2387,-1.9422,-1.9513,-1.9467,-1.888,-1.8473,-1.8241,-1.8241,-1.7692,-1.7279,-1.7279,-1.7279,-1.7279,-1.7279,-1.7279,0.0,-1.7279,-1.7279,-1.7279,-1.7279,-1.72,-1.7066,-1.6979,-1.6595,-1.6223,-1.5951,-1.5704,0.0,-1.5169,-1.4327,-1.3957,-1.3957,-1.3957,-1.4326,-1.5008,-1.5008,-1.4687,-1.4089,-1.3767,-1.2575,-1.0823,-1.0366,-0.9533,-0.8572,-0.8434,-0.8281,-0.8096,-0.8096,-0.7952,-0.7763,-0.7763,-0.7763,-0.7763,-0.7763,-0.7763,-0.7743,-0.7631,-0.76,-0.7533,-0.7158,-0.7178,-0.7106,-0.619,-0.5898,-0.5395,-0.3797,-0.2382,-0.1145,-0.0182,0.0,0.0,0.0,0.0,0.0045,0.0135,0.0359,0.0583,0.0807,0.0,0.1435,0.0,0.0,0.0,0.0,0.206,0.2194,0.0,0.0,0.0,0.0,0.0,0.0,0.5603,0.5422,0.6199,0.8044,0.8961,0.9437,0.9458,0.9571,0.971,0.9971,0.9971,1.0176,1.051,1.0919,1.1088,1.1148,1.1694,1.1911,1.1989,1.2117,1.2274,1.2387,1.2387,1.2387,1.2387,-2.0232,-1.9559,-1.8972,0.0,-1.8017,0.0,-1.7419,-1.7326,-1.7279,-1.7279,-1.7279,-1.7279,-1.7279,-1.7279,-1.7279,-1.7279,0.0,0.0,0.0,-1.7279,-1.72,-1.7026,-1.6777,-1.6494,-1.6218,-1.5981,-1.5698,-1.5424,-1.5202,-1.5068,-1.5068,-1.5068,-1.5068,-1.5068,-1.5068,-1.5023,-1.4888,-1.401,-1.2991,-1.1835,-1.0681,-0.9733,-0.8943,-0.8657,-0.8503,-0.8382,-0.8382,-0.8237,-0.7988,-0.7988,-0.7988,-0.7988,-0.7988,-0.7988,-0.7934,-0.7709,-0.7631,-0.758,-0.7278,-0.718,-0.6891,-0.5506,-0.4939,-0.4087,-0.1902,-0.1379,-0.1136,-0.0186,0.0,0.0,0.0,0.0,0.009,0.0315,0.054,0.0765,0.1034,0.1259,0.1796,0.0,0.0,0.0,0.3099,0.3099,0.2652,0.0,0.0,0.0,0.0,0.0,0.3795,0.4807,0.5172,0.6513,0.8891,0.918,0.9364,0.9496,0.9595,0.9738,0.9904,0.9904,1.0006,1.0233,1.075,1.0863,1.0732,1.1654,1.1949,1.1754,1.2203,1.2382,1.2387,1.2387,1.2387,1.2387,0.0,0.0,-2.0565,-1.9063,-1.8603,-1.8427,-1.8427,-1.7785,-1.7279,-1.7279,-1.7279,-1.7279,-1.7279,-1.7279,-1.7279,-1.7279,-1.7279,-1.7279,-1.7279,-1.7279,-1.7279,-1.7239,-1.7019,-1.6784,-1.6494,-1.6265,-1.5994,-1.5732,-1.5658,-1.5625,-1.5625,-1.5625,-1.5625,-1.5625,-1.5625,-1.5196,-1.4442,-1.4253,-1.2947,-1.1023,-1.0541,-0.9604,-0.8526,-0.8231,-0.8107,-0.8088,-0.8088,-0.8038,-0.7988,-0.7988,-0.7988,-0.7988,-0.7988,-0.7988,-0.7975,-0.7904,-0.7887,-0.7811,-0.7257,-0.7231,-0.6966,-0.5294,-0.4229,-0.3185,-0.1712,-0.1379,-0.1141,-0.0189,0.0,0.0,0.0,0.0,0.0,0.0094,0.0329,0.0514,0.0552,0.0919,0.1285,0.0,0.1789,0.1893,0.1923,0.1879,0.216,0.0,0.0,0.0,0.2882,0.3399,0.3857,0.4194,0.5275,0.6603,0.8217,0.8315,0.8446,0.8606,0.9419,0.992,1.0147,1.0147,1.0197,1.0371,1.0743,1.0926,1.1,1.1535,1.1774,1.1941,1.2041,1.2223,1.2387,1.2387,1.2387,1.2387,-2.2327,-2.219,-2.1961,-2.0893,-2.0327,-2.0055,-2.0055,-1.917,-1.8466,-1.8466,-1.8052,-1.7772,-1.7772,-1.7772,-1.7772,-1.7772,-1.7501,-1.7279,-1.7279,-1.7279,-1.7279,-1.7279,-1.7113,-1.6932,-1.6784,-1.6414,-1.6076,-1.5784,-1.5784,-1.5784,-1.5784,-1.5784,-1.5784,-1.5784,-1.5302,-1.4825,-1.425,-1.3757,-1.2587,-1.0925,-1.0538,-0.9657,-0.8528,-0.8137,-0.7988,-0.7988,-0.7988,-0.7988,-0.7988,-0.7988,-0.7988,-0.7988,-0.7988,-0.7988,-0.7988,-0.7988,-0.7988,-0.7872,-0.7294,-0.7226,-0.6767,-0.4598,-0.3272,-0.215,-0.1027,-0.0783,-0.0634,-0.0097,0.0,0.0,0.0,0.0,0.0048,0.0143,0.0809,0.1138,0.061,0.1406,0.1781,0.1173,0.136,0.1508,0.1477,0.1478,0.1764,0.2428,0.2496,0.0,0.2509,0.28,0.3506,0.4692,0.5076,0.6163,0.7971,0.8092,0.817,0.8306,0.9457,1.0107,1.0286,1.0286,1.0383,1.055,1.0879,1.0983,1.0966,1.1404,1.1678,1.1841,1.1951,1.2169,1.2387,1.2387,1.2387,1.2387,-2.4229,-2.356,-2.2934,-2.2793,-2.2076,-2.1497,-2.1497,-2.0594,-1.9925,-1.9925,-1.8973,-1.8299,-1.8299,-1.8299,-1.8299,-1.8299,-1.7794,-1.741,-1.7359,-1.7308,-1.7279,-1.7279,-1.716,-1.7026,-1.6979,-1.6461,-1.6076,-1.5784,-1.5784,-1.5784,-1.5784,-1.5784,-1.5784,-1.5778,-1.4921,-1.4346,-1.4004,-1.3071,-1.2047,-1.093,-1.044,-0.9657,-0.8726,-0.8237,-0.8038,-0.7988,-0.7988,-0.7988,-0.7988,-0.7988,-0.7988,-0.7988,-0.7988,-0.7988,-0.7988,-0.7988,-0.7988,-0.7889,-0.7388,-0.7086,-0.6284,-0.3825,-0.2418,-0.1311,-0.0252,0.0,0.0,0.0,0.0,0.0,0.0,0.0,0.0144,0.0577,0.144,0.1773,0.1005,0.0,0.2342,0.1197,0.1341,0.1535,0.1491,0.1492,0.1492,0.1492,0.1564,0.1579,0.1579,0.1854,0.3007,0.5221,0.4694,0.5434,0.7706,0.8106,0.835,0.8374,0.9655,1.0298,1.0473,1.0473,1.0554,1.0692,1.0966,1.0911,1.0747,1.124,1.1514,1.1568,1.1787,1.2005,1.2278,1.2278,1.2273,1.2332,-2.3364,-2.3084,-2.2746,-2.1877,-2.1592,-2.1497,-2.1497,-2.0594,-1.9925,-1.9925,-1.8973,-1.8299,-1.8299,-1.8299,-1.8299,-1.8299,-1.8211,-1.8035,-1.7757,-1.7479,-1.7279,-1.7279,-1.7286,-1.7153,-1.6979,-1.6461,-1.6076,-1.5784,-1.5784,-1.5784,-1.5784,-1.5784,-1.5784,-1.5778,-1.5635,-1.4573,-1.2926,-1.2775,-1.1614,-0.9821,-0.9525,-0.9126,-0.8775,-0.8432,-0.8187,-0.7988,-0.7988,-0.7988,-0.7988,-0.7988,-0.7988,-0.7988,-0.7988,-0.7988,-0.7988,-0.7988,-0.7988,-0.7939,-0.7643,-0.6537,-0.5129,-0.3574,-0.2418,-0.1311,-0.0252,0.0,0.0,0.0,0.0,0.0,0.0,0.0,0.04,0.1548,0.1,0.0696,0.1661,0.0,0.1075,0.088,0.1271,0.1575,0.16,0.1603,0.1603,0.1603,0.1607,0.161,0.161,0.1867,0.2588,0.3944,0.4051,0.4861,0.657,0.7791,0.8506,0.8735,0.9838,1.0485,1.0651,1.0651,1.0668,1.0692,1.0747,1.0747,1.0692,1.0802,1.0966,1.1181,1.1236,1.1459,1.1732,1.1732,1.1896,1.2055,-2.4584,-2.444,-2.4297,-2.3846,-2.374,-2.3595,-2.2987,-2.201,-2.1081,-2.0492,-1.9512,-1.8825,-1.8825,-1.8825,-1.8825,-1.8825,-1.8664,-1.8503,-1.835,-1.7867,-1.7589,-1.7589,-1.7421,-1.7192,-1.6979,-1.6461,-1.613,-1.6028,-1.5879,-1.5784,-1.5784,-1.5784,-1.5784,-1.5784,-1.5207,-1.4136,-1.2678,-1.2145,-1.1033,-0.9579,-0.9331,-0.9031,-0.8775,-0.8478,-0.8233,-0.7988,-0.7988,-0.7988,-0.7988,-0.7988,-0.7988,-0.7988,-0.7988,-0.7988,-0.7988,-0.7988,-0.7789,-0.7537,-0.7441,-0.6637,-0.5432,-0.3626,-0.2821,-0.2016,-0.0353,0.0,0.0,0.0,0.0,0.0,0.0,0.0,0.0202,0.0807,0.1008,0.0,0.1146,0.1543,0.1643,0.1097,0.1346,0.1601,0.1615,0.1617,0.1617,0.1617,0.1632,0.1641,0.1641,0.1759,0.2086,0.2626,0.375,0.4786,0.5711,0.7032,0.8091,0.8804,0.9981,1.0615,1.0692,1.0692,1.0692,1.0692,1.0692,1.0692,1.0692,1.0692,1.0857,1.1072,1.1072,1.1295,1.1623,1.1623,1.1787,1.2005,-2.5421,-2.5323,-2.5274,-2.4981,-2.4971,-2.4667,-2.384,-2.2835,-2.1836,-2.0987,-1.9983,-1.9279,-1.9279,-1.9279,-1.9279,-1.9279,-1.9045,-1.8906,-1.8906,-1.8364,-1.7969,-1.7823,-1.7414,-1.7153,-1.6925,-1.6461,-1.6177,-1.6123,-1.5879,-1.5784,-1.5784,-1.5784,-1.5784,-1.5784,-1.4968,-1.4046,-1.3022,-1.1999,-1.0935,-0.9916,-0.948,-0.908,-0.8775,-0.8581,-0.8283,-0.7988,-0.7988,-0.7988,-0.7988,-0.7988,-0.7988,-0.7988,-0.7988,-0.7988,-0.7988,-0.7988,-0.764,-0.7188,-0.7188,-0.6839,-0.5984,-0.3776,-0.3224,-0.262,-0.0505,0.0,0.0,0.0,0.0,0.0,0.0,0.0,0.0101,0.0404,0.0,0.136,0.0908,0.1714,0.2067,0.1313,0.1415,0.1617,0.1617,0.1623,0.1627,0.1627,0.1655,0.1724,0.1724,0.1692,0.1761,0.1929,0.3373,0.444,0.5022,0.6133,0.744,0.8858,0.98,1.0417,1.0692,1.0692,1.0692,1.0692,1.0692,1.0692,1.0692,1.0692,1.0802,1.1017,1.1017,1.1181,1.1404,1.1404,1.1568,1.1782,-2.4492,-2.4245,-2.389,-2.2894,-2.2743,-2.2693,-2.2643,-2.1692,-2.0987,-2.0936,-1.9983,-1.9279,-1.9279,-1.9279,-1.9279,-1.9279,-1.9257,-1.9242,-1.9242,-1.8913,-1.8445,-1.7845,-1.7279,-1.6878,-1.6636,-1.6359,-1.6076,-1.5832,-1.5832,-1.5784,-1.5784,-1.5784,-1.5784,-1.5784,-1.5737,-1.5112,-1.41,-1.3022,-1.1999,-1.0979,-0.9965,-0.9274,-0.8775,-0.8775,-0.8432,-0.7988,-0.7988,-0.7988,-0.7988,-0.7988,-0.7988,-0.7988,-0.7988,-0.7988,-0.7988,-0.7988,-0.764,-0.7188,-0.7188,-0.6992,-0.6189,-0.3776,-0.3224,-0.262,-0.0505,0.0,0.0,0.0,0.0,0.0,0.0,0.0,0.0404,0.1661,0.0,0.0,0.2064,0.1513,0.101,0.1162,0.1415,0.1617,0.1617,0.1642,0.1711,0.1711,0.1685,0.1701,0.1701,0.1703,0.1932,0.251,0.2674,0.3325,0.4458,0.5147,0.6634,0.8903,0.8972,0.964,1.0692,1.0692,1.0692,1.0692,1.0692,1.0692,1.0692,1.0692,1.0692,1.0747,1.0747,1.0747,1.0747,1.0747,1.0966,1.1185,-2.4236,-2.3543,-2.2985,-2.2584,-2.2484,-2.2291,-2.1591,-2.1132,-2.0688,-1.9983,-1.9524,-1.9279,-1.9279,-1.9279,-1.9279,-1.9279,-1.9279,-1.9279,-1.9279,-1.9162,-1.8803,-1.8145,-1.743,-1.7074,-1.7115,-1.6354,-1.5974,-1.6028,-1.5879,-1.5784,-1.5784,-1.5784,-1.5784,-1.5784,-1.5784,-1.5255,-1.425,-1.3854,-1.2732,-1.117,-1.0739,-0.9854,-0.8825,-0.8825,-0.8482,-0.7988,-0.7988,-0.7988,-0.7988,-0.7988,-0.7988,-0.7988,-0.7988,-0.7988,-0.7988,-0.7988,-0.764,-0.7188,-0.7188,-0.6889,-0.6037,-0.3776,-0.3224,-0.262,-0.0505,0.0,0.0,0.0,0.0,0.0,0.0,0.0,0.0151,0.0656,0.0,0.0353,0.1261,0.106,0.0964,0.1437,0.1593,0.1652,0.1669,0.1682,0.1688,0.1688,0.1716,0.1787,0.1787,0.175,0.1932,0.2334,0.2557,0.3441,0.4985,0.5957,0.7254,0.8923,0.964,1.0249,1.0692,1.0692,1.0692,1.0692,1.0692,1.0692,1.0692,1.0692,1.0692,1.0692,1.0692,1.0692,1.0692,1.0692,1.1021,1.1459,-2.4236,-2.3235,-2.2383,-2.2038,-2.1735,-2.1234,-2.0483,-2.038,-2.013,-1.9376,-1.9279,-1.9279,-1.9279,-1.9279,-1.9279,-1.9279,-1.9279,-1.9279,-1.9279,-1.9279,-1.903,-1.8382,-1.7605,-1.7197,-1.7161,-1.6361,-1.6021,-1.6076,-1.5879,-1.5784,-1.5784,-1.5784,-1.5784,-1.5784,-1.5784,-1.5397,-1.4729,-1.4442,-1.327,-1.1658,-1.1317,-1.0243,-0.8825,-0.8825,-0.8482,-0.7988,-0.7988,-0.7988,-0.7988,-0.7988,-0.7988,-0.7988,-0.7988,-0.7988,-0.7988,-0.7988,-0.764,-0.7188,-0.7188,-0.6786,-0.5984,-0.4178,-0.3425,-0.272,-0.0908,-0.0252,0.0,0.0,0.0,0.0,0.0,0.0,0.0,0.0,0.0,0.0204,0.0764,0.0819,0.1033,0.162,0.1675,0.1683,0.1703,0.1713,0.1718,0.1718,0.1747,0.1819,0.1819,0.1784,0.1908,0.2188,0.2525,0.3363,0.4644,0.5922,0.7143,0.8364,0.9581,1.0304,1.0692,1.0692,1.0692,1.0692,1.0692,1.0692,1.0692,1.0692,1.0692,1.0692,1.0692,1.0692,1.0692,1.0692,1.0966,1.135,-2.4344,-2.3244,-2.2131,-2.1089,-2.0027,-1.9279,-1.9279,-1.9279,-1.9279,-1.9279,-1.9279,-1.9279,-1.9279,-1.9279,-1.9279,-1.9279,-1.9279,-1.9279,-1.9279,-1.9279,-1.9029,-1.8411,-1.7831,-1.7274,-1.6738,-1.6432,-1.6132,-1.5784,-1.5784,-1.5784,-1.5784,-1.5784,-1.5784,-1.5784,-1.5784,-1.5784,-1.573,-1.4729,-1.3661,-1.263,-1.1609,-1.0243,-0.8825,-0.8825,-0.8482,-0.7988,-0.7988,-0.7988,-0.7988,-0.7988,-0.7988,-0.7988,-0.7988,-0.7988,-0.7988,-0.7988,-0.764,-0.7188,-0.7188,-0.6786,-0.6134,-0.5085,-0.3979,-0.2922,-0.1865,-0.0757,0.0,0.0,0.0,0.0,0.0,0.0,0.0,0.0,0.0,0.0208,0.0831,0.0897,0.112,0.1652,0.1705,0.1705,0.1705,0.1786,0.1804,0.1804,0.1778,0.1795,0.1795,0.1795,0.1908,0.2188,0.2525,0.2805,0.3081,0.4646,0.598,0.7138,0.8309,0.953,1.0692,1.0692,1.0692,1.0692,1.0692,1.0692,1.0692,1.0692,1.0692,1.0692,1.0692,1.0692,1.0692,1.0692,1.0692,1.0747,-2.4187,-2.2634,-2.1285,-2.0987,-2.0027,-1.9279,-1.9279,-1.9279,-1.9279,-1.9279,-1.9279,-1.9279,-1.9279,-1.9279,-1.9279,-1.9279,-1.9279,-1.9279,-1.9279,-1.9279,-1.902,-1.8452,-1.8046,-1.7691,-1.7362,-1.6837,-1.6433,-1.6139,-1.6139,-1.6032,-1.5784,-1.5784,-1.5784,-1.5784,-1.5784,-1.5784,-1.573,-1.4729,-1.3661,-1.263,-1.1609,-1.0243,-0.8825,-0.8825,-0.8482,-0.7988,-0.7988,-0.7988,-0.7988,-0.7988,-0.7988,-0.7988,-0.7988,-0.7988,-0.7942,-0.7793,-0.749,-0.7138,-0.6992,-0.6689,-0.6134,-0.5085,-0.3979,-0.2922,-0.1865,-0.0757,0.0,0.0,0.0,0.0,0.0,0.0,0.0,0.0,0.0,0.0212,0.0794,0.0904,0.1125,0.168,0.179,0.1744,0.1766,0.1776,0.1781,0.1781,0.179,0.1795,0.1795,0.1795,0.1908,0.2188,0.2525,0.2805,0.3081,0.4646,0.598,0.7138,0.8309,0.953,1.0692,1.0692,1.0692,1.0692,1.0692,1.0692,1.0692,1.0692,1.0692,1.0692,1.0692,1.0692,1.0692,1.0692,1.0802,1.0966,-2.4187,-2.2685,-2.1387,-2.0987,-2.0027,-1.9279,-1.9279,-1.9279,-1.9279,-1.9279,-1.9279,-1.9279,-1.9279,-1.9279,-1.9279,-1.9279,-1.9279,-1.9279,-1.9279,-1.9175,-1.8907,-1.8422,-1.8144,-1.7843,-1.7469,-1.7076,-1.674,-1.644,-1.644,-1.6353,-1.6172,-1.6059,-1.6005,-1.5999,-1.5879,-1.5784,-1.5778,-1.5159,-1.404,-1.2635,-1.1901,-1.0485,-0.8775,-0.8676,-0.8382,-0.7988,-0.7988,-0.7988,-0.7988,-0.7988,-0.7988,-0.7988,-0.7988,-0.7988,-0.7939,-0.7696,-0.7391,-0.7138,-0.6892,-0.6626,-0.6305,-0.5698,-0.4353,-0.3029,-0.2391,-0.1071,0.0,0.0,0.0,0.0,0.0,0.0,0.0,0.0,0.0,0.0216,0.0808,0.0921,0.1147,0.171,0.1823,0.1775,0.1793,0.1795,0.1795,0.1795,0.1795,0.1795,0.1795,0.1795,0.1851,0.202,0.2356,0.258,0.2746,0.381,0.5256,0.7138,0.8309,0.953,1.0692,1.0692,1.0692,1.0692,1.0692,1.0692,1.0692,1.0692,1.0692,1.0692,1.0692,1.0692,1.0692,1.0692,1.0802,1.0966,-2.4295,-2.3235,-2.2139,-2.1089,-2.0027,-1.9279,-1.9279,-1.9279,-1.9279,-1.9279,-1.9279,-1.9279,-1.9279,-1.9279,-1.9279,-1.9279,-1.9279,-1.9279,-1.9279,-1.9026,-1.8757,-1.8422,-1.8115,-1.7782,-1.7246,-1.7239,-1.7092,-1.6747,-1.6747,-1.6734,-1.67,-1.6433,-1.6257,-1.6153,-1.5881,-1.5653,-1.5532,-1.543,-1.4298,-1.2484,-1.2145,-1.073,-0.8726,-0.8482,-0.8233,-0.7988,-0.7988,-0.7988,-0.7988,-0.7988,-0.7988,-0.7988,-0.7988,-0.7998,-0.7909,-0.7666,-0.7419,-0.7124,-0.6877,-0.6706,-0.6635,-0.6635,-0.4967,-0.3355,-0.3256,-0.1559,0.0,0.0,0.0,0.0,0.0,0.0,0.0,0.0,0.0,0.0219,0.0822,0.0888,0.1121,0.1739,0.1795,0.1795,0.1795,0.1795,0.1795,0.1795,0.1795,0.1795,0.1795,0.1795,0.1795,0.1795,0.2076,0.2188,0.2188,0.2525,0.4142,0.6916,0.814,0.9364,1.0527,1.0637,1.0692,1.0692,1.0692,1.0692,1.0692,1.0692,1.0692,1.0692,1.0692,1.0692,1.0692,1.0692,1.0692,1.0692,-2.4295,-2.3235,-2.2139,-2.1089,-2.0027,-1.9279,-1.9279,-1.9279,-1.9279,-1.9279,-1.9279,-1.9279,-1.9279,-1.9279,-1.9279,-1.9279,-1.9279,-1.9279,-1.9279,-1.9026,-1.8757,-1.8422,-1.8115,-1.7825,-1.7541,-1.7488,-1.7348,-1.7105,-1.7105,-1.6934,-1.6707,-1.664,-1.6151,-1.5288,-1.5226,-1.4588,-1.3561,-1.2709,-1.1915,-1.1121,-1.0252,-0.932,-0.8482,-0.8432,-0.8233,-0.7988,-0.7988,-0.7988,-0.7988,-0.7988,-0.7988,-0.7988,-0.7988,-0.7915,-0.7804,-0.7502,-0.7319,-0.7136,-0.6881,-0.6794,-0.6763,-0.6763,-0.5741,-0.4521,-0.3588,-0.164,0.0,0.0,0.0,0.0,0.0,0.0,0.0,0.0,0.0,0.0223,0.0837,0.0895,0.1121,0.1739,0.1795,0.1795,0.1795,0.1795,0.1795,0.1795,0.1795,0.1795,0.1795,0.1795,0.1795,0.1795,0.2076,0.2188,0.2188,0.2525,0.3586,0.5363,0.6581,0.7913,0.9309,1.0249,1.0692,1.0692,1.0692,1.0692,1.0692,1.0692,1.0692,1.0692,1.0692,1.0692,1.0692,1.0692,1.0692,1.0692,-2.3543,-2.2484,-2.1387,-2.0336,-1.968,-1.9279,-1.9279,-1.9279,-1.9279,-1.9279,-1.9279,-1.9279,-1.9279,-1.9279,-1.9227,-1.9123,-1.8959,-1.8848,-1.8848,-1.86,-1.8391,-1.822,-1.7957,-1.7747,-1.7582,-1.7582,-1.7508,-1.7407,-1.7407,-1.7275,-1.7121,-1.6407,-1.5769,-1.5149,-1.4508,-1.3774,-1.3108,-1.2547,-1.182,-1.0965,-1.0268,-0.947,-0.8609,-0.8503,-0.835,-0.8252,-0.8252,-0.8252,-0.8252,-0.8252,-0.8252,-0.8252,-0.8252,-0.8097,-0.7846,-0.7593,-0.7377,-0.7165,-0.6854,-0.6844,-0.6891,-0.6891,-0.6063,-0.4945,-0.3663,-0.21,-0.0703,-0.0109,0.0,0.0,0.0,0.0,0.0,0.0,0.0112,0.0336,0.0841,0.1009,0.129,0.1739,0.1795,0.1795,0.1795,0.1795,0.1795,0.1795,0.1795,0.1795,0.1795,0.1795,0.1795,0.1795,0.1964,0.202,0.202,0.2188,0.2747,0.3639,0.5691,0.7467,0.892,1.0139,1.0692,1.0692,1.0692,1.0692,1.0692,1.0692,1.0692,1.0692,1.0692,1.0692,1.0692,1.0692,1.0692,1.0692,-2.2433,-2.1532,-2.0585,-1.948,-1.9279,-1.9279,-1.9279,-1.9279,-1.9279,-1.9279,-1.9279,-1.9279,-1.9279,-1.9279,-1.9123,-1.8817,-1.8534,-1.8422,-1.8422,-1.8174,-1.8016,-1.8016,-1.7747,-1.7582,-1.7582,-1.7582,-1.7582,-1.7582,-1.7582,-1.7582,-1.7575,-1.6162,-1.5373,-1.51,-1.3746,-1.3019,-1.2781,-1.2776,-1.2029,-1.0915,-1.0659,-0.9887,-0.8808,-0.8591,-0.8482,-0.8482,-0.8482,-0.8482,-0.8482,-0.8482,-0.8482,-0.8482,-0.8482,-0.8236,-0.7942,-0.7681,-0.7428,-0.7124,-0.6914,-0.6937,-0.7016,-0.7016,-0.6368,-0.5293,-0.3791,-0.2574,-0.1431,-0.0224,0.0,0.0,0.0,0.0,0.0,0.0,0.0224,0.0505,0.0841,0.1121,0.1402,0.1739,0.1795,0.1795,0.1795,0.1795,0.1795,0.1795,0.1795,0.1795,0.1795,0.1795,0.1795,0.1795,0.1795,0.1795,0.1795,0.1795,0.2075,0.2634,0.5303,0.7301,0.8585,1.0025,1.0692,1.0692,1.0692,1.0692,1.0692,1.0692,1.0692,1.0692,1.0692,1.0692,1.0692,1.0692,1.0692,1.0692,-2.1336,-2.0987,-2.0585,-1.948,-1.9279,-1.9279,-1.9279,-1.9279,-1.9279,-1.9279,-1.9279,-1.9279,-1.9279,-1.9071,-1.881,-1.8482,-1.8422,-1.8422,-1.8422,-1.8174,-1.8016,-1.8016,-1.7747,-1.7582,-1.7582,-1.7582,-1.7582,-1.7582,-1.7582,-1.7582,-1.7575,-1.6415,-1.5269,-1.4244,-1.3042,-1.1863,-1.0764,-1.0539,-1.0136,-0.9533,-0.9276,-0.8905,-0.8535,-0.8535,-0.8482,-0.8482,-0.8482,-0.8482,-0.8482,-0.8482,-0.8482,-0.8482,-0.8482,-0.8196,-0.7813,-0.7759,-0.7514,-0.7216,-0.7161,-0.7174,-0.7188,-0.7188,-0.7088,-0.6366,-0.4071,-0.2677,-0.1452,-0.0224,0.0,0.0,0.0,0.0,0.0,0.0,0.0224,0.0505,0.0841,0.1121,0.1402,0.1739,0.1795,0.1795,0.1795,0.1795,0.1795,0.1795,0.1795,0.1795,0.1795,0.1795,0.1795,0.1795,0.1795,0.1795,0.1795,0.1795,0.2576,0.4193,0.5582,0.6526,0.7077,0.9578,1.0692,1.0692,1.0692,1.0692,1.0692,1.0692,1.0692,1.0692,1.0692,1.0692,1.0692,1.0692,1.0692,1.0692,-2.0979,-2.0431,-1.9879,-1.9376,-1.9279,-1.9279,-1.9279,-1.9279,-1.9279,-1.9279,-1.9279,-1.9279,-1.9279,-1.8907,-1.8489,-1.822,-1.8062,-1.795,-1.795,-1.7845,-1.7799,-1.7799,-1.7635,-1.7582,-1.7582,-1.7582,-1.7582,-1.7582,-1.7582,-1.7582,-1.7582,-1.6452,-1.5269,-1.403,-1.2738,-1.1507,-1.0307,-1.0031,-0.9663,-0.9334,-0.9226,-0.901,-0.8737,-0.8737,-0.8737,-0.8737,-0.8737,-0.8737,-0.8737,-0.8737,-0.8737,-0.8683,-0.8568,-0.8231,-0.7898,-0.7737,-0.7448,-0.721,-0.721,-0.721,-0.721,-0.721,-0.721,-0.6594,-0.4137,-0.3189,-0.2295,-0.0392,0.0,0.0,0.0,0.0,0.0,0.0,0.0393,0.0729,0.0897,0.129,0.1627,0.1795,0.1795,0.1795,0.1795,0.1795,0.1795,0.1795,0.1795,0.1795,0.1795,0.1795,0.1795,0.1795,0.1795,0.1795,0.1795,0.1795,0.2186,0.3023,0.5194,0.6805,0.7971,0.9856,1.0692,1.0692,1.0692,1.0692,1.0692,1.0692,1.0692,1.0692,1.0692,1.0692,1.0692,1.0692,1.0692,1.0692]},{"header":{"parameterUnit":"m.s-1","parameterCategory":1,"la1":30.6,"la2":28.766,"lo1":-90.7593,"lo2":-88.6598,"dy":0.0162,"dx":0.0183,"nx":116,"ny":114,"refTime":"2023-04-12T12:00:00:Z","depth":0,"parameterNumber":3,"parameterNumberName":"V-component_of_WINDS"},"data":[0.0,0.0,0.0,0.0,0.0,0.0,0.0,0.0,0.0,0.0,0.0,0.0,0.0,0.0,0.0,0.0,0.0,0.0,0.0,0.0,0.0,0.0,0.0,0.0,0.0,0.0,0.0,0.0,0.0,0.0,0.0,0.0,0.0,0.0,0.0,0.0,0.0,0.0,0.0,0.0,0.0,0.0,0.0,0.0,0.0,0.0,0.0,0.0,0.0,0.0,0.0,0.0,0.0,0.0,0.0,0.0,0.0,0.0,0.0,0.0,0.0,0.0,0.0,0.0,0.0,0.0,0.0,0.0,0.0,0.0,0.0,0.0,0.0,0.0,0.0,0.0,0.0,0.0,0.0,0.0,0.0,0.0,0.0,0.0,0.0,0.0,0.0,0.0,0.0,0.0,0.0,0.0,0.0,0.0,0.0,0.0,0.0,0.0,0.0,0.0,0.0,0.0,0.0,0.0,0.0,0.0,0.0,0.0,0.0,0.0,0.0,0.0,0.0,0.0,0.0,0.0,0.0,0.0,0.0,0.0,0.0,0.0,0.0,0.0,0.0,0.0,0.0,0.0,0.0,0.0,0.0,0.0,0.0,0.0,0.0,0.0,0.0,0.0,0.0,0.0,0.0,0.0,0.0,0.0,0.0,0.0,0.0,0.0,0.0,0.0,0.0,0.0,0.0,0.0,0.0,0.0,0.0,0.0,0.0,0.0,0.0,0.0,0.0,0.0,0.0,0.0,0.0,0.0,0.0,0.0,0.0,0.0,0.0,0.0,0.0,0.0,0.0,0.0,0.0,0.0,0.0,0.0,0.0,0.0,0.0,0.0,0.0,0.0,0.0,0.0,0.0,0.0,0.0,0.0,0.0,0.0,0.0,0.0,0.0,0.0,0.0,0.0,0.0,0.0,0.0,0.0,0.0,0.0,0.0,0.0,0.0,0.0,0.0,0.0,0.0,0.0,0.0,0.0,0.0,0.0,0.0,0.0,0.0,0.0,0.0,0.0,0.0,0.0,0.0,0.0,0.0,0.0,0.0,0.0,0.0,0.0,0.0,0.0,0.0,0.0,0.0,0.0,0.0,0.0,0.0,0.0,0.0,0.0,0.0,0.0,0.0,0.0,0.0,0.0,0.0,0.0,0.0,0.0,0.0,0.0,0.0,0.0,0.0,0.0,0.0,0.0,0.0,0.0,0.0,0.0,0.0,0.0,0.0,0.0,0.0,0.0,0.0,0.0,0.0,0.0,0.0,0.0,0.0,0.0,0.0,0.0,0.0,0.0,0.0,0.0,0.0,0.0,0.0,0.0,0.0,0.0,0.0,0.0,0.0,0.0,0.0,0.0,0.0,0.0,0.0,0.0,0.0,0.0,0.0,0.0,0.0,0.0,0.0,0.0,0.0,0.0,0.0,0.0,0.0,0.0,0.0,0.0,0.0,0.0,0.0,0.0,0.0,0.0,0.0,0.0,0.0,0.0,0.0,0.0,0.0,0.0,0.0,0.0,0.0,0.0,0.0,0.0,0.0,0.0,0.0,0.0,0.0,0.0,0.0,0.0,0.0,0.0,0.0,0.0,0.0,0.0,0.0,0.0,0.0,0.0,0.0,0.0,0.0,0.0,0.0,0.0,0.0,0.0,0.0,0.0,0.0,0.0,0.0,0.0,0.0,0.0,0.0,0.0,0.0,0.0,0.0,0.0,0.0,0.0,0.0,0.0,0.0,0.0,0.0,0.0,0.0,0.0,0.0,0.0,0.0,0.0,0.0,0.0,0.0,0.0,0.0,0.0,0.0,0.0,0.0,0.0,0.0,0.0,0.0,0.0,0.0,0.0,0.0,0.0,0.0,0.0,0.0,0.0,0.0,0.0,0.0,0.0,0.0,0.0,0.0,0.0,0.0,0.0,0.0,0.0,0.0,0.0,0.0,0.0,0.0,0.0,0.0,0.0,0.0,0.0,0.0,0.0,0.0,0.0,0.0,0.0,0.0,0.0,0.0,0.0,0.0,0.0,0.0,0.0,0.0,0.0,0.0,0.0,0.0,0.0,0.0,0.0,0.0,0.0,0.0,0.0,0.0,0.0,0.0,0.0,0.0,0.0,0.0,0.0,0.0,0.0,0.0,0.0,0.0,0.0,0.0,0.0,0.0,0.0,0.0,0.0,0.0,0.0,0.0,0.0,0.0,0.0,0.0,0.0,0.0,0.0,0.0,0.0,0.0,0.0,0.0,0.0,0.0,0.0,0.0,0.0,0.0,0.0,0.0,0.0,0.0,0.0,0.0,0.0,0.0,0.0,0.0,0.0,0.0,0.0,0.0,0.0,0.0,0.0,0.0,0.0,0.0,0.0,0.0,0.0,0.0,0.0,0.0,0.0,0.0,0.0,0.0,0.0,0.0,0.0,0.0,0.0,0.0,0.0,0.0,0.0,0.0,0.0,0.0,0.0,0.0,0.0,0.0,0.0,0.0,0.0,0.0,0.0,0.0,0.0,0.0,0.0,0.0,0.0,0.0,0.0,0.0,0.0,0.0,0.0,0.0,0.0,0.0,0.0,0.0,0.0,0.0,0.0,0.0,0.0,0.0,0.0,0.0,0.0,0.0,0.0,0.0,0.0,0.0,0.0,0.0,0.0,0.0,0.0,0.0,0.0,0.0,0.0,0.0,0.0,0.0,0.0,0.0,0.0,0.0,0.0,0.0,0.0,0.0,0.0,0.0,0.0,0.0,0.0,0.0,0.0,0.0,0.0,0.0,0.0,0.0,0.0,0.0,0.0,0.0,0.0,0.0,0.0,0.0,0.0,0.0,0.0,0.0,0.0,0.0,0.0,0.0,0.0,0.0,0.0,0.0,0.0,0.0,0.0,0.0,0.0,0.0,0.0,0.0,0.0,0.0,0.0,0.0,0.0,0.0,0.0,0.0,0.0,0.0,0.0,0.0,0.0,0.0,0.0,0.0,0.0,0.0,0.0,0.0,0.0,0.0,0.0,0.0,0.0,0.0,0.0,0.0,0.0,0.0,0.0,0.0,0.0,0.0,0.0,0.0,0.0,0.0,0.0,0.0,0.0,0.0,0.0,0.0,0.0,0.0,0.0,0.0,0.0,0.0,0.0,0.0,0.0,0.0,0.0,0.0,0.0,0.0,0.0,0.0,0.0,0.0,0.0,0.0,0.0,0.0,0.0,0.0,0.0,0.0,0.0,0.0,0.0,0.0,0.0,0.0,0.0,0.0,0.0,0.0,0.0,0.0,0.0,0.0,0.0,0.0,0.0,0.0,0.0,0.0,0.0,0.0,0.0,0.0,0.0,0.0,0.0,0.0,0.0,0.0,0.0,0.0,0.0,0.0,0.0,0.0,0.0,0.0,0.0,0.0,0.0,0.0,0.0,0.0,0.0,0.0,0.0,0.0,0.0,0.0,0.0,0.0,0.0,0.0,0.0,0.0,0.0,0.0,0.0,0.0,0.0,0.0,0.0,0.0,0.0,0.0,0.0,0.0,0.0,0.0,0.0,0.0,0.0,0.0,0.0,0.0,0.0,0.0,0.0,0.0,0.0,0.0,0.0,0.0,0.0,0.0,0.0,0.0,0.0,0.0,0.0,0.0,0.0,0.0,0.0,0.0,0.0,0.0,0.0,0.0,0.0,0.0,0.0,0.0,0.0,0.0,0.0,0.0,0.0,0.0,0.0,0.0,0.0,0.0,0.0,0.0,0.0,0.0,0.0,0.0,0.0,0.0,0.0,0.0,0.0,0.0,0.0,0.0,0.0,0.0,0.0,0.0,0.0,0.0,0.0,0.0,0.0,0.0,0.0,0.0,0.0,0.0,0.0,0.0,0.0,0.0,0.0,0.0,0.0,0.0,0.0,0.0,0.0,0.0,0.0,0.0,0.0,0.0,0.0,0.0,0.0,0.0,0.0,0.0,0.0,0.0,0.0,0.0,0.0,0.0,0.0,0.0,0.0,0.0,0.0,0.0,0.0,0.0,0.0,0.0,0.0,0.0,0.0,0.0,0.0,0.0,0.0,0.0,0.0,0.0,0.0,0.0,0.0,0.0,0.0,0.0,0.0,0.0,0.0,0.0,0.0,0.0,0.0,0.0,0.0,0.0,0.0,0.0,0.0,0.0,0.0,0.0,0.0,0.0,0.0,0.0,0.0,0.0,0.0,0.0,0.0,0.0,0.0,0.0,0.0,0.0,0.0,0.0,0.0,0.0,0.0,0.0,0.0,0.0,0.0,0.0,0.0,0.0,0.0,0.0,0.0,0.0,0.0,0.0,0.0,0.0,0.0,0.0,0.0,0.0,0.0,0.0,0.0,0.0,0.0,0.0,0.0,0.0,0.0,0.0,0.0,0.0,0.0,0.0,0.0,0.0,0.0,0.0,0.0,0.0,0.0,0.0,0.0,0.0,0.0,0.0,0.0,0.0,0.0,0.0,0.0,0.0,0.0,0.0,0.0,0.0,0.0,0.0,0.0,0.0,0.0,0.0,0.0,0.0,0.0,0.0,0.0,0.0,0.0,0.0,0.0,0.0,0.0,0.0,0.0,0.0,0.0,0.0,0.0,0.0,0.0,0.0,0.0,0.0,0.0,0.0,0.0,0.0,0.0,0.0,0.0,0.0,0.0,0.0,0.0,0.0,0.0,0.0,0.0,0.0,0.0,0.0,0.0,0.0,0.0,0.0,0.0,0.0,0.0,0.0,0.0,0.0,0.0,0.0,0.0,0.0,0.0,0.0,0.0,0.0,0.0,0.0,0.0,0.0,0.0,0.0,0.0,0.0,0.0,0.0,0.0,0.0,0.0,0.0,0.0,0.0,0.0,0.0,0.0,0.0,0.0,0.0,0.0,0.0,0.0,0.0,0.0,0.0,0.0,0.0,0.0,0.0,0.0,0.0,0.0,0.0,0.0,0.0,0.0,0.0,0.0,0.0,0.0,0.0,0.0,0.0,0.0,0.0,0.0,0.0,0.0,0.0,0.0,0.0,0.0,0.0,0.0,0.0,0.0,0.0,0.0,0.0,0.0,0.0,0.0,0.0,0.0,0.0,0.0,0.0,0.0,0.0,0.0,0.0,0.0,0.0,0.0,0.0,0.0,0.0,0.0,0.0,0.0,0.0,0.0,0.0,0.0,0.0,0.0,0.0,0.0,0.0,0.0,0.0,0.0,0.0,0.0,0.0,0.0,0.0,0.0,0.0,0.0,0.0,0.0,0.0,0.0,0.0,0.0,0.0,0.0,0.0,0.0,0.0,0.0,0.0,0.0,0.0,0.0,0.0,0.0,0.0,0.0,0.0,0.0,0.0,0.0,0.0,0.0,0.0,0.0,0.0,0.0,0.0,0.0,0.0,0.0,0.0,0.0,0.0,0.0,0.0,0.0,0.0,0.0,0.0,0.0,0.0,0.0,0.0,0.0,0.0,0.0,0.0,0.0,0.0,0.0,0.0,0.0,0.0,0.0,0.0,0.0,0.0,0.0,0.0,0.0,0.0,0.0,0.0,0.0,0.0,0.0,0.0,0.0,0.0,0.0,0.0,0.0,0.0,0.0,0.0,0.0,0.0,0.0,0.0,0.0,0.0,0.0,0.0,0.0,0.0,0.0,0.0,0.0,0.0,0.0,0.0,0.0,0.0,0.0,0.0,0.0,0.0,0.0,0.0,0.0,0.0,0.0,0.0,0.0,0.0,0.0,0.0,0.0,0.0,0.0,0.0,0.0,0.0,0.0,0.0,0.0,0.0,0.0,0.0,0.0,0.0,0.0,0.0,0.0,0.0,0.0,0.0,0.0,0.0,0.0,0.0,0.0,0.0,0.0,0.0,0.0,0.0,0.0,0.0,0.0,0.0,0.0,0.0,0.0,0.0,0.0,0.0,0.0,0.0,0.0,0.0,0.0,0.0,0.0,0.0,0.0,0.0,0.0,0.0,0.0,0.0,0.0,0.0,0.0,0.0,0.0,0.0,0.0,0.0,0.0,0.0,0.0,0.0,0.0,0.0,0.0,0.0,0.0,0.0,0.0,0.0,0.0,0.0,0.0,0.0,0.0,0.0,0.0,0.0,0.0,0.0,0.0,0.0,0.0,0.0,0.0,0.0,0.0,0.0,0.0,0.0,0.0,0.0,0.0,0.3271,0.0,0.0,0.0,0.0,0.0,0.0,0.0,0.0,0.0,0.0,0.0,0.0,0.0,0.0,0.0,0.0,0.0,0.0,0.0,0.0,0.0,0.0,0.0,0.0,0.8117,0.8719,0.9729,1.0243,0.0,0.0,0.0,0.0,0.0,0.0,0.0,0.9974,0.9031,0.8331,0.7862,0.8209,0.872,0.9359,0.8027,0.6937,0.6051,0.0,0.0,0.0,0.0,0.0,0.0,0.0,0.0,0.0,0.0,0.0,0.0,0.0,0.0,0.0,0.0,0.0,0.0,0.0,0.0,0.0,0.0,0.0,0.0,0.0,0.0,0.0,0.0,0.0,0.0,0.0,0.0,0.0,0.0,0.0,0.0,0.0,0.0,0.0,0.0,0.0,0.0,0.0,0.0,0.0,0.0,0.0,0.0,0.0,0.0,0.0,0.0,0.0,0.0,0.0,0.0,0.0,0.0,0.0,0.0,0.0,0.0,0.0,0.0,0.0,0.0,0.0,0.0,0.0,0.0,0.0,0.349,0.0,0.0,0.0,0.0,0.0,0.0,0.0,0.0,0.0,0.0,0.0,0.0,0.0,0.0,0.0,0.0,0.0,0.0,0.0,0.0,0.0,0.7456,0.7475,0.7462,0.8027,0.9472,0.9717,1.0442,1.1993,1.2344,1.2611,1.2912,1.2341,1.197,1.1818,1.0558,0.9972,1.012,1.0146,1.0271,1.052,1.0596,0.9975,0.8756,0.7187,0.0,0.0,0.0,0.0,0.0,0.0,0.0,0.0,0.0,0.0,0.0,0.0,0.0,0.0,0.0,0.0,0.0,0.0,0.0,0.0,0.0,0.0,0.0,0.0,0.0,0.0,0.0,0.0,0.0,0.0,0.0,0.0,0.0,0.0,0.0,0.0,0.0,0.0,0.0,0.0,0.0,0.0,0.0,0.0,0.0,0.0,0.0,0.0,0.0,0.0,0.0,0.0,0.0,0.0,0.0,0.0,0.0,0.0,0.0,0.0,0.0,0.0,0.0,0.3963,0.438,0.4931,0.4341,0.4851,0.607,0.4775,0.464,0.524,0.0,0.0,0.0,0.0,0.0,0.0,0.0,0.0,0.0,0.0,0.0,0.0,0.0,0.0,0.0,0.0,0.0,0.0,0.0,0.0,0.7038,0.7381,0.6605,0.7021,0.9395,0.9152,0.9794,1.1957,1.2036,1.2058,1.2221,1.1659,1.1008,1.0304,0.9985,0.9965,1.0276,1.2426,1.3457,1.3453,1.3455,1.3266,1.2834,1.0598,0.9591,0.9484,0.0,0.0,0.0,0.0,0.0,0.0,0.0,0.0,0.0,0.0,0.0,0.0,0.0,0.0,0.0,0.0,0.0,0.0,0.0,0.0,0.0,0.0,0.0,0.0,0.0,0.0,0.0,0.0,0.0,0.0,0.0,0.0,0.0,0.0,0.0,0.0,0.0,0.0,0.0,0.0,0.0,0.2559,0.1919,0.0,0.0,0.0,0.0,0.0,0.0,0.0,0.0,0.0,0.0,0.0,0.0,0.0,0.3359,0.3584,0.3872,0.4108,0.4235,0.4532,0.5001,0.5594,0.5599,0.5886,0.637,0.6566,0.0,0.5402,0.5513,0.0,0.0,0.0,0.0,0.0,0.0,0.0,0.0,0.0,0.0,0.0,0.0,0.0,0.0,0.0,0.0,0.0,0.0,0.0,0.0,0.0,0.6844,0.7537,0.8503,0.9589,1.0768,1.2066,1.2453,1.2634,1.2665,1.2009,1.129,1.053,1.0603,1.1124,1.2092,1.3247,1.4132,1.4727,1.4861,1.4892,1.4847,1.388,1.2437,1.0663,1.0213,0.0,0.0,0.0,0.0,0.0,0.0,0.0,0.0,0.0,0.0,0.0,0.0,0.0,0.0,0.0,0.0,0.0,0.0,0.0,0.0,0.0,0.0,0.0,0.0,0.0,0.0,0.0,0.0,0.0,0.0,0.0,0.0,0.0,0.0,0.0,0.0,0.0,0.0,0.0,0.2233,0.2228,0.1859,0.1242,0.081,0.0,0.0,0.0,0.0,0.0,0.0,0.0,0.0,0.0,0.3693,0.3878,0.4149,0.4557,0.4688,0.4797,0.4876,0.5366,0.5909,0.6494,0.6539,0.6976,0.7625,0.7484,0.7295,0.7045,0.6558,0.6086,0.5627,0.0,0.0,0.0,0.0,0.5652,0.5891,0.0,0.0,0.0,0.0,0.0,0.0,0.0,0.0,0.0,0.0,0.0,0.0,0.6323,0.7445,0.8319,0.8567,1.0038,1.1327,1.2238,1.2758,1.3068,1.3121,1.2242,1.1405,1.0681,1.0944,1.1808,1.3268,1.3628,1.4358,1.5408,1.5577,1.5861,1.6204,1.6308,1.4863,1.2324,1.226,1.1285,0.0,0.0,0.0,0.0,0.0,0.0,0.0,0.0,0.0,0.0,0.0,0.0,0.0,0.0,0.0,0.0,0.0,0.0,0.0,0.0,0.0,0.0,0.0,0.0,0.0,0.0,0.0,0.0,0.0,0.0,0.0,0.0,0.0,0.0,0.0,0.0,0.0,0.0,0.25,0.251,0.2123,0.1964,0.1686,0.0,0.0,0.0,0.0,0.0,0.0,0.3029,0.3133,0.3545,0.4337,0.4506,0.4808,0.5297,0.5297,0.538,0.554,0.5996,0.6588,0.7295,0.7295,0.775,0.8521,0.8123,0.815,0.8428,0.7506,0.7249,0.7389,0.6813,0.6737,0.6949,0.6851,0.7007,0.7273,0.0,0.0,0.0,0.0,0.0,0.0,0.0,0.0,0.0,0.0,0.0,0.7684,0.803,0.8199,0.8945,1.0603,1.01,1.0508,1.2461,1.2598,1.2806,1.3183,1.1817,1.0732,1.0066,1.0366,1.1229,1.2643,1.3808,1.4812,1.5672,1.5768,1.6342,1.7328,1.7344,1.6803,1.5842,1.4529,1.3882,1.3466,0.0,0.0,0.0,0.0,0.0,0.0,0.0,0.0,0.0,0.0,0.0,0.0,0.0,0.0,0.0,0.0,0.0,0.0,0.0,0.0,0.0,0.0,0.0,0.0,0.0,0.0,0.0,0.0,0.0,0.0,0.0,0.0,0.0,0.0,0.0,0.0,0.0,0.0,0.0,0.3473,0.3387,0.0,0.0,0.0,0.0,0.2779,0.2784,0.3059,0.3615,0.3728,0.4161,0.5027,0.5058,0.5148,0.5297,0.5297,0.5595,0.6154,0.6182,0.6772,0.7845,0.7845,0.8064,0.8421,0.8521,0.8653,0.8751,0.8455,0.8151,0.7866,0.7685,0.7511,0.7497,0.8612,0.8781,0.8516,0.0,0.0,0.0,0.0,0.0,0.0,0.7065,0.6963,0.6874,0.6792,0.7183,0.7335,0.695,0.8471,0.9549,0.9609,1.0713,1.1639,1.223,1.2602,1.2164,1.0745,1.0391,1.0254,1.0315,1.134,1.2655,1.4269,1.4659,1.5193,1.5839,1.6163,1.6527,1.691,1.7248,1.7233,1.6922,1.62,1.4918,1.3317,1.2873,1.1216,0.0,0.0,0.0,0.0,0.0,0.0,0.0,0.0,0.0,0.0,0.0,0.0,0.0,0.0,0.0,0.0,0.0,0.0,0.0,0.0,0.0,0.0,0.0,0.0,0.0,0.0,0.0,0.0,0.0,0.0,0.0,0.0,0.0,0.0,0.0,0.0,0.0,0.3584,0.3393,0.0,0.344,0.3338,0.3485,0.4039,0.4042,0.4083,0.4216,0.4328,0.4573,0.4952,0.5042,0.5234,0.549,0.5906,0.6308,0.6668,0.7498,0.8091,0.8488,0.8874,0.9218,0.9492,0.9548,0.9716,0.9966,0.9855,0.9606,0.9241,0.9209,0.9383,0.9661,0.97,0.9721,0.97,0.0,0.0,0.0,0.0,0.0,0.0,0.719,0.7092,0.7077,0.7189,0.7609,0.7802,0.7509,0.9389,1.0425,0.9825,1.1198,1.2042,1.1939,1.2309,1.1855,1.0308,1.009,1.0406,1.1251,1.1953,1.3259,1.5212,1.5101,1.5442,1.6168,1.6423,1.6734,1.713,1.7609,1.7705,1.7527,1.7468,1.6306,1.4515,1.4581,1.3132,1.0824,0.0,0.0,0.0,0.0,0.0,0.0,0.0,0.0,0.0,0.0,0.0,0.0,0.0,0.0,0.0,0.0,0.0,0.0,0.0,0.0,0.0,0.0,0.0,0.0,0.0,0.0,0.0,0.0,0.0,0.0,0.0,0.0,0.0,0.0,0.0,0.4825,0.4129,0.4068,0.4089,0.4136,0.3987,0.4151,0.4732,0.472,0.4657,0.4566,0.4874,0.5037,0.5068,0.5381,0.5579,0.5701,0.6363,0.6866,0.7215,0.8275,0.8897,0.9114,0.9604,0.9973,1.0208,1.0371,1.0591,1.0887,1.1034,1.1119,1.1102,1.0658,1.0857,1.1357,1.0946,1.092,1.1015,0.0,0.0,0.0,0.0,0.0,0.7632,0.7184,0.7107,0.7227,0.7585,0.837,0.918,0.9909,1.0937,1.156,1.1497,1.1479,1.1514,1.1589,1.1719,1.1868,1.2035,1.0963,1.1112,1.2694,1.2105,1.2891,1.5184,1.5063,1.5569,1.6677,1.6481,1.7016,1.8106,1.8428,1.8295,1.7845,1.8297,1.8131,1.7406,1.5778,1.5067,1.4629,0.0,0.0,0.0,0.0,0.0,0.0,0.0,0.0,0.0,0.0,0.0,0.0,0.0,0.0,0.0,0.0,0.0,0.0,0.0,0.0,0.0,0.0,0.0,0.0,0.0,0.0,0.0,0.0,0.0,0.0,0.0,0.0,0.0,0.5893,0.5886,0.5847,0.5235,0.5536,0.5568,0.4917,0.4919,0.4908,0.4785,0.4785,0.4769,0.4774,0.5406,0.566,0.5487,0.6117,0.6302,0.5995,0.665,0.7275,0.7876,0.8557,0.9187,0.9746,1.0027,1.0282,1.0508,1.0961,1.1276,1.1534,1.1995,1.2691,1.333,1.2077,1.1941,1.2451,1.2451,1.2451,1.2368,0.0,0.0,0.0,0.0,0.0,0.7583,0.7603,0.7324,0.7357,0.8077,0.8506,0.9004,0.9652,1.057,1.1132,1.1067,1.1124,1.114,1.1168,1.157,1.1508,1.0897,1.0196,1.0293,1.1338,1.2581,1.3717,1.4758,1.4625,1.5184,1.6338,1.6481,1.6941,1.7686,1.8167,1.8343,1.8323,1.8342,1.8464,1.8589,1.7895,1.6735,1.5361,0.0,0.0,0.0,0.0,0.0,0.0,0.0,0.0,0.0,0.0,0.0,0.0,0.0,0.0,0.0,0.0,0.0,0.0,0.0,0.0,0.0,0.0,0.0,0.0,0.0,0.0,0.0,0.0,0.0,0.0,0.0,0.0,0.8016,0.6591,0.7043,0.7282,0.6618,0.6272,0.6137,0.623,0.6174,0.6293,0.6702,0.6633,0.6627,0.6738,0.6915,0.7027,0.7057,0.7235,0.7542,0.7938,0.858,0.918,0.9702,1.037,1.0778,1.0949,1.0996,1.1518,1.2345,1.25,1.3062,1.3898,1.4147,1.4522,1.4823,1.3696,1.3497,1.3866,1.3866,1.3564,1.3245,0.0,0.0,0.0,0.0,0.0,0.7495,0.7471,0.7249,0.7446,0.8438,0.8811,0.9201,0.976,1.0562,1.0916,1.0486,1.0297,1.029,1.0479,1.0833,1.086,1.0458,1.035,1.0705,1.1538,1.3028,1.4153,1.4844,1.489,1.5294,1.6044,1.6318,1.6625,1.7019,1.7478,1.7864,1.8215,1.811,1.8428,1.8945,1.8699,1.8068,1.7209,1.6619,1.5853,1.4928,1.3571,1.3403,1.3562,1.2082,0.0,0.0,0.0,0.0,0.0,0.0,0.0,0.0,0.0,0.0,0.0,0.0,0.0,0.0,0.0,0.0,0.0,0.0,0.0,0.0,0.0,0.0,0.0,0.0,0.8697,0.923,0.8311,0.8677,0.8924,0.8527,0.7854,0.747,0.7668,0.7131,0.6925,0.726,0.731,0.7421,0.766,0.8014,0.8224,0.8297,0.8557,0.8786,0.8975,0.9657,1.0275,1.0882,1.158,1.2064,1.2362,1.2567,1.307,0.0,1.401,1.4544,1.5322,1.559,1.5999,0.0,0.0,0.0,0.0,0.0,1.4674,1.4493,0.0,0.0,0.0,0.0,0.0,0.7362,0.7077,0.7071,0.7522,0.8684,0.9134,0.9556,1.0118,1.0706,1.0745,0.9932,0.9318,0.9182,0.9692,0.9907,1.0196,1.0603,1.1128,1.183,1.268,1.3456,1.4294,1.5141,1.5366,1.5592,1.5796,1.6021,1.6232,1.6421,1.6712,1.7179,1.7712,1.7707,1.8075,1.8688,1.8553,1.8898,1.9283,1.7415,1.6762,1.6588,1.4577,1.4055,1.4219,1.3695,0.0,0.0,0.0,0.0,0.0,0.0,0.0,0.0,0.0,0.0,0.0,0.0,0.0,0.0,0.0,0.0,0.0,0.0,0.0,0.0,0.0,0.0,0.0,0.0,1.0045,1.083,1.0344,1.0479,1.0584,1.0436,0.9748,0.9259,0.9223,0.8196,0.7566,0.7642,0.7839,0.8118,0.8522,0.0,0.0,0.0,0.0,1.0315,0.9956,1.0518,1.1181,1.1854,1.2524,1.3175,1.3855,1.4279,1.4616,1.4933,1.5452,1.5877,1.6289,1.6698,1.726,1.7731,1.6553,1.6251,1.6475,1.5914,1.5868,1.5965,0.0,0.0,0.0,0.0,0.0,0.7199,0.7298,0.7154,0.7519,0.8947,0.9096,0.9474,1.0549,1.04,1.0244,1.0293,0.9013,0.8512,0.9196,0.0,1.0497,1.1259,1.1817,1.2489,1.3303,1.3957,1.4436,1.48,1.4789,1.5153,1.5799,1.5725,1.6181,1.7038,1.7075,1.7121,1.7165,1.711,1.7428,1.7988,1.7908,1.8246,1.8774,1.8624,1.8715,1.8886,1.8608,1.8817,1.8909,1.678,1.6362,1.6457,1.4995,0.0,0.0,0.0,0.0,0.0,0.0,0.0,0.0,0.0,0.0,0.0,0.0,0.0,0.0,0.0,0.0,0.0,0.0,0.0,0.0,0.9205,1.0214,1.0952,1.0859,1.1579,1.1738,1.0761,1.05,1.0595,1.1113,1.0941,1.1052,1.1713,1.1788,1.2003,1.241,1.259,0.0,1.2803,1.2945,1.3074,1.3278,1.3389,1.3666,1.3998,0.0,0.0,1.4657,1.4765,1.531,1.6243,1.6514,1.7113,1.7876,1.8226,1.8563,1.8744,1.8071,1.7845,1.7845,1.7239,1.7263,1.7557,0.0,0.0,0.0,0.0,0.0,0.0,0.7199,0.7116,0.7409,0.8415,0.8488,0.8641,0.9151,0.9115,0.893,0.8633,0.8347,0.8166,0.0,0.9238,1.0364,1.1403,1.184,1.2494,1.3431,1.4111,1.4513,1.4605,1.4628,1.507,1.5843,1.5753,1.6185,1.7093,1.6928,1.6842,1.6848,1.6667,1.6809,1.7186,1.7372,1.7639,1.7968,1.8572,1.8884,1.9024,1.9225,1.9555,1.975,1.8773,1.8691,1.8869,1.8161,1.7335,1.6243,0.0,0.0,0.0,0.0,0.0,0.0,0.0,0.0,0.0,0.0,0.0,0.0,0.0,0.0,0.9609,0.9758,0.0,1.025,1.0427,1.0945,1.1413,1.1692,1.2196,1.2356,1.1903,1.1894,1.2104,1.2661,1.2466,1.2473,1.287,1.3101,1.3346,1.3679,1.3797,1.3944,1.4146,1.4154,1.4234,1.4417,1.4417,1.4681,1.5215,1.5513,1.5893,1.6376,1.6785,1.7333,1.7977,1.8154,1.8623,1.9283,1.9516,1.9644,1.9713,1.9471,1.9093,1.864,1.8066,1.8158,1.8519,0.0,0.0,0.0,0.0,0.0,0.0,0.7121,0.7116,0.7321,0.788,0.7937,0.7874,0.7748,0.7869,0.7565,0.6557,0.7737,0.8176,0.0,0.8858,1.0307,1.1439,1.1744,1.2419,1.352,1.4248,1.4652,1.4687,1.48,1.5187,1.5818,1.5772,1.61,1.6774,1.6541,1.6472,1.6514,1.6338,1.6337,1.6488,1.6968,1.7178,1.7282,1.8062,1.8358,1.8417,1.8712,1.8978,1.9277,1.9836,2.0325,2.0778,2.1055,2.0313,1.8795,1.6188,1.5603,0.0,0.0,0.0,0.0,0.0,0.0,0.0,0.0,0.0,1.0212,1.0584,1.0653,1.0779,1.1189,1.1168,1.1292,1.1866,1.1955,1.2122,1.2733,1.2963,1.3116,1.3326,1.3323,1.3494,1.3964,1.3705,1.3478,1.3481,1.3902,1.4234,1.4346,1.4708,1.5013,1.5261,1.5505,1.561,1.561,1.5713,1.5978,1.6475,1.7009,1.7497,1.8003,1.8841,1.936,1.9604,1.9847,2.0145,2.0477,2.0609,2.0634,2.0634,2.0634,2.0149,1.9435,1.8995,1.9131,1.9536,0.0,0.0,0.0,0.0,0.0,0.0,0.7451,0.7294,0.7427,0.809,0.8071,0.8057,0.8198,0.7782,0.6886,0.5407,0.7634,0.0,0.7704,0.9485,1.0926,1.172,1.2079,1.2808,1.4003,1.4687,1.5142,1.539,1.5401,1.5453,1.553,1.5538,1.5692,1.5939,1.6133,1.6106,1.5898,1.6126,1.6248,1.6355,1.6778,1.7044,1.724,1.7645,1.7862,1.8049,1.866,1.8978,1.9195,1.9603,2.0065,2.0512,2.0844,2.0861,2.0078,1.6524,0.0,1.4325,1.0687,1.0274,1.1005,1.1597,1.1646,1.196,0.0,0.0,1.3283,1.4217,1.3861,1.3407,1.3583,1.2789,1.2395,1.3161,1.3142,1.3243,1.3838,1.4551,1.488,1.4538,1.4197,1.4272,1.4943,1.5416,1.559,1.5459,1.6105,1.6365,1.6062,1.6842,1.74,1.7609,1.8655,1.9211,1.9211,1.9621,1.9529,1.8921,1.9177,1.9035,1.8616,1.9611,2.0267,2.0648,2.098,2.1237,2.1444,2.1479,2.1479,2.1479,2.1479,2.1193,2.0793,2.0723,2.0944,2.1348,0.0,0.0,0.0,0.0,0.0,0.0,0.0,0.7506,0.7522,0.7757,0.7375,0.7076,0.7128,0.6394,0.5588,0.481,0.7012,0.8299,0.7948,0.9736,1.1325,1.2449,1.2596,1.3276,1.4596,1.521,1.5558,1.5669,1.5558,1.5716,1.6126,1.5818,1.5971,1.6498,1.6412,1.6164,1.5818,1.6162,1.6146,1.5954,1.6667,1.7005,1.7131,1.7543,1.772,1.7749,1.7471,1.7302,0.0,0.0,1.841,1.8659,1.9956,1.9882,1.8732,1.5789,1.5366,0.0,1.3294,1.2187,1.1749,0.0,1.2364,1.2697,1.3827,1.3888,1.4022,1.5264,1.499,1.4478,1.443,1.3773,1.3375,0.0,1.3745,1.3966,1.4691,1.5096,1.5373,1.561,1.5771,1.5813,1.5687,1.6556,1.7175,1.7217,1.7774,1.8178,1.832,1.872,1.9105,1.9453,1.9951,2.0194,2.0194,2.0417,2.0333,2.0022,2.0586,2.0757,2.0512,2.1429,2.202,2.2382,2.267,2.2921,2.3039,2.3039,2.28,2.2426,2.2678,2.239,2.1743,2.119,2.1385,2.1975,0.0,0.0,0.0,0.0,0.0,0.0,0.0,0.0,0.7627,0.7583,0.7017,0.6489,0.6145,0.5367,0.4724,0.442,0.6247,0.7612,0.0,0.9682,1.13,1.277,1.2918,0.0,1.4814,1.5365,1.5692,1.5792,1.5647,1.5827,1.6287,1.5893,1.5997,1.6477,1.6332,1.6052,1.5776,1.616,1.6129,1.5834,1.6582,1.6909,1.7047,1.7447,1.7659,1.7677,1.7047,1.6609,0.0,0.0,1.756,1.7434,1.8837,1.8558,1.7197,1.4704,1.4347,1.4708,1.4587,1.3816,0.0,1.3488,1.3787,1.4014,1.4195,1.4287,1.4601,1.5641,1.5546,1.5157,1.4903,1.4519,1.4297,1.4404,1.45,1.4959,1.6024,1.6248,1.6455,1.6782,1.7351,1.7432,1.6738,1.7825,1.8544,1.8486,1.9175,1.9698,1.9917,2.018,2.0466,2.0794,2.1168,2.1374,2.1374,2.1585,2.1578,2.1353,2.2053,2.2262,2.2054,2.3014,2.3647,2.3927,2.4168,2.4384,2.4516,2.4516,2.4228,2.3779,2.3948,2.357,2.2855,2.2182,2.2201,2.2586,0.0,0.0,0.0,0.0,0.0,0.0,0.0,0.0,0.0,0.7778,0.0,0.6783,0.5735,0.5251,0.4766,0.4161,0.5419,0.6722,0.7826,0.9234,1.0734,1.2347,1.2852,1.3504,1.4388,1.4943,1.5414,1.5792,1.5792,1.5703,1.5537,1.5514,1.538,1.5177,1.5481,1.5626,1.5637,1.6037,1.619,1.6188,1.6436,1.671,1.7034,1.731,1.7619,1.7921,1.8066,0.0,0.0,0.0,1.829,1.7666,1.7512,1.7091,0.0,1.3446,1.1527,1.077,1.3022,0.0,1.492,1.5785,1.6485,1.6691,1.5594,1.5497,1.5662,1.5701,1.5797,1.5739,1.5264,1.5001,1.5056,1.5632,1.5751,1.6338,1.8053,1.8646,1.8713,1.82,1.879,1.8998,0.0,1.9365,1.9789,1.9217,2.0345,2.0829,2.0308,2.1096,2.1561,2.1572,2.2877,2.3595,2.3595,2.4295,2.424,2.3396,2.3697,2.3404,2.2606,2.3988,2.4743,2.4969,2.5158,2.537,2.5557,2.5557,2.5627,2.5638,2.5146,2.4707,2.4337,2.4313,2.3988,2.3632,0.0,0.0,0.0,0.0,0.0,0.0,0.0,0.0,0.0,0.0,0.0,0.0,0.0,0.0,0.0,0.0,0.6138,0.7016,0.7539,0.9133,1.04,1.1173,1.2211,1.3039,1.3593,1.4126,1.4766,1.5532,1.5265,1.5411,1.5969,1.5969,1.5925,1.5836,1.5947,1.6013,1.6001,1.6253,1.634,1.6362,1.6663,1.6778,1.6828,1.709,1.7322,1.7523,0.0,0.0,0.0,0.0,0.0,0.0,1.6861,0.0,1.3999,1.2251,1.206,1.2845,1.4805,1.6471,1.7848,1.869,1.9111,1.8955,1.7474,1.7175,1.706,1.6431,1.5472,1.4715,1.4573,1.453,1.4618,1.4952,1.6306,1.7668,1.8656,1.9346,1.9694,1.9596,2.0446,0.0,0.0,0.0,0.0,2.0757,2.1739,2.2491,2.2947,2.3364,2.3723,2.4061,2.4296,2.4448,2.4448,2.511,2.5146,2.448,2.4874,2.4945,2.4826,2.5441,2.5791,2.5931,2.6151,2.6324,2.6543,2.6543,2.6242,2.5824,2.5884,2.5557,2.5052,2.5533,2.5603,2.5405,0.0,0.0,0.0,0.0,0.0,0.0,0.0,0.0,0.0,0.0,0.0,0.0,0.0,0.0,0.0,0.0,0.0,0.6787,0.7227,0.8488,0.9514,1.0186,1.1171,1.1925,1.2364,1.2707,1.3291,1.4098,1.4136,1.4606,1.5462,1.5764,1.6016,1.62,1.6253,1.6275,1.6275,1.6392,1.6323,1.6169,1.6317,1.6316,1.6176,1.6302,1.6642,0.0,0.0,0.0,0.0,0.0,0.0,0.0,0.0,1.4328,1.2384,1.2174,1.2802,1.4169,1.6978,1.8613,1.9746,2.0643,2.1011,2.0689,1.8951,1.8718,1.8519,1.734,1.6301,1.5315,1.4421,1.4802,1.5038,1.4416,1.5995,1.7681,1.8682,1.9072,1.9649,2.0642,2.1624,2.2299,0.0,0.0,0.0,2.2788,2.3546,2.4273,2.5012,2.5174,2.5436,2.5859,2.5721,2.5652,2.5652,2.6205,2.6352,2.6055,2.6057,2.6208,2.6461,2.6324,2.6393,2.6611,2.676,2.6909,2.7113,2.7113,2.685,2.6424,2.6483,2.6208,2.5871,2.6492,2.6616,2.6445,0.0,0.0,0.0,0.0,0.0,0.0,0.0,0.0,0.0,0.0,0.0,0.0,0.0,0.0,0.0,0.0,0.0,0.0,0.6934,0.0,0.0,0.934,0.9809,1.03,1.083,1.083,1.1137,1.1777,1.2521,1.3267,1.4014,1.4882,1.5552,1.6043,1.6198,1.6262,1.6262,1.6348,1.609,1.5635,1.5512,1.5381,1.5197,1.5076,0.0,0.0,0.0,0.0,0.0,0.0,0.0,0.0,0.0,1.2732,1.1598,1.3265,1.3781,1.4787,1.9286,2.0501,2.0727,2.1753,2.2223,2.196,2.0126,2.0127,2.0007,1.8295,1.7957,1.7192,0.0,0.0,1.611,1.4165,1.5111,1.6696,1.8375,1.828,1.8931,0.0,0.0,0.0,0.0,0.0,0.0,2.5154,0.0,2.6057,2.6411,2.6445,2.6603,2.6917,2.7111,2.7211,2.7211,2.7564,2.7828,2.8051,2.7291,2.7136,2.7484,2.6756,2.6645,2.7024,2.7024,2.7113,2.7302,2.7302,2.7403,2.7456,2.6952,2.6748,2.6782,2.7142,2.7082,2.6833,0.0,0.0,0.0,0.0,0.0,0.0,0.0,0.0,0.0,0.0,0.0,0.0,0.0,0.0,0.0,0.0,0.0,0.0,0.6766,0.0,0.0,0.0,0.0,0.0,0.0,0.0,0.0,0.0,0.0,1.1838,1.2619,1.329,1.3666,0.0,1.4149,1.4346,1.4396,1.4618,1.4768,1.4908,0.0,1.5261,1.5341,0.0,0.0,0.0,0.0,0.0,0.0,0.0,0.0,0.0,0.0,1.4914,1.5067,1.5666,1.6871,1.8441,2.0237,2.1838,2.3056,2.3447,2.386,2.363,2.1625,2.1496,2.0939,1.7814,1.6562,1.5325,0.0,0.0,0.0,1.4427,1.6779,0.0,2.0279,2.0814,0.0,2.3013,0.0,2.4418,2.5281,2.59,0.0,0.0,2.6361,2.6242,2.6598,2.7015,2.7271,2.7324,2.7404,2.7438,2.7438,2.7756,2.8279,2.8949,2.7868,2.7484,2.7709,2.7121,2.6964,2.7248,2.7335,2.7403,2.7469,2.7469,2.7469,2.749,2.7356,2.7289,2.7356,2.802,2.8183,2.8203,0.0,0.0,0.0,0.0,0.0,0.0,0.0,0.0,0.0,0.0,0.0,0.0,0.0,0.0,0.0,0.0,0.0,0.0,0.0,0.0,0.0,0.0,0.0,0.0,0.0,0.0,0.0,0.0,0.0,0.0,0.0,1.2012,1.2474,1.2756,1.3128,1.3308,1.3379,0.0,0.0,0.0,0.0,0.0,0.0,0.0,0.0,0.0,0.0,0.0,0.0,0.0,0.0,1.6503,1.5407,1.5502,1.6235,1.7269,0.0,1.9511,2.1103,2.2301,2.3187,2.3629,2.3964,2.3739,2.2009,2.1816,2.0992,1.745,1.6052,0.0,1.2821,0.0,0.0,0.0,0.0,0.0,2.1143,2.1277,2.1946,0.0,2.4456,0.0,2.6498,2.7216,2.7656,0.0,2.733,2.7142,2.7523,2.7973,2.8287,2.8417,2.8417,2.8468,2.8629,2.8821,2.9233,2.987,2.8935,2.8468,2.8346,2.7822,2.749,2.7403,0.0,2.749,2.749,2.749,2.759,2.7769,2.7769,2.7868,2.8066,2.8619,2.8812,2.8876,0.0,0.0,0.0,0.0,0.0,0.0,0.0,0.0,0.0,0.0,0.0,0.9485,0.9408,0.913,0.0,0.0,0.0,0.0,0.0,0.0,0.0,0.0,0.0,0.0,0.0,0.0,0.0,0.0,0.0,0.0,0.0,0.0,0.0,0.0,0.0,0.0,0.0,0.0,0.0,0.0,0.0,0.0,0.0,0.0,0.0,0.0,0.0,0.0,0.0,0.0,1.7288,1.623,1.5594,1.5841,1.6702,1.8509,1.9009,1.9476,2.1744,2.218,2.2194,2.2926,2.3246,2.3027,2.1616,2.1447,2.0561,1.707,0.0,1.5151,1.3272,1.485,1.6305,1.5867,0.0,1.9869,2.1683,2.1174,2.1662,2.4538,2.5024,2.5735,2.7332,2.8061,2.8481,2.8629,2.8527,2.8476,2.8522,2.8908,2.9289,2.9634,2.9665,2.982,3.0111,3.0142,3.028,3.0612,3.0068,2.9605,2.9243,2.8688,2.8189,2.7776,2.7723,0.0,2.7723,2.7656,2.7835,2.8177,2.8177,2.8341,2.8651,2.8972,2.9099,2.9162,0.0,0.0,0.0,0.0,0.0,0.0,0.0,0.0,0.0,0.0,0.9815,0.9526,0.0,0.0,0.0,0.0,0.0,0.0,0.0,0.0,0.0,0.0,0.0,0.0,0.0,0.0,0.0,0.0,0.0,0.0,0.0,0.0,0.0,0.0,0.0,0.0,0.0,0.0,0.0,0.0,0.0,0.0,0.0,0.0,0.0,0.0,0.0,0.0,0.0,0.0,1.8148,1.856,1.8153,1.8829,1.9828,2.0175,2.0589,2.0995,2.1458,2.1864,2.2161,2.2077,2.2686,2.2773,2.0739,2.0832,0.0,0.0,1.5736,1.5301,1.3395,1.4233,1.5801,1.76,0.0,0.0,0.0,0.0,2.44,0.0,0.0,0.0,0.0,0.0,0.0,0.0,0.0,2.9642,2.8276,2.8881,2.9481,2.9988,3.0019,3.0097,3.0266,3.0266,3.0417,3.0762,3.0099,2.9901,3.0068,2.9435,2.9125,2.9142,2.8912,0.0,2.8798,2.8522,2.8457,2.849,2.849,2.8554,2.8651,2.8972,2.9099,2.9162,0.0,0.0,0.0,0.0,0.0,0.0,0.0,1.0932,1.0727,1.0582,1.0311,0.9982,0.9646,0.9514,0.9393,0.0,0.0,0.0,0.0,0.0,0.0,0.0,0.0,0.0,0.0,0.0,0.8315,0.8498,0.0,0.0,0.0,0.8757,0.8912,0.8952,0.0,0.0,0.0,0.0,0.0,0.0,0.0,0.0,0.0,0.0,0.0,0.0,0.0,0.0,0.0,0.0,1.8318,1.8956,1.8674,1.919,1.9973,2.0457,2.0698,2.0871,2.1302,2.1592,2.1841,2.2067,2.2655,2.2474,1.9748,0.0,0.0,0.0,1.4373,1.4211,1.3455,0.0,0.0,0.0,0.0,0.0,0.0,0.0,0.0,0.0,0.0,0.0,0.0,0.0,0.0,0.0,0.0,3.051,2.9071,2.9749,3.0299,3.0569,3.0643,3.0748,3.0925,3.0673,3.0702,3.0955,3.0703,3.0493,3.0282,3.0146,2.9934,2.9642,2.9341,0.0,2.9166,2.878,2.8683,2.8844,2.8844,2.899,2.9243,2.932,2.9401,2.9495,0.0,0.0,0.0,0.0,0.0,0.0,0.0,1.1327,1.1143,1.0932,1.0777,1.0534,1.0097,0.9828,0.9605,0.0,0.0,0.0,0.0,0.0,0.0,0.0,0.0,0.0,0.0,0.0,0.0,0.8846,0.9076,0.0,0.0,0.0,0.0,0.0,0.9257,0.9454,0.0,0.0,0.0,0.0,0.0,1.2572,0.0,0.0,0.0,0.0,0.0,0.0,0.0,0.0,1.8265,1.8676,1.8639,1.8851,1.9248,2.0024,2.014,2.0194,2.1062,2.1361,2.1544,2.2161,2.2678,2.216,1.8877,1.8232,0.0,0.0,1.3333,1.3377,1.3732,0.0,1.6026,0.0,0.0,0.0,0.0,0.0,0.0,0.0,0.0,0.0,0.0,0.0,0.0,0.0,0.0,0.0,3.0085,3.0822,3.1232,3.1145,3.1276,3.1436,3.158,3.1102,3.0955,3.1132,3.1292,3.1102,3.0628,3.0911,3.0763,3.0254,2.9903,0.0,0.0,2.9341,2.931,2.9512,2.9512,2.9716,3.0009,2.9744,2.9713,2.9777,0.0,0.0,0.0,0.0,0.0,0.0,0.0,1.1457,1.1276,1.1259,1.1073,1.0944,1.0897,1.0336,0.9906,0.0,0.0,0.0,0.0,0.0,0.0,0.0,0.0,0.0,0.0,0.0,0.0,0.9957,0.9867,0.0,0.0,0.0,0.0,0.0,0.0,0.94,0.9449,0.9985,0.0,0.0,0.0,0.0,0.0,0.0,0.0,0.0,0.0,0.0,0.0,0.0,0.0,1.836,1.887,1.8946,1.8885,1.9095,0.0,0.0,2.0726,2.1202,2.1496,2.1926,2.2388,2.1821,1.8365,0.0,0.0,1.4446,1.3851,1.3994,1.4565,1.5097,1.5943,0.0,0.0,2.0001,0.0,0.0,0.0,0.0,0.0,0.0,0.0,0.0,0.0,0.0,0.0,0.0,3.0791,3.1649,3.2,3.165,3.1777,3.1819,3.1862,3.1336,3.1132,3.1292,3.1408,3.1538,3.167,3.1826,3.1868,3.1783,3.1422,0.0,0.0,3.1057,3.1028,3.0837,3.0837,3.0852,3.0793,3.0054,2.9777,2.9777,0.0,0.0,0.0,0.0,0.0,0.0,1.1805,1.1757,1.1681,1.1619,1.146,1.1336,1.1256,1.0881,1.0532,1.0248,0.0,0.0,0.0,0.0,0.0,0.0,0.0,0.0,0.0,0.0,1.0309,1.0285,1.0273,0.0,0.0,0.0,0.0,0.0,0.0,0.9867,0.9944,0.9999,0.0,0.0,0.0,0.0,0.0,0.0,0.0,0.0,0.0,0.0,1.6802,0.0,0.0,0.0,1.8746,1.8352,0.0,0.0,1.9715,1.9608,2.1181,2.1779,2.2016,2.2301,2.2274,2.1434,1.843,0.0,1.6786,1.4477,1.3951,1.4101,1.4792,1.5119,1.5498,1.6133,0.0,0.0,0.0,0.0,0.0,0.0,0.0,0.0,0.0,0.0,0.0,0.0,0.0,0.0,3.2403,3.2806,3.3045,3.2981,3.3087,3.3035,3.2795,3.2351,3.1979,3.1726,3.1783,3.184,3.194,3.2219,3.237,3.2342,3.2216,0.0,0.0,3.1777,3.1635,3.1521,3.1145,3.1043,3.1014,3.0251,3.0021,3.0068,0.0,0.0,0.0,0.0,0.0,1.1805,1.1902,1.2002,1.2023,1.1923,1.1833,1.1732,1.1648,1.1415,1.1152,1.082,1.0434,0.0,0.0,0.0,0.0,0.0,0.0,0.0,0.0,0.0,1.0907,1.0678,1.0714,1.0641,0.0,0.0,1.0605,1.0581,0.0,0.0,0.0,0.0,0.0,0.0,0.0,0.0,0.0,0.0,0.0,0.0,0.0,0.0,0.0,0.0,0.0,0.0,0.0,0.0,0.0,0.0,1.9479,1.9303,2.0945,2.183,2.2351,2.2623,2.2221,2.1125,0.0,0.0,1.6515,1.4833,1.4307,1.4412,1.5369,1.5488,1.5469,1.5469,0.0,1.8396,1.9095,0.0,0.0,0.0,0.0,0.0,0.0,0.0,0.0,0.0,0.0,0.0,0.0,3.4045,3.4053,3.3912,3.4045,3.3919,3.3469,3.3013,3.2559,3.2122,3.2163,3.2219,3.2302,3.2645,3.2807,3.2807,0.0,0.0,0.0,3.2489,3.2364,3.2238,3.1819,3.1607,3.1465,3.0703,3.0387,3.0296,0.0,0.0,0.0,0.0,0.0,0.0,1.1991,1.2112,1.22,1.22,1.22,1.2185,1.2184,1.1891,1.1648,1.1501,1.1118,0.0,0.0,0.0,0.0,0.0,0.0,0.0,0.0,0.0,0.0,1.1296,1.1296,1.1227,1.1085,1.0956,1.0861,1.0801,0.0,0.0,0.0,0.0,0.0,0.0,0.0,0.0,1.2646,0.0,0.0,0.0,0.0,0.0,0.0,0.0,0.0,0.0,0.0,1.8501,0.0,0.0,1.7915,1.8378,1.9599,2.1078,2.2397,2.2797,2.2204,2.094,0.0,0.0,1.668,1.5606,1.5018,1.5129,1.6511,1.6407,1.6085,1.6085,1.6779,0.0,1.9369,0.0,0.0,0.0,0.0,0.0,0.0,0.0,0.0,0.0,0.0,0.0,0.0,3.5268,3.4961,3.4211,3.4342,3.4144,3.3582,3.3066,3.2668,3.2398,3.2547,3.2738,3.2996,3.3214,3.3309,0.0,0.0,0.0,0.0,3.3445,3.3481,3.3198,3.3198,3.2868,3.2272,3.1493,3.0807,3.0296,0.0,0.0,0.0,0.0,0.0,0.0,0.0,1.2241,1.2262,1.2262,1.2272,1.2282,1.2272,1.2128,1.2023,1.198,1.1355,0.0,0.0,0.0,0.0,0.0,0.0,0.0,0.0,0.0,0.0,0.0,0.0,1.1404,1.125,1.1296,1.1273,1.1204,1.1015,1.0908,0.0,0.0,0.0,0.0,0.0,1.193,1.2075,0.0,0.0,0.0,0.0,0.0,0.0,0.0,0.0,0.0,0.0,0.0,0.0,1.6774,1.6905,1.7388,1.8837,1.9826,2.0455,2.05,1.9848,1.8807,1.7394,0.0,1.5911,1.5496,1.4835,1.4861,1.6511,1.6768,1.6909,1.7516,1.8543,0.0,0.0,0.0,0.0,0.0,0.0,0.0,0.0,0.0,0.0,0.0,0.0,0.0,0.0,3.5594,3.5487,3.5161,3.5201,3.4927,3.4292,3.4119,3.3681,3.3027,3.3065,3.3118,3.3198,3.3461,0.0,0.0,0.0,0.0,0.0,3.3882,3.3908,3.3764,3.3355,3.3093,3.2853,3.2256,3.1908,3.1737,0.0,0.0,0.0,0.0,0.0,0.0,0.0,1.2403,1.2407,1.2407,1.2407,1.2403,1.2373,1.2338,1.2277,1.2216,1.1764,0.0,0.0,0.0,0.0,0.0,0.0,0.0,0.0,0.0,0.0,0.0,0.0,0.0,0.0,0.0,1.1478,1.1433,1.125,1.1132,0.0,0.0,0.0,0.0,1.1575,1.1777,1.1677,0.0,0.0,0.0,0.0,0.0,0.0,0.0,0.0,0.0,0.0,0.0,0.0,0.0,1.6271,1.6272,1.7695,1.8815,1.9551,1.9375,1.8644,1.7733,0.0,0.0,1.5406,1.5394,1.4914,1.5135,1.7289,1.7575,1.7898,1.9163,2.0039,0.0,0.0,0.0,0.0,0.0,0.0,0.0,0.0,0.0,0.0,0.0,0.0,0.0,0.0,3.591,3.5975,3.5954,3.5822,3.5385,3.4601,3.4649,3.4251,3.345,3.3503,3.3555,3.3607,3.3771,0.0,0.0,0.0,0.0,0.0,3.4151,3.4176,3.4134,3.3825,3.3511,3.3235,3.2895,3.2614,3.2398,0.0,0.0,0.0,0.0,0.0,0.0,0.0,1.2552,1.26,1.26,1.26,1.2571,1.2499,1.2505,1.2429,1.2236,0.0,0.0,0.0,0.0,0.0,0.0,0.0,0.0,0.0,0.0,0.0,1.1615,1.1615,1.1582,1.15,0.0,0.0,1.1523,1.1466,1.141,0.0,0.0,0.0,0.0,1.1745,1.1747,0.0,0.0,0.0,0.0,0.0,0.0,0.0,0.0,0.0,0.0,0.0,0.0,0.0,0.0,0.0,0.0,0.0,1.8006,1.9223,1.8973,1.8276,1.7399,1.6551,0.0,0.0,1.5592,1.5425,1.614,1.898,1.9022,1.9255,2.1036,2.1433,0.0,0.0,0.0,0.0,0.0,0.0,0.0,0.0,0.0,0.0,0.0,0.0,0.0,0.0,3.6237,3.6423,3.6544,3.6233,3.5633,3.4745,3.4816,3.4521,3.3832,3.3924,3.4025,3.4151,3.4151,3.4151,0.0,0.0,0.0,0.0,3.425,3.4325,3.4325,3.4448,3.4077,3.3469,3.3469,3.3066,3.2547,0.0,0.0,0.0,0.0,0.0,0.0,0.0,0.0,0.0,0.0,1.26,1.2581,1.2574,1.2534,1.2459,0.0,0.0,0.0,0.0,0.0,0.0,0.0,0.0,0.0,0.0,0.0,0.0,1.1751,1.1751,1.17,1.1582,1.163,0.0,0.0,0.0,0.0,0.0,0.0,0.0,0.0,1.295,1.3138,0.0,0.0,0.0,0.0,1.6423,1.7531,0.0,0.0,0.0,0.0,0.0,0.0,0.0,0.0,1.7287,1.5993,1.7136,0.0,1.6288,1.6229,1.6061,1.5727,0.0,0.0,0.0,0.0,0.0,0.0,0.0,2.2171,2.2424,2.3513,2.4186,0.0,0.0,0.0,0.0,0.0,0.0,0.0,0.0,0.0,0.0,0.0,0.0,0.0,0.0,3.6753,3.6851,3.6888,3.6811,3.6512,3.5977,3.5654,3.534,3.5071,3.4802,3.4618,3.4546,3.4667,3.4546,0.0,0.0,0.0,3.4399,3.4448,3.4448,3.4448,3.4497,3.4382,3.4243,3.4243,3.4143,3.3993,0.0,0.0,0.0,0.0,0.0,0.0,0.0,0.0,0.0,0.0,0.0,0.0,0.0,0.0,0.0,0.0,0.0,0.0,0.0,0.0,0.0,0.0,0.0,0.0,0.0,0.0,0.0,0.0,0.0,1.1992,0.0,0.0,0.0,0.0,0.0,0.0,0.0,0.0,0.0,1.3448,1.3714,0.0,0.0,0.0,0.0,0.0,1.6336,1.7391,0.0,1.9477,1.9905,2.0071,0.0,0.0,0.0,0.0,1.7942,1.6919,1.7319,1.6955,1.645,1.645,1.6996,1.7434,1.6992,0.0,0.0,0.0,0.0,0.0,0.0,0.0,0.0,0.0,2.6605,0.0,0.0,0.0,0.0,0.0,0.0,0.0,0.0,0.0,0.0,0.0,0.0,0.0,0.0,3.7087,3.7184,3.7184,3.7317,3.7089,3.6412,3.6207,3.5977,3.5676,3.5526,3.527,3.4944,3.4991,3.4794,0.0,0.0,0.0,3.4497,3.457,3.4594,3.4594,3.4667,3.4643,3.4594,3.4594,3.4546,3.4497,0.0,0.0,0.0,0.0,0.0,0.0,0.0,0.0,0.0,0.0,0.0,0.0,0.0,0.0,0.0,0.0,0.0,0.0,0.0,0.0,0.0,0.0,0.0,0.0,0.0,0.0,0.0,0.0,0.0,0.0,0.0,0.0,1.251,0.0,0.0,0.0,0.0,0.0,1.3744,1.4475,1.4386,0.0,0.0,0.0,0.0,0.0,0.0,0.0,0.0,1.915,1.9701,2.0209,2.0435,0.0,0.0,0.0,0.0,0.0,1.8047,1.8306,1.8549,1.8059,1.9019,2.0004,1.9717,0.0,0.0,0.0,0.0,0.0,0.0,0.0,0.0,0.0,0.0,0.0,0.0,0.0,0.0,0.0,0.0,0.0,0.0,0.0,0.0,0.0,0.0,0.0,0.0,3.7354,3.7485,3.7485,3.7721,3.7467,3.6641,3.6676,3.6474,3.6122,3.6165,3.5868,3.5289,3.5311,3.5028,3.4521,0.0,0.0,3.457,3.4691,3.4715,3.4739,3.4851,3.4828,3.4715,3.4715,3.4667,3.4546,0.0,0.0,0.0,0.0,0.0,0.0,0.0,0.0,0.0,0.0,0.0,0.0,0.0,0.0,0.0,0.0,0.0,0.0,0.0,0.0,0.0,0.0,0.0,0.0,0.0,0.0,0.0,0.0,0.0,0.0,1.263,1.2715,1.3156,1.3918,0.0,1.4137,1.4559,1.4598,1.4886,1.5332,1.5483,0.0,0.0,0.0,0.0,0.0,0.0,0.0,0.0,1.9271,1.9903,2.0455,2.0542,0.0,0.0,0.0,0.0,0.0,2.1806,2.2306,2.1958,1.9174,1.9044,1.9562,1.939,0.0,0.0,0.0,0.0,0.0,0.0,0.0,0.0,0.0,0.0,0.0,0.0,0.0,0.0,0.0,0.0,0.0,0.0,0.0,0.0,0.0,0.0,0.0,0.0,3.7811,3.7828,3.7828,3.7757,3.7721,3.7667,3.7242,3.705,3.7087,3.6761,3.6277,3.5632,3.5864,3.5481,3.4683,0.0,3.4851,3.4851,3.4875,3.4875,3.4875,3.4899,3.4899,3.4875,3.4875,3.4851,3.4763,0.0,0.0,0.0,0.0,0.0,0.0,0.0,0.0,0.0,0.0,0.0,0.0,0.0,0.0,0.0,0.0,0.0,0.0,0.0,0.0,0.0,0.0,0.0,0.0,0.0,0.0,0.0,0.0,0.0,1.308,1.3193,1.3666,1.432,1.5122,0.0,1.5374,1.5829,1.5823,1.6059,1.6471,0.0,0.0,0.0,0.0,0.0,0.0,0.0,0.0,0.0,0.0,1.9683,2.0592,2.1089,0.0,0.0,0.0,0.0,0.0,2.2729,2.3251,2.3396,2.229,2.2807,2.3594,2.3572,0.0,0.0,0.0,0.0,0.0,0.0,0.0,0.0,0.0,0.0,0.0,0.0,0.0,0.0,0.0,0.0,0.0,0.0,0.0,0.0,0.0,0.0,0.0,0.0,0.0,3.8002,3.8002,3.7967,3.7968,3.795,3.7721,3.7595,3.7613,3.7449,3.6902,3.6088,3.6211,3.5732,3.4828,0.0,3.4994,3.4994,3.4994,3.4994,3.4994,3.4923,3.4899,3.4899,3.4899,3.4899,3.4859,0.0,0.0,0.0,0.0,0.0,0.0,0.0,0.0,0.0,0.0,0.0,0.0,0.0,0.0,0.0,0.0,0.0,0.0,0.0,0.0,0.0,0.0,0.0,0.0,0.0,0.0,1.3226,1.3345,1.3387,1.3619,1.3999,1.4805,1.5566,0.0,0.0,1.6492,1.6963,1.6936,1.7088,1.7317,0.0,0.0,0.0,0.0,0.0,0.0,0.0,0.0,0.0,0.0,0.0,0.0,0.0,0.0,0.0,2.3042,2.3311,2.3424,2.3407,2.3879,2.4495,2.5048,2.5874,2.6679,2.7126,0.0,0.0,0.0,0.0,0.0,0.0,0.0,0.0,0.0,0.0,0.0,0.0,0.0,0.0,0.0,0.0,0.0,0.0,0.0,0.0,0.0,0.0,0.0,0.0,0.0,3.8136,3.8119,3.8156,3.8139,3.807,3.8035,3.7984,3.7899,3.7916,3.7394,3.646,3.6464,3.5933,3.4994,3.5088,3.5152,3.5152,3.5152,3.5152,3.5152,3.5018,3.4994,3.4994,3.4994,3.497,3.4947,0.0,0.0,0.0,0.0,0.0,0.0,0.0,0.0,0.0,0.0,0.0,0.0,0.0,0.0,0.0,0.0,0.0,0.0,0.0,0.0,0.0,0.0,0.0,0.0,0.0,1.3543,1.3686,1.3763,1.3771,1.4227,1.5104,1.5908,1.6645,1.7284,0.0,1.7396,1.7736,1.7847,1.7704,1.7396,1.7531,0.0,0.0,0.0,0.0,0.0,0.0,0.0,0.0,0.0,0.0,0.0,0.0,0.0,2.396,2.415,2.4713,2.5286,2.5228,2.5604,2.6025,2.6016,2.5485,0.0,2.6938,2.6673,0.0,0.0,0.0,0.0,0.0,0.0,0.0,0.0,0.0,0.0,0.0,0.0,0.0,0.0,0.0,0.0,0.0,0.0,0.0,0.0,0.0,0.0,0.0,0.0,3.8257,3.8191,3.8138,3.8153,3.829,3.8153,3.8036,3.7899,3.795,3.7505,3.658,3.6646,3.6169,3.5268,3.5268,3.5291,3.5291,3.5291,3.5291,3.5291,3.5268,3.5268,3.5268,3.5268,3.5198,3.5105,0.0,0.0,0.0,0.0,0.0,0.0,0.0,0.0,0.0,0.0,0.0,0.0,0.0,0.0,0.0,0.0,0.0,0.0,0.0,0.0,0.0,0.0,0.0,1.3768,1.3768,1.3733,1.4005,1.4614,1.531,1.6074,1.689,1.7222,0.0,0.0,0.0,0.0,1.8303,1.8249,1.8057,1.7789,1.7822,1.7817,0.0,0.0,0.0,0.0,0.0,0.0,0.0,0.0,2.0179,2.1092,2.2371,2.3311,2.409,2.4731,2.5072,2.5269,2.5313,2.5825,2.6297,2.6184,0.0,0.0,0.0,0.0,0.0,0.0,0.0,0.0,0.0,0.0,0.0,0.0,0.0,0.0,0.0,0.0,0.0,0.0,0.0,0.0,0.0,0.0,0.0,0.0,0.0,0.0,0.0,3.8499,3.8501,3.8385,3.8318,3.8302,3.8352,3.8302,3.8252,3.8204,3.8156,3.7739,3.7039,3.6805,3.6319,3.5655,3.5503,3.5423,3.5423,3.5423,3.5423,3.5423,3.5314,3.5291,3.5291,3.5198,3.5198,3.5222,0.0,0.0,0.0,0.0,0.0,0.0,0.0,0.0,0.0,0.0,0.0,0.0,0.0,0.0,0.0,0.0,0.0,0.0,0.0,0.0,0.0,0.0,0.0,1.4129,1.4364,1.4294,1.4578,1.5264,1.6625,1.7553,1.8038,0.0,0.0,0.0,0.0,0.0,0.0,1.8574,1.8358,1.811,1.8165,1.8168,0.0,0.0,0.0,0.0,0.0,0.0,0.0,0.0,2.0857,2.1728,2.3169,2.3889,2.4342,2.5039,2.5346,2.5489,2.5567,2.5941,2.6386,0.0,0.0,0.0,0.0,0.0,0.0,0.0,0.0,0.0,0.0,0.0,0.0,0.0,0.0,0.0,0.0,0.0,0.0,0.0,0.0,0.0,0.0,0.0,0.0,0.0,0.0,0.0,0.0,3.867,3.8655,3.8478,3.8496,3.8481,3.843,3.843,3.843,3.843,3.8289,3.7949,3.7414,3.6962,3.6501,3.6011,3.5684,3.552,3.552,3.552,3.552,3.552,3.5429,3.5389,3.5367,3.5297,3.5297,3.5337,0.0,0.0,0.0,0.0,0.0,0.0,0.0,0.0,0.0,0.0,0.0,0.0,0.0,0.0,0.0,0.0,0.0,0.0,0.0,0.0,0.0,0.0,0.0,1.4381,1.5195,1.5372,1.5483,1.5626,1.7504,1.8385,1.8339,1.9193,0.0,0.0,0.0,0.0,0.0,0.0,1.8606,1.8313,1.8518,1.8484,1.8309,0.0,0.0,0.0,0.0,0.0,0.0,0.0,2.109,2.2904,2.2987,2.3889,2.4916,2.5065,2.5658,2.6268,2.6199,2.6193,2.6408,0.0,0.0,0.0,0.0,0.0,0.0,0.0,0.0,0.0,0.0,0.0,0.0,0.0,0.0,0.0,0.0,0.0,0.0,0.0,0.0,0.0,0.0,0.0,0.0,0.0,0.0,0.0,0.0,3.878,3.8683,3.8415,3.8611,3.8643,3.851,3.851,3.851,3.851,3.837,3.8087,3.7685,3.715,3.6698,3.6301,3.5822,3.5622,3.56,3.56,3.56,3.56,3.56,3.56,3.56,3.56,3.5549,3.5492,0.0,0.0,0.0,0.0,0.0,0.0,0.0,0.0,0.0,0.0,0.0,0.0,0.0,0.0,0.0,0.0,0.0,0.0,0.0,0.0,0.0,0.0,0.0,0.0,0.0,0.0,1.7553,1.7496,1.8714,1.9261,0.0,0.0,0.0,1.9121,0.0,0.0,0.0,1.8928,1.8837,1.8596,1.8799,1.8936,1.9,0.0,0.0,0.0,0.0,0.0,0.0,0.0,0.0,0.0,2.3854,2.4424,2.478,2.4851,2.5057,2.5258,2.5278,2.6227,0.0,2.6719,0.0,0.0,0.0,0.0,0.0,0.0,0.0,0.0,0.0,0.0,0.0,0.0,0.0,0.0,0.0,0.0,0.0,0.0,0.0,0.0,0.0,0.0,0.0,0.0,0.0,0.0,0.0,3.891,3.8848,3.8683,3.8747,3.8735,3.8643,3.8643,3.8643,3.8643,3.8496,3.8336,3.8087,3.7578,3.7265,3.7132,3.6701,3.635,3.6067,3.5734,3.56,3.56,3.56,3.56,3.56,3.5543,3.5543,3.5571,0.0,0.0,0.0,0.0,0.0,0.0,0.0,0.0,0.0,0.0,0.0,0.0,0.0,0.0,0.0,0.0,0.0,0.0,0.0,0.0,0.0,0.0,0.0,0.0,0.0,1.851,1.9001,0.0,0.0,0.0,0.0,0.0,0.0,1.9038,0.0,1.902,0.0,0.0,1.9605,1.9716,2.0063,2.0252,2.0376,0.0,0.0,0.0,0.0,0.0,0.0,0.0,0.0,0.0,2.4297,2.4572,2.474,2.5168,2.5253,2.5417,2.6227,2.6979,0.0,2.7832,2.8768,0.0,0.0,0.0,0.0,0.0,0.0,0.0,0.0,0.0,0.0,0.0,0.0,0.0,0.0,0.0,0.0,0.0,0.0,0.0,0.0,0.0,0.0,0.0,0.0,0.0,0.0,3.9007,3.8979,3.8833,3.8881,3.8837,3.8735,3.8735,3.8719,3.8707,3.8559,3.8446,3.8352,3.7861,3.7596,3.7541,3.6919,3.6516,3.628,3.5866,3.5644,3.56,3.5667,3.5644,3.56,3.5549,3.5571,3.56,0.0,0.0,0.0,0.0,0.0,0.0,0.0,0.0,0.0,0.0,0.0,0.0,0.0,0.0,0.0,0.0,0.0,0.0,0.0,0.0,0.0,0.0,0.0,0.0,0.0,0.0,0.0,0.0,0.0,0.0,0.0,0.0,1.9254,1.9031,0.0,1.9182,1.9712,2.0083,2.0595,2.1199,2.1786,2.202,2.2045,2.2208,0.0,0.0,0.0,0.0,0.0,0.0,0.0,0.0,2.4391,2.4486,2.4767,2.5622,2.5884,2.6296,2.8074,0.0,0.0,2.9861,3.0638,0.0,0.0,0.0,0.0,0.0,0.0,0.0,0.0,0.0,0.0,0.0,0.0,0.0,0.0,0.0,0.0,0.0,0.0,0.0,0.0,0.0,0.0,0.0,0.0,0.0,0.0,3.9059,3.9031,3.8906,3.8983,3.8939,3.8807,3.8807,3.8795,3.8707,3.859,3.8525,3.8525,3.8048,3.7826,3.7703,3.6779,3.6367,3.6346,3.5975,3.5751,3.5644,3.5773,3.5728,3.5644,3.5622,3.56,3.5622,0.0,0.0,0.0,0.0,0.0,0.0,0.0,0.0,0.0,0.0,0.0,0.0,0.0,0.0,0.0,0.0,0.0,0.0,0.0,0.0,0.0,0.0,0.0,0.0,0.0,0.0,0.0,0.0,0.0,0.0,0.0,0.0,0.0,1.8632,0.0,1.8732,1.8925,2.0046,2.0606,2.081,2.1713,2.2111,2.2168,2.2147,2.2164,0.0,0.0,0.0,0.0,0.0,0.0,0.0,2.4411,2.4455,2.4568,2.4824,2.5411,2.6093,2.6623,2.8183,0.0,0.0,3.2061,3.3918,0.0,0.0,0.0,0.0,0.0,0.0,0.0,0.0,0.0,0.0,0.0,0.0,0.0,0.0,0.0,0.0,0.0,0.0,0.0,0.0,0.0,0.0,0.0,0.0,3.9073,3.9087,3.9059,3.8979,3.8979,3.8939,3.8807,3.8848,3.8833,0.0,3.8762,3.8728,3.8713,3.8396,3.8251,3.8185,3.7377,3.6999,3.6941,3.6241,3.5932,3.591,3.5839,3.5861,3.5888,3.5689,3.5667,3.5751,0.0,0.0,0.0,0.0,0.0,0.0,0.0,0.0,0.0,0.0,0.0,0.0,0.0,0.0,0.0,0.0,0.0,0.0,0.0,0.0,0.0,0.0,0.0,0.0,0.0,0.0,0.0,0.0,0.0,0.0,0.0,0.0,0.0,1.8799,0.0,1.9523,1.9965,2.1193,2.1931,2.2339,2.3082,2.3416,2.3442,2.3367,2.3386,2.3487,2.3846,0.0,0.0,0.0,0.0,0.0,0.0,0.0,2.4544,2.4982,2.522,2.5738,2.7618,0.0,0.0,3.1906,0.0,0.0,0.0,0.0,0.0,0.0,0.0,0.0,0.0,0.0,0.0,0.0,0.0,0.0,0.0,0.0,0.0,0.0,0.0,0.0,0.0,0.0,0.0,0.0,0.0,3.9101,3.9101,3.9101,3.9087,3.9064,3.905,3.9007,3.891,3.8921,3.8906,3.8851,3.8851,3.8851,3.8851,3.8572,3.8446,3.8396,3.756,3.7209,3.7152,3.6388,3.6058,3.5997,3.5993,3.5993,3.5975,3.5756,3.5751,3.5773,0.0,0.0,0.0,0.0,0.0,0.0,0.0,0.0,0.0,0.0,0.0,0.0,0.0,0.0,0.0,0.0,0.0,0.0,0.0,0.0,0.0,0.0,0.0,0.0,0.0,0.0,0.0,0.0,0.0,0.0,0.0,0.0,0.0,1.9245,0.0,2.0713,2.1434,2.2498,2.335,2.4022,2.4562,2.4783,2.4776,2.4715,2.4703,2.4698,2.4698,2.4666,2.4623,2.4682,0.0,0.0,0.0,0.0,2.4571,2.5309,2.5187,2.5519,2.8671,0.0,3.0252,3.3824,3.4761,0.0,0.0,0.0,0.0,0.0,0.0,0.0,0.0,0.0,0.0,0.0,0.0,0.0,0.0,0.0,0.0,0.0,0.0,0.0,0.0,0.0,0.0,0.0,0.0,3.9178,3.9178,3.9142,3.9101,3.9101,3.9101,3.9059,3.8993,3.9007,3.8979,3.8925,3.8925,3.8925,3.8877,3.8649,3.8556,3.8491,3.7632,3.7247,3.7209,3.6492,3.6165,3.6062,3.6165,3.6144,3.6041,3.5905,3.5839,3.5856,0.0,0.0,0.0,0.0,0.0,0.0,0.0,0.0,0.0,0.0,0.0,0.0,0.0,0.0,0.0,0.0,0.0,0.0,0.0,0.0,0.0,0.0,1.9702,0.0,0.0,0.0,0.0,0.0,0.0,0.0,0.0,0.0,0.0,1.974,0.0,0.0,2.1715,2.2662,2.3237,2.3564,2.4373,2.4711,2.4706,2.4692,2.47,2.4692,2.4692,2.4687,2.4682,2.4703,2.4655,0.0,0.0,0.0,2.4534,2.4771,2.5266,2.5885,2.6628,0.0,3.208,0.0,3.5682,3.5768,0.0,0.0,0.0,0.0,0.0,0.0,0.0,0.0,0.0,0.0,0.0,0.0,0.0,0.0,0.0,0.0,0.0,0.0,0.0,0.0,0.0,0.0,3.9571,3.9451,3.9451,3.9227,3.9101,3.9101,3.9101,3.9059,3.8993,3.9064,3.9045,3.8997,3.8997,3.8968,3.891,3.8788,3.8758,3.8713,3.7843,3.7469,3.7414,3.6597,3.628,3.6259,3.6208,3.6212,3.6237,3.6041,3.6058,3.6225,0.0,0.0,0.0,0.0,0.0,0.0,0.0,0.0,0.0,0.0,0.0,0.0,0.0,0.0,0.0,0.0,0.0,0.0,0.0,0.0,0.0,1.9587,1.977,1.9819,1.9717,0.0,0.0,0.0,0.0,0.0,0.0,2.1316,2.1549,0.0,0.0,0.0,0.0,0.0,2.4035,2.411,2.454,2.5024,2.5422,2.4888,2.5019,2.5415,2.4891,2.4726,2.4753,2.4768,2.4687,2.4588,2.4591,0.0,0.0,0.0,2.5352,2.5854,2.8015,3.0485,3.3003,0.0,3.5819,3.5866,3.5976,0.0,0.0,0.0,0.0,0.0,0.0,0.0,0.0,0.0,0.0,0.0,0.0,0.0,0.0,0.0,0.0,0.0,0.0,0.0,0.0,0.0,3.9637,3.9493,3.9493,3.9313,3.9183,3.9101,3.9165,3.917,3.9064,3.9087,3.9087,3.9064,3.9064,3.9031,3.9021,3.8935,3.8881,3.8777,3.8165,3.7738,3.7469,3.6921,3.6536,3.6301,3.6276,3.6259,3.628,3.6165,3.6144,3.6285,0.0,0.0,0.0,0.0,0.0,0.0,0.0,0.0,0.0,0.0,0.0,0.0,0.0,0.0,0.0,0.0,0.0,0.0,0.0,0.0,0.0,2.0817,2.06,2.0382,2.0138,0.0,0.0,0.0,0.0,0.0,2.076,2.2325,2.2968,0.0,2.3408,0.0,0.0,0.0,0.0,0.0,2.5187,2.5817,0.0,0.0,2.6482,2.6932,2.5803,2.5429,2.5391,2.4937,2.4718,2.4693,2.4901,2.4944,0.0,0.0,0.0,2.6339,2.9515,3.1343,3.2845,3.4944,3.5463,3.5555,0.0,0.0,0.0,0.0,0.0,0.0,0.0,0.0,0.0,0.0,0.0,0.0,0.0,0.0,0.0,0.0,0.0,0.0,0.0,0.0,0.0,0.0,3.9794,3.9649,3.9649,3.9458,3.9285,3.917,3.9245,3.9232,3.9101,3.9101,3.9101,3.9101,3.9101,3.9101,3.9101,3.9036,3.8954,3.8818,3.8328,3.7894,3.7487,3.7094,3.6736,3.6402,3.6322,3.6343,3.6381,3.6272,3.635,3.6603,0.0,0.0,0.0,0.0,0.0,0.0,0.0,0.0,0.0,0.0,0.0,0.0,0.0,0.0,0.0,2.2496,0.0,0.0,0.0,0.0,0.0,2.2749,2.2678,0.0,2.1056,0.0,0.0,0.0,0.0,0.0,2.2935,2.3106,2.3715,2.4666,2.4693,2.4693,2.4643,0.0,0.0,0.0,0.0,0.0,0.0,0.0,0.0,0.0,0.0,2.7254,2.7007,2.5279,2.4749,2.493,2.5767,2.5977,2.6086,0.0,0.0,0.0,2.9768,3.0428,3.1188,3.3896,3.4562,0.0,0.0,0.0,0.0,0.0,0.0,0.0,0.0,0.0,0.0,0.0,0.0,0.0,0.0,0.0,0.0,0.0,0.0,0.0,0.0,0.0,0.0,0.0,4.0208,4.0081,4.0081,3.9705,3.9439,3.9298,3.9298,3.9232,3.9101,3.9101,3.9101,3.9101,3.9101,3.9101,3.9101,3.9036,3.9011,3.895,3.8229,3.779,3.756,3.697,3.6684,3.6643,3.6402,3.6461,3.6643,3.6402,3.6784,3.7525,0.0,0.0,0.0,0.0,0.0,0.0,0.0,0.0,0.0,0.0,0.0,0.0,0.0,2.2748,2.2782,2.2829,2.292,0.0,0.0,0.0,0.0,2.2895,2.2748,2.2465,2.2006,0.0,0.0,0.0,0.0,2.2771,2.3365,2.3994,2.4543,2.4998,2.4865,2.4791,2.4764,2.4791,0.0,0.0,0.0,0.0,0.0,0.0,0.0,0.0,0.0,0.0,0.0,2.7552,2.6987,0.0,0.0,0.0,0.0,2.7561,2.8089,2.8816,3.0076,3.0458,3.0971,3.3122,3.4081,3.4607,3.4975,0.0,0.0,0.0,0.0,0.0,0.0,0.0,0.0,0.0,0.0,0.0,0.0,0.0,0.0,0.0,0.0,0.0,0.0,0.0,0.0,0.0,0.0,4.0109,4.0109,3.9794,3.9575,3.9439,3.9495,3.9446,3.9232,3.9137,3.9101,3.9101,3.9101,3.9101,3.9101,3.9073,3.9059,3.9031,3.8646,3.8312,3.8046,3.7859,3.7614,3.7304,3.6902,3.6801,3.6908,3.704,3.7254,3.7668,0.0,0.0,0.0,0.0,0.0,0.0,0.0,0.0,0.0,0.0,0.0,0.0,0.0,0.0,2.3727,2.3791,2.3866,2.3903,2.392,2.3893,2.3849,2.3808,2.3682,2.345,0.0,0.0,0.0,0.0,0.0,0.0,0.0,2.5173,2.5652,2.5995,2.5868,2.5468,0.0,0.0,0.0,2.6287,0.0,0.0,3.0099,0.0,0.0,0.0,0.0,0.0,0.0,0.0,0.0,0.0,0.0,0.0,0.0,0.0,2.9115,2.9674,3.0314,3.0497,3.0843,3.2333,3.317,3.3799,3.4413,0.0,0.0,0.0,0.0,0.0,0.0,0.0,0.0,0.0,0.0,0.0,0.0,0.0,0.0,0.0,0.0,0.0,0.0,0.0,0.0,0.0,0.0,0.0,4.0174,3.991,3.9705,3.9556,3.9575,3.9489,3.9311,3.917,3.9101,3.9101,3.9101,3.9101,3.9101,3.9101,3.9101,3.9101,3.8964,3.8673,3.8323,3.831,3.8112,3.7789,3.7379,3.723,3.7278,3.7609,3.7827,3.8135,0.0,0.0,0.0,0.0,0.0,0.0,0.0,0.0,0.0,0.0,0.0,0.0,0.0,0.0,0.0,2.5593,2.5668,2.5697,2.5708,2.5641,2.56,2.5591,0.0,0.0,0.0,0.0,0.0,0.0,0.0,0.0,0.0,0.0,2.7055,2.7802,2.7802,2.6783,2.5145,0.0,2.6384,2.6776,0.0,3.1003,3.0567,0.0,0.0,0.0,3.1894,3.1562,0.0,3.0526,0.0,0.0,0.0,0.0,0.0,0.0,0.0,0.0,0.0,0.0,0.0,3.1462,3.1773,3.2338,3.4021,0.0,0.0,0.0,0.0,0.0,0.0,0.0,0.0,0.0,0.0,0.0,0.0,0.0,0.0,0.0,0.0,0.0,0.0,0.0,0.0,0.0,4.0499,4.0309,4.0309,4.005,3.9837,3.9717,3.9452,3.9311,3.9311,3.9183,3.9115,3.9115,3.9115,3.9115,3.9115,3.9101,3.9101,3.9101,3.9101,3.8832,3.8402,3.8216,3.8135,3.81,3.7824,3.772,3.7793,3.8107,3.8537,3.9025,0.0,0.0,0.0,0.0,0.0,0.0,0.0,0.0,0.0,0.0,0.0,0.0,0.0,0.0,0.0,2.5607,2.566,2.5701,2.5708,2.5684,2.5672,2.5671,2.5675,2.5843,0.0,0.0,0.0,0.0,0.0,0.0,0.0,0.0,0.0,0.0,2.788,2.7571,2.7107,2.7246,0.0,0.0,3.0615,3.1738,0.0,0.0,0.0,0.0,0.0,3.2968,3.2555,0.0,3.1854,3.0439,0.0,0.0,0.0,0.0,0.0,0.0,3.0577,0.0,0.0,0.0,0.0,0.0,3.2437,3.3583,3.4617,0.0,0.0,0.0,0.0,0.0,0.0,0.0,0.0,0.0,0.0,0.0,0.0,0.0,0.0,0.0,0.0,0.0,0.0,0.0,4.0488,4.0309,4.0309,4.005,3.9889,3.9856,3.9682,3.9532,3.9452,3.9414,3.935,3.9245,3.9245,3.9245,3.9232,3.9137,3.9101,3.9101,3.9101,3.9027,3.8909,3.8855,3.8826,3.8763,3.8214,3.8307,3.8797,3.8941,3.9442,4.0145,0.0,0.0,0.0,0.0,0.0,0.0,0.0,0.0,0.0,0.0,0.0,0.0,0.0,0.0,0.0,2.6658,2.6716,2.6755,2.6776,2.679,2.6778,2.6782,2.6789,2.7029,2.7539,0.0,0.0,0.0,0.0,0.0,0.0,0.0,0.0,0.0,0.0,0.0,0.0,0.0,0.0,0.0,3.1289,0.0,0.0,3.3594,3.4155,0.0,0.0,0.0,3.3567,3.4404,3.3305,0.0,0.0,0.0,0.0,0.0,0.0,0.0,0.0,0.0,0.0,3.0569,0.0,0.0,3.2209,3.3209,3.4207,0.0,0.0,0.0,0.0,0.0,0.0,0.0,0.0,0.0,0.0,0.0,0.0,0.0,0.0,0.0,0.0,4.0967,4.0931,4.0892,4.0568,4.0317,4.0186,4.0008,3.99,3.99,3.9781,3.967,3.9568,3.9539,3.9464,3.9389,3.9324,3.9298,3.9298,3.9219,3.9137,3.9101,3.917,3.9137,3.9101,3.9101,3.9101,3.911,3.9078,3.9163,3.9404,4.0027,4.0418,4.0718,0.0,0.0,0.0,0.0,0.0,0.0,0.0,0.0,0.0,0.0,0.0,0.0,0.0,0.0,0.0,0.0,2.8201,2.8237,2.8278,2.8302,2.829,2.8298,2.83,2.8359,2.8437,2.8434,0.0,0.0,0.0,0.0,0.0,0.0,0.0,0.0,0.0,0.0,0.0,0.0,0.0,2.9687,3.1942,3.2416,0.0,0.0,3.3704,3.3192,3.3987,3.4243,3.4321,3.4999,3.4339,0.0,0.0,0.0,0.0,0.0,3.0756,0.0,0.0,0.0,0.0,0.0,3.05,0.0,3.2512,3.3028,3.3599,3.5202,0.0,0.0,0.0,0.0,0.0,0.0,0.0,0.0,0.0,0.0,0.0,0.0,0.0,0.0,4.1085,4.1034,4.0992,4.0988,4.0687,4.0342,4.0039,3.9943,3.99,3.99,3.9792,3.9717,3.9705,3.9599,3.9539,3.9526,3.9401,3.9331,3.935,3.9337,3.9245,3.9129,3.9245,3.9219,3.9101,3.9194,3.9231,3.9324,4.0057,4.0111,3.992,4.1144,4.1326,4.1035,0.0,0.0,0.0,0.0,0.0,0.0,0.0,0.0,0.0,0.0,0.0,0.0,0.0,0.0,0.0,0.0,2.8164,2.8214,2.8225,2.8262,2.8294,2.8294,2.8299,2.8633,2.9336,2.9355,2.9685,0.0,0.0,0.0,0.0,0.0,0.0,0.0,0.0,0.0,0.0,0.0,0.0,3.1339,3.1837,0.0,3.2847,3.3864,3.456,3.4999,3.5173,3.4825,3.421,3.3737,3.3793,3.3835,0.0,0.0,0.0,0.0,0.0,0.0,0.0,0.0,0.0,0.0,0.0,0.0,3.0877,3.1534,3.2185,0.0,0.0,0.0,0.0,0.0,0.0,0.0,0.0,0.0,0.0,0.0,0.0,0.0,0.0,0.0,4.0953,4.1019,4.098,4.0926,4.0604,4.0329,4.0166,3.9989,3.99,3.99,3.9878,3.9815,3.9705,3.9781,3.977,3.967,3.9616,3.9635,3.9623,3.9495,3.9401,3.9259,3.9285,3.9219,3.9157,3.9863,4.0155,4.0145,4.01,4.0616,4.1449,4.156,4.1779,4.2011,0.0,0.0,0.0,0.0,0.0,0.0,0.0,0.0,0.0,0.0,0.0,0.0,0.0,0.0,0.0,0.0,0.0,0.0,0.0,0.0,2.955,2.9556,2.9583,2.9802,3.0233,3.0254,3.0468,0.0,0.0,0.0,0.0,0.0,0.0,0.0,0.0,0.0,0.0,0.0,3.1843,3.2533,3.2479,0.0,3.3685,3.456,3.5142,3.55,3.55,3.5232,3.4847,3.4436,3.4026,0.0,0.0,3.2863,3.2518,0.0,3.2216,3.235,0.0,0.0,0.0,3.0699,0.0,0.0,0.0,3.1482,3.193,3.2403,3.2843,0.0,0.0,0.0,0.0,0.0,0.0,0.0,0.0,0.0,0.0,0.0,0.0,0.0,4.0324,4.0402,4.0533,4.0873,4.0617,4.0392,4.0255,4.003,3.99,3.99,3.99,3.9878,3.9804,3.9878,3.9878,3.9804,3.9728,3.9705,3.9705,3.9635,3.9483,3.9311,3.9376,3.9528,3.977,4.023,4.0866,4.159,4.1452,4.1696,4.2184,4.2483,4.265,4.2747,0.0,0.0,0.0,0.0,0.0,0.0,0.0,0.0,0.0,0.0,0.0,0.0,0.0,0.0,0.0,0.0,0.0,0.0,0.0,0.0,3.0945,3.0948,3.0916,3.0924,3.1037,3.0935,3.0879,3.0878,0.0,0.0,0.0,0.0,0.0,0.0,0.0,0.0,0.0,0.0,0.0,3.3716,0.0,3.3714,3.4356,3.5206,3.5624,3.5779,3.5925,3.5981,3.5956,3.5797,3.4891,3.3877,3.4211,3.368,0.0,0.0,0.0,0.0,0.0,0.0,0.0,0.0,0.0,3.1181,0.0,0.0,0.0,3.3001,3.3149,0.0,0.0,0.0,0.0,0.0,0.0,0.0,0.0,0.0,0.0,0.0,0.0,0.0,0.0,3.9487,3.9898,4.0861,4.0481,4.025,4.0356,4.01,3.9933,3.9922,3.9922,3.9911,3.99,3.99,3.99,3.99,3.9792,3.9739,3.9739,3.9739,3.9599,3.935,3.9633,4.0012,4.0458,4.075,4.1638,4.2843,4.2813,4.2717,4.2695,4.3374,4.3426,4.3214,2.7439,2.7491,0.0,0.0,0.0,0.0,0.0,0.0,0.0,0.0,0.0,0.0,0.0,0.0,0.0,0.0,0.0,0.0,3.1457,0.0,0.0,3.1506,3.1064,3.103,3.1501,3.1046,3.0819,3.0801,0.0,0.0,0.0,0.0,0.0,0.0,3.2323,0.0,0.0,0.0,3.3908,0.0,3.4552,3.4345,0.0,3.537,3.6087,3.6749,3.7468,3.7719,3.7601,0.0,3.6522,3.6148,0.0,3.5287,3.5917,3.3745,0.0,0.0,0.0,0.0,0.0,0.0,3.2711,0.0,0.0,0.0,3.2819,3.2995,0.0,3.2728,0.0,0.0,0.0,0.0,0.0,0.0,0.0,0.0,0.0,0.0,0.0,0.0,0.0,3.8384,3.9138,4.0935,3.9895,3.9576,4.0524,4.026,4.0046,3.9986,3.9986,3.9954,3.99,3.99,3.99,3.99,3.9889,3.9878,3.9878,3.9878,3.9735,3.9527,4.0309,4.0626,4.068,4.1983,4.2701,4.2967,4.2839,4.3069,4.3485,4.3577,4.3426,4.3214,2.8523,2.8441,0.0,0.0,0.0,0.0,0.0,0.0,0.0,0.0,0.0,0.0,0.0,0.0,0.0,0.0,0.0,3.1738,0.0,0.0,0.0,3.1144,3.0917,3.09,3.1137,3.0941,3.0858,3.0859,3.1327,0.0,0.0,0.0,0.0,0.0,3.2663,0.0,3.4189,0.0,3.5466,0.0,0.0,0.0,0.0,3.6577,3.7237,3.7546,3.787,3.8007,3.7952,0.0,3.6884,0.0,0.0,0.0,0.0,0.0,0.0,0.0,0.0,0.0,0.0,0.0,0.0,0.0,3.3101,0.0,3.2917,0.0,0.0,0.0,0.0,0.0,0.0,0.0,3.4154,0.0,0.0,0.0,0.0,0.0,0.0,0.0,0.0,0.0,0.0,0.0,4.0372,4.0111,4.0578,4.0278,4.0067,3.9996,3.9996,3.9965,3.99,3.99,3.99,3.99,3.99,3.99,3.99,3.99,3.9792,3.9661,4.0534,4.106,4.1371,4.2472,4.3193,4.3558,4.3515,4.3627,4.3828,4.3828,4.3763,4.3664,2.9475,0.0,0.0,0.0,0.0,0.0,0.0,0.0,0.0,0.0,0.0,0.0,3.0815,3.1264,0.0,0.0,3.2559,3.2754,0.0,0.0,3.2056,0.0,0.0,0.0,3.1534,3.1097,3.0874,3.0877,3.1699,0.0,0.0,0.0,0.0,0.0,0.0,3.4551,3.572,0.0,3.6819,3.6821,3.7817,3.7753,3.7183,3.8042,3.8507,3.8681,3.8681,3.8681,3.8657,3.8446,3.7599,0.0,3.7739,0.0,0.0,0.0,0.0,0.0,3.5219,0.0,0.0,0.0,0.0,0.0,0.0,0.0,0.0,0.0,0.0,0.0,0.0,0.0,0.0,0.0,0.0,3.5416,0.0,0.0,0.0,0.0,0.0,0.0,0.0,0.0,0.0,4.0551,4.0151,4.0062,4.0597,4.0332,4.0108,4.0067,4.0046,4.0005,3.9922,3.9911,3.99,3.99,3.99,3.99,3.99,3.99,3.9958,4.0101,4.0957,4.1694,4.2336,4.31,4.3716,4.4185,4.4158,4.4113,4.4085,4.402,4.4005,4.4005,3.0248,3.026,0.0,0.0,0.0,0.0,0.0,0.0,0.0,0.0,0.0,0.0,0.0,0.0,0.0,0.0,0.0,3.5932,3.5413,0.0,3.4018,0.0,0.0,3.154,0.0,3.1689,3.0807,3.0801,3.1678,0.0,0.0,0.0,0.0,0.0,0.0,3.5756,3.5836,3.6529,3.769,3.9026,3.8299,3.894,4.0277,0.0,3.9805,4.0419,4.0419,0.0,0.0,3.9597,3.9276,0.0,0.0,0.0,0.0,0.0,0.0,0.0,0.0,0.0,0.0,3.5639,0.0,0.0,0.0,0.0,3.5343,0.0,0.0,0.0,0.0,0.0,0.0,0.0,0.0,0.0,0.0,0.0,0.0,0.0,0.0,0.0,0.0,0.0,0.0,3.935,3.851,3.8712,4.061,4.0436,4.0263,4.0196,4.0137,4.0067,3.9996,3.9933,3.99,3.99,3.99,3.99,3.99,3.99,4.0288,4.0995,4.1813,4.2643,4.3492,4.4161,4.4546,4.4653,4.4524,4.4401,4.427,4.4067,4.4005,4.4005,0.0,0.0,0.0,0.0,0.0,0.0,0.0,3.053,0.0,0.0,0.0,0.0,0.0,3.3975,3.4521,0.0,0.0,3.5684,3.5501,3.4232,0.0,0.0,0.0,3.141,0.0,0.0,0.0,0.0,0.0,0.0,0.0,0.0,0.0,0.0,0.0,3.6055,0.0,0.0,0.0,0.0,0.0,3.8691,3.9747,0.0,4.0282,4.0496,4.0496,4.0496,0.0,4.0214,3.9788,3.9413,3.9641,3.9181,3.8619,3.8828,3.8714,0.0,0.0,0.0,3.8122,3.6712,0.0,0.0,0.0,0.0,0.0,0.0,0.0,0.0,0.0,0.0,0.0,0.0,0.0,0.0,0.0,0.0,3.5168,3.5084,3.516,0.0,0.0,0.0,0.0,3.9393,3.9635,4.0005,4.0655,4.0455,4.0244,4.0137,4.0117,4.0046,3.9933,3.9911,3.99,3.99,3.99,3.99,3.9919,4.0506,4.0901,4.1207,4.2588,4.3315,4.3548,4.432,4.4605,4.4551,4.4528,4.4416,4.4285,4.4222,4.4097,4.4005,3.0404,0.0,0.0,0.0,0.0,0.0,0.0,0.0,0.0,0.0,3.2492,0.0,3.4254,0.0,3.5324,0.0,3.6244,3.6519,3.6366,3.5281,0.0,3.5792,3.3456,0.0,0.0,0.0,0.0,0.0,0.0,3.2691,0.0,0.0,0.0,0.0,0.0,3.6395,3.7336,3.8402,3.8839,0.0,0.0,3.9185,0.0,0.0,4.033,4.0137,0.0,4.0496,4.0496,4.0496,4.019,3.9868,4.0337,3.9816,3.9112,3.9587,3.9353,3.889,3.8608,3.8909,0.0,3.7602,3.7682,0.0,3.629,0.0,0.0,0.0,0.0,0.0,0.0,0.0,0.0,0.0,0.0,0.0,0.0,3.5209,3.5176,3.5091,3.5138,3.5522,0.0,3.691,3.7793,3.9389,3.9641,4.0023,0.0,0.0,4.0309,4.0186,4.0127,4.0057,3.9965,3.9922,3.99,3.99,3.99,3.99,3.9938,4.079,4.1359,4.17,4.3095,4.3805,4.404,4.455,4.4725,4.4646,4.4646,4.4524,4.4373,4.4314,4.4177,4.4005,3.0507,0.0,0.0,0.0,3.0529,0.0,0.0,0.0,3.1126,0.0,3.2667,3.3171,3.4449,3.5727,3.6522,3.6589,3.7772,3.8339,3.7968,3.7162,0.0,0.0,3.5857,3.5335,3.6664,0.0,0.0,0.0,0.0,0.0,0.0,0.0,0.0,0.0,3.5985,0.0,3.8103,3.8103,3.8955,4.032,4.0372,4.0377,4.0364,4.0465,4.0049,3.9503,4.0244,4.0496,4.0496,4.0496,4.0496,4.0496,4.0496,4.0496,4.0496,4.0496,4.0496,4.0333,3.9577,3.9356,3.9176,3.8365,3.8163,0.0,0.0,0.0,3.6888,0.0,0.0,0.0,0.0,0.0,0.0,0.0,0.0,0.0,0.0,0.0,3.5201,3.5201,3.5172,3.5469,3.6249,3.5725,3.6463,3.9214,3.8576,3.8839,0.0,0.0,4.0381,4.031,4.0166,4.0106,4.0106,3.9965,3.99,3.99,3.99,3.9919,3.9995,4.0847,4.1711,4.2515,4.3379,4.4194,4.4895,4.4895,4.4895,4.4895,4.4895,4.4751,4.4501,4.4344,4.4162,4.4005,3.2105,3.2198,3.227,0.0,3.23,3.2274,0.0,0.0,0.0,0.0,3.5113,3.5823,3.7151,3.7616,3.7872,3.7973,3.83,0.0,0.0,0.0,0.0,3.8431,3.6062,3.5304,3.6603,3.4838,0.0,3.3927,0.0,0.0,3.3582,0.0,0.0,0.0,0.0,0.0,3.8097,3.8161,3.9032,4.0372,4.0398,4.0069,3.965,0.0,4.0049,3.9503,4.0244,4.0496,4.0496,4.0496,4.0496,4.0496,4.0496,4.0496,4.0496,4.0496,4.0496,4.0462,4.0312,4.0275,4.0072,3.926,3.9073,3.8858,0.0,0.0,0.0,0.0,0.0,0.0,0.0,0.0,0.0,0.0,0.0,0.0,0.0,0.0,0.0,3.5127,3.5723,3.5946,3.5477,3.655,3.7598,3.8322,3.8691,0.0,0.0,0.0,0.0,4.0196,4.0147,4.0106,4.0106,4.0026,3.9975,3.9975,3.9975,4.0285,4.0885,4.1719,4.2564,4.3417,4.4251,4.4706,4.4895,4.4895,4.4895,4.4895,4.4895,4.4815,4.4605,4.4218,4.4036,4.4005,3.2735,0.0,0.0,3.3468,0.0,0.0,3.3407,3.3314,0.0,3.5402,3.5831,0.0,3.7809,3.8136,3.8305,3.8446,3.8462,0.0,3.8352,0.0,0.0,3.8344,3.7136,3.6783,3.7503,3.628,0.0,3.5292,0.0,0.0,3.4302,0.0,0.0,0.0,0.0,3.6598,3.77,3.8352,3.9116,3.9906,4.0251,4.0153,0.0,4.0327,4.0244,3.994,4.0349,4.0496,4.0496,4.0496,4.0496,4.0496,4.0496,4.0496,4.0496,4.0496,4.0496,4.0516,4.0558,4.0588,4.0493,4.0037,3.9976,3.9793,3.8964,3.8768,3.8801,0.0,3.8565,3.8348,0.0,0.0,0.0,0.0,0.0,0.0,0.0,0.0,0.0,0.0,3.6706,3.6648,3.5675,3.7045,3.799,3.7958,3.8343,0.0,0.0,0.0,0.0,3.9527,3.9927,4.0147,4.0147,4.0077,4.0046,4.0046,4.0406,4.081,4.1271,4.2443,4.3246,4.3739,4.4554,4.4895,4.4895,4.4895,4.4895,4.4883,4.4852,4.4776,4.4653,4.4335,4.4173,4.4131,3.3101,0.0,0.0,0.0,0.0,0.0,0.0,3.3819,0.0,3.5642,0.0,3.636,3.7477,3.7963,3.8257,3.8382,0.0,3.827,3.7995,3.8423,3.8486,3.8021,3.846,3.8707,3.8707,3.8173,3.7629,0.0,0.0,0.0,0.0,0.0,0.0,0.0,0.0,0.0,0.0,3.864,3.9268,3.9419,4.0115,4.0407,4.0424,4.0476,4.0489,4.0496,4.0496,4.0496,4.0496,4.0496,4.0496,4.0496,4.0496,4.0496,4.0496,4.0496,4.0496,4.0496,4.0496,4.0549,4.0607,4.0588,4.0681,4.0593,3.9862,3.9698,3.9735,3.987,3.9241,3.9158,0.0,0.0,0.0,0.0,0.0,0.0,0.0,0.0,0.0,0.0,0.0,0.0,3.6453,3.7344,3.79,3.7718,3.7618,0.0,0.0,0.0,0.0,3.8914,3.9737,4.0206,4.0206,0.0,4.0117,4.0117,4.0921,4.1355,4.1526,4.3016,4.3758,4.3903,4.4592,4.4895,4.4895,4.4895,4.4895,4.4883,4.4757,4.4738,4.4725,4.4592,4.4529,4.4508,3.477,0.0,0.0,0.0,0.0,3.6137,3.6239,3.6522,3.6824,3.714,3.7511,3.7856,3.8132,3.8183,3.8257,3.8382,3.8399,0.0,0.0,0.0,0.0,3.8556,3.8646,3.8707,3.8707,3.8173,3.7629,0.0,0.0,0.0,0.0,0.0,0.0,0.0,0.0,0.0,3.8054,3.8858,0.0,4.0202,4.0285,4.0388,4.0474,4.051,4.0503,4.0496,4.0496,4.0496,4.0496,4.0496,4.0496,4.0496,4.0496,4.0496,4.0496,4.0496,4.0496,4.0496,4.0496,4.0546,4.061,4.06,4.0661,4.0711,4.0737,4.0736,4.0788,4.0918,4.0818,4.0541,4.0059,0.0,0.0,0.0,0.0,0.0,0.0,0.0,0.0,0.0,0.0,3.8597,3.7309,3.7638,3.7544,3.6654,3.6474,0.0,0.0,0.0,0.0,0.0,4.0148,0.0,0.0,0.0,4.0186,4.0186,4.0935,4.1675,4.2409,4.3293,4.4085,4.4778,4.4862,4.4895,4.4895,4.4895,4.4895,4.4895,4.487,4.4858,4.4858,4.4833,4.5166,4.5598,3.5201,0.0,0.0,0.0,0.0,0.0,0.0,3.7901,3.8245,3.7593,3.7713,3.8,3.8452,3.8702,3.9039,3.9556,3.921,3.9006,3.9069,3.8734,3.8562,3.859,3.8609,3.8624,3.8707,3.8442,3.7917,3.7095,0.0,0.0,0.0,0.0,0.0,0.0,0.0,3.6872,0.0,0.0,0.0,3.9818,4.0159,4.037,4.0449,4.0493,4.0495,4.0496,4.0496,4.0496,4.0496,4.0496,4.0496,4.0496,4.0496,4.0496,4.0496,4.0496,4.0496,4.0496,4.0496,4.0539,4.0595,4.06,4.0654,4.0739,4.092,4.0983,4.1039,4.1139,4.117,4.0897,3.9897,3.8904,0.0,0.0,0.0,0.0,0.0,0.0,0.0,0.0,0.0,0.0,0.0,3.8249,3.7887,3.6981,3.7352,3.7789,3.8212,0.0,0.0,0.0,0.0,0.0,0.0,0.0,0.0,4.0883,4.1663,4.2451,4.33,4.4068,4.463,4.501,4.4974,4.4931,4.4895,4.4895,4.4895,4.4895,4.4895,4.4895,4.4952,4.5407,4.5716,4.5887,0.0,3.5365,0.0,0.0,3.6794,0.0,3.7838,3.8895,3.9216,3.8068,3.804,3.8374,3.9016,3.9408,3.9911,4.0598,4.0089,3.9778,3.9826,3.9258,3.8869,3.875,3.8766,3.8742,3.8692,3.8707,3.8243,0.0,0.0,0.0,0.0,0.0,0.0,0.0,0.0,0.0,0.0,0.0,3.9292,3.9469,4.0074,4.0335,4.0379,4.0441,4.0471,4.05,4.05,4.0508,4.0496,4.0496,4.0496,4.0496,4.0496,4.0496,4.0496,4.0496,4.0496,4.0496,4.0496,4.0539,4.0595,4.06,4.0654,4.0732,4.0883,4.0949,4.1014,4.1091,4.1169,4.0897,3.9897,3.9262,0.0,0.0,0.0,0.0,0.0,0.0,0.0,0.0,0.0,0.0,3.9392,3.9141,3.8784,3.8112,3.8407,3.8371,3.7781,3.8404,3.8859,0.0,0.0,4.0244,4.0225,0.0,4.0864,4.1514,4.2485,4.3285,4.3952,4.4736,4.508,4.5014,4.501,4.4955,4.4895,4.4895,4.4895,4.4895,4.4895,4.5009,4.5255,4.5937,4.6328,4.6501,0.0,0.0,0.0,0.0,0.0,0.0,3.947,4.0045,4.0111,3.9329,3.9801,4.0255,4.0309,4.0365,4.0437,4.051,4.0562,4.0596,4.0596,4.0574,4.0294,3.9628,3.9591,3.931,3.8726,3.8707,3.8405,0.0,0.0,3.6863,0.0,0.0,0.0,0.0,0.0,0.0,0.0,3.9133,3.9591,4.0204,4.0281,4.03,4.0316,4.0316,4.0396,4.051,4.051,4.0495,4.0496,4.0496,4.0496,4.0496,4.0496,4.0496,4.0496,4.0496,4.0496,4.0496,4.0496,4.0539,4.0595,4.06,4.0654,4.0757,4.0945,4.1007,4.1044,4.1169,4.1191,4.0897,3.9897,4.0361,4.0639,0.0,0.0,0.0,0.0,0.0,4.103,4.0897,0.0,0.0,4.0384,4.0443,4.0352,0.0,3.8355,3.7833,3.8876,3.8792,3.9109,3.9948,0.0,4.0057,3.9935,4.0891,4.1418,4.1514,4.3058,4.3848,4.4015,4.4748,4.5103,4.5091,4.5033,4.4955,4.4895,4.4895,4.4895,4.4895,4.4895,4.5388,4.6089,4.6165,4.715,4.8445,0.0,0.0,0.0,0.0,0.0,0.0,0.0,4.0798,4.1107,4.0818,4.0619,4.0673,4.1162,4.1216,4.1397,4.1904,4.156,4.1307,4.1307,4.0942,4.0629,4.0367,4.0434,4.0134,3.9441,3.9423,3.8925,0.0,0.0,0.0,0.0,0.0,0.0,0.0,0.0,3.816,3.8922,3.9413,3.9881,4.0301,4.0301,4.03,4.0307,4.0307,4.0388,4.0502,4.0502,4.0495,4.0496,4.0496,4.0496,4.0496,4.0496,4.0496,4.0496,4.0496,4.0496,4.0496,4.0496,4.0523,4.0554,4.0593,4.0621,4.0694,4.0887,4.096,4.1037,4.1117,4.117,4.1074,4.0679,4.0441,4.036,4.0578,0.0,0.0,0.0,0.0,0.0,4.1025,0.0,4.0866,0.0,4.061,4.0507,0.0,0.0,3.9331,3.963,3.9727,3.9884,4.0091,0.0,4.0279,4.0128,4.1036,4.1762,4.2297,4.3413,4.4253,4.48,4.5039,4.5114,4.5045,4.4967,4.4919,4.4895,4.4895,4.5217,4.5672,4.5672,4.6184,4.698,4.751,4.813,4.8774,3.9254,0.0,3.9542,0.0,4.0359,4.055,4.1125,4.1705,4.2049,4.2049,4.156,4.1433,4.1995,4.2049,4.2285,4.2865,4.2375,4.2049,4.2049,4.1615,4.1287,4.1155,4.1241,0.0,4.0267,4.0249,3.9676,3.8484,3.7891,0.0,0.0,0.0,0.0,0.0,3.806,3.8542,3.8978,3.9629,4.0007,4.0186,4.0263,4.0444,4.0652,4.0652,4.0879,4.1215,4.1215,4.1237,4.1266,4.1266,4.1266,4.1189,4.0669,4.0496,4.0496,4.0496,4.0496,4.0496,4.0496,4.0496,4.0512,4.0579,4.06,4.0649,4.0819,4.0933,4.1014,4.1114,4.1169,4.1191,4.1191,4.062,4.036,4.1054,0.0,0.0,0.0,4.111,0.0,0.0,4.0964,4.0903,4.0893,4.0694,0.0,0.0,0.0,4.0504,4.0284,4.0451,4.0446,0.0,0.0,0.0,4.0558,4.1437,4.2316,4.3157,4.3997,4.4704,4.5297,4.5224,4.5148,4.5049,4.4955,4.4919,4.4938,4.5192,4.5634,4.6222,4.6449,4.7055,4.7851,4.8471,4.885,4.9134,3.9606,3.9756,4.0205,4.1452,4.1669,4.1959,4.2737,4.2883,4.2901,4.2901,4.2883,4.2883,4.2883,4.2901,4.2901,4.2901,4.2901,4.2901,4.2901,4.2883,4.2613,0.0,0.0,4.1696,4.1095,4.1077,4.0689,3.9879,0.0,0.0,3.7862,0.0,3.7521,3.8289,3.8296,3.8742,3.952,3.9785,3.9903,3.9924,4.0186,4.0788,4.1485,4.1485,4.2058,4.2878,4.2878,4.2951,4.3066,4.3066,4.3066,4.2777,4.1035,4.0496,4.0496,4.0496,4.0496,4.0496,4.0496,4.0496,4.0523,4.058,4.0598,4.0636,4.0773,4.0902,4.1047,4.117,4.1191,4.1191,4.1191,4.1191,4.1152,4.1112,0.0,0.0,0.0,0.0,0.0,4.0925,4.0899,4.0889,4.0889,4.091,0.0,0.0,0.0,0.0,0.0,0.0,0.0,4.0318,4.0296,0.0,4.1174,4.2255,4.3195,4.4006,4.4876,4.5288,4.5297,4.5224,4.5192,4.5192,4.5068,4.4991,4.5067,4.5848,4.6184,4.6278,4.7074,4.7921,4.8698,4.8698,4.921,4.9893,4.1315,4.1158,4.1181,4.1912,4.2022,4.2131,4.2382,4.2692,4.2901,4.2901,4.2901,4.2901,4.2901,4.2901,4.2901,0.0,4.2901,4.2901,0.0,4.2994,4.2959,4.2759,4.2886,4.2608,4.1873,4.1904,4.1534,4.0726,0.0,0.0,0.0,3.9295,3.9575,4.0207,4.0207,4.0455,4.0882,4.0947,4.123,4.1608,4.1692,4.2008,4.245,4.245,4.2659,4.297,4.297,4.3024,4.3104,4.3104,4.3104,4.3008,4.245,4.2277,4.2277,4.2277,4.2277,4.2151,4.1605,4.1416,4.1254,4.0726,4.06,4.0636,4.0773,4.0948,4.1085,4.1171,4.1191,4.1191,4.1191,4.1191,4.1191,4.1172,4.1132,0.0,4.1108,0.0,4.1073,4.1033,4.1048,4.1046,4.1046,4.1042,0.0,0.0,0.0,0.0,0.0,0.0,0.0,0.0,4.1416,0.0,4.2428,4.3225,4.3739,4.4006,4.4876,4.5286,4.5224,4.5203,4.5494,4.6001,4.5919,4.6206,4.6719,4.6929,4.7359,4.794,4.8187,4.8793,4.9514,4.9514,4.9684,4.9912,4.1888,4.1846,4.1867,4.2157,4.2358,4.2458,4.2458,4.2711,4.2901,4.2901,4.2901,4.2901,4.2901,4.2901,0.0,4.2901,4.2901,4.2901,4.2901,4.2975,4.3049,4.3104,4.3233,4.3103,4.2662,4.2712,0.0,4.1535,4.0883,4.0535,4.0535,4.0535,4.0738,4.1095,4.1095,4.119,4.1357,4.1445,4.1781,4.2229,4.2363,4.2779,4.334,4.3387,4.3615,4.3948,4.3948,4.3974,4.4028,4.4028,4.4028,4.4028,4.4028,4.4028,4.3912,4.3278,4.3104,4.2997,4.2487,4.2325,4.2179,4.1731,4.1635,4.1683,4.182,4.1944,4.1976,4.1699,4.1641,4.1562,4.1269,4.1191,4.1191,4.1172,4.1131,4.1109,4.1105,0.0,4.1088,0.0,0.0,0.0,0.0,4.1022,4.1015,0.0,0.0,0.0,0.0,0.0,0.0,4.1853,4.2251,4.2756,4.3401,4.38,4.4159,4.4494,4.5029,4.5439,4.5682,4.5682,4.6137,4.6923,4.683,4.7091,4.7578,4.7789,4.8219,4.8763,4.9053,4.9457,4.9912,4.9912,4.9912,4.9912,4.1481,4.1825,4.2115,0.0,4.2575,0.0,4.2844,4.2882,4.2901,4.2901,4.2901,4.2901,4.2901,4.2901,4.2901,4.2901,0.0,0.0,0.0,4.2901,4.2975,4.3086,4.3142,4.3251,4.3376,4.3464,4.313,4.2378,4.1627,4.126,4.126,4.126,4.126,4.126,4.126,4.1277,4.1326,4.157,4.1838,4.2139,4.2446,4.3234,4.4202,4.4279,4.4786,4.5504,4.5504,4.555,4.5594,4.5594,4.5594,4.5594,4.5594,4.5594,4.5287,4.372,4.3278,4.3267,4.32,4.3196,4.3204,4.3284,4.3352,4.3441,4.3572,4.3591,4.3383,4.2636,4.248,4.2266,4.1504,4.1367,4.1347,4.1288,4.1285,4.1262,4.1198,4.1192,4.1133,0.0,0.0,0.0,4.1094,4.1094,4.1145,0.0,0.0,0.0,0.0,0.0,4.2311,4.2188,4.2892,4.3578,4.4193,4.4133,4.4534,4.5404,4.5383,4.5812,4.6596,4.6596,4.7073,4.7884,4.775,4.7765,4.7914,4.8542,4.8833,4.896,4.9635,4.9893,4.9912,4.9912,4.9912,4.9912,0.0,0.0,4.1361,4.2074,4.2279,4.2378,4.2378,4.2673,4.2901,4.2901,4.2901,4.2901,4.2901,4.2901,4.2901,4.2901,4.2901,4.2901,4.2901,4.2901,4.2901,4.2938,4.3068,4.316,4.3251,4.3358,4.3355,4.3222,4.302,4.2928,4.2928,4.2928,4.2928,4.2928,4.2928,4.3061,4.332,4.3383,4.3709,4.4213,4.433,4.4703,4.5179,4.5234,4.5395,4.5577,4.5577,4.5586,4.5594,4.5594,4.5594,4.5594,4.5594,4.5594,4.5518,4.5114,4.5017,4.4872,4.4253,4.4098,4.3983,4.3507,4.3427,4.3497,4.358,4.3591,4.3559,4.3417,4.3398,4.332,4.3144,4.3105,4.3105,4.3086,4.3085,4.2848,4.2184,4.2099,4.207,0.0,4.2032,4.2301,4.2965,4.3045,4.3012,0.0,0.0,0.0,4.3244,4.3794,4.4089,4.4059,4.4159,4.4513,4.5157,4.5139,4.5571,4.6436,4.6298,4.6672,4.7483,4.7483,4.7971,4.8793,4.8712,4.9032,4.9616,4.9714,4.9759,4.9739,4.9916,4.9952,4.9912,4.9912,4.9912,4.9912,4.1771,4.1843,4.1964,4.2484,4.2736,4.2886,4.2886,4.331,4.3636,4.3636,4.3851,4.3987,4.3987,4.3987,4.3987,4.3987,4.3317,4.2901,4.2901,4.2901,4.2901,4.2901,4.303,4.3123,4.316,4.3323,4.3429,4.3515,4.3515,4.3515,4.3515,4.3515,4.3515,4.3515,4.3666,4.383,4.402,4.4136,4.4443,4.4861,4.4973,4.5191,4.5457,4.5568,4.5594,4.5594,4.5594,4.5594,4.5594,4.5594,4.5594,4.5594,4.5594,4.5594,4.5594,4.5594,4.5594,4.5516,4.5097,4.499,4.4943,4.4686,4.4685,4.4753,4.4812,4.4837,4.4722,4.4375,4.4297,4.418,4.3769,4.3691,4.3691,4.3691,4.3645,4.3462,4.3042,4.2946,4.2932,4.2992,4.2986,4.3177,4.3647,4.3705,4.3675,4.3604,4.3953,0.0,4.4187,4.4971,4.5177,4.4637,4.4988,4.5286,4.5498,4.5893,4.6336,4.6808,4.7007,4.7551,4.8391,4.8391,4.885,4.9633,4.9582,4.9799,5.0243,5.0145,5.0082,5.0044,5.0018,4.9965,4.9912,4.9912,4.9912,4.9912,4.2392,4.2723,4.3019,4.3093,4.3443,4.3711,4.3711,4.4165,4.4492,4.4492,4.497,4.5291,4.5291,4.5291,4.5291,4.5291,4.4041,4.3227,4.31,4.2973,4.2901,4.2901,4.3012,4.3086,4.3104,4.3305,4.3429,4.3515,4.3515,4.3515,4.3515,4.3515,4.3515,4.3496,4.3798,4.3989,4.4079,4.4303,4.4572,4.4879,4.4996,4.5191,4.5419,4.555,4.5586,4.5594,4.5594,4.5594,4.5594,4.5594,4.5594,4.5594,4.5594,4.5594,4.5594,4.5594,4.5594,4.5612,4.5676,4.5704,4.5801,4.6033,4.6147,4.6212,4.6288,4.6308,4.6094,4.5351,4.5195,4.4961,4.4238,4.4082,4.4082,4.4078,4.398,4.3909,4.3875,0.0,4.3765,4.387,4.3905,4.3957,4.4076,4.4096,4.4096,4.4096,4.4777,4.5207,4.5207,4.59,4.5878,4.4952,4.5618,4.591,4.5742,4.6565,4.7058,4.7192,4.7724,4.8449,4.927,4.927,4.9652,5.0302,5.0243,5.0255,5.029,5.0182,5.012,5.0108,5.0057,5.0005,4.9939,4.9939,4.992,4.9925,4.2809,4.2961,4.3118,4.3522,4.3664,4.3711,4.3711,4.4165,4.4492,4.4492,4.497,4.5291,4.5291,4.5291,4.5291,4.5291,4.5073,4.4639,4.3951,4.3262,4.2901,4.2901,4.2919,4.2994,4.3104,4.3305,4.3429,4.3515,4.3515,4.3515,4.3515,4.3515,4.3515,4.3496,4.3548,4.3873,4.4346,4.4369,4.4707,4.5235,4.5298,4.5361,4.541,4.5495,4.5559,4.5594,4.5594,4.5594,4.5594,4.5594,4.5594,4.5594,4.5594,4.5594,4.5594,4.5594,4.5594,4.5603,4.5673,4.5786,4.5906,4.6053,4.6147,4.6212,4.6288,4.6308,4.6269,4.6133,4.6094,4.6055,4.5918,4.5898,4.5858,4.5755,4.5809,4.5581,4.4754,0.0,4.4772,4.4796,4.4806,4.509,4.5831,4.589,4.589,4.589,4.6027,4.6105,4.6105,4.6232,4.6471,4.6846,4.6307,4.6249,4.6748,4.751,4.824,4.8914,4.8903,4.9328,5.0111,5.0111,5.0187,5.0302,5.029,5.029,5.0302,5.0278,5.0243,5.0175,5.0163,5.0133,5.007,5.007,5.0031,4.9973,4.3785,4.3866,4.3945,4.4147,4.4182,4.426,4.4513,4.5003,4.5468,4.5757,4.6248,4.6595,4.6595,4.6595,4.6595,4.6595,4.6196,4.5798,4.5417,4.4222,4.3534,4.3534,4.3118,4.2957,4.3104,4.3305,4.3429,4.3446,4.348,4.3515,4.3515,4.3515,4.3515,4.3515,4.3699,4.3996,4.4397,4.4546,4.4875,4.5307,4.5359,4.54,4.541,4.5466,4.5531,4.5594,4.5594,4.5594,4.5594,4.5594,4.5594,4.5594,4.5594,4.5594,4.5594,4.5594,4.5629,4.5651,4.5687,4.5771,4.5891,4.6068,4.6125,4.6167,4.6288,4.6308,4.6308,4.6308,4.6308,4.6308,4.6308,4.6308,4.6289,4.6223,4.62,0.0,4.5669,4.5599,4.5615,4.569,4.5703,4.5851,4.6261,4.63,4.63,4.63,4.6729,4.7002,4.7002,4.7409,4.7786,4.8092,4.7646,4.7533,4.7805,4.8497,4.9004,4.9298,4.9611,4.9939,5.0302,5.0302,5.0302,5.0302,5.0302,5.0302,5.0302,5.0302,5.0267,5.02,5.02,5.017,5.0095,5.0095,5.0057,5.0005,4.4703,4.4759,4.4786,4.4951,4.4934,4.5079,4.5433,4.5925,4.643,4.6863,4.7363,4.7717,4.7717,4.7717,4.7717,4.7717,4.7138,4.6794,4.6794,4.5454,4.4476,4.4114,4.3373,4.2994,4.3105,4.3305,4.3412,4.3411,4.348,4.3515,4.3515,4.3515,4.3515,4.3515,4.3781,4.4045,4.4318,4.4585,4.4898,4.5194,4.5328,4.539,4.541,4.5467,4.5522,4.5594,4.5594,4.5594,4.5594,4.5594,4.5594,4.5594,4.5594,4.5594,4.5594,4.5594,4.5654,4.5708,4.5708,4.5761,4.5841,4.6056,4.6098,4.6137,4.6267,4.6308,4.6308,4.6308,4.6308,4.6308,4.6308,4.6308,4.6289,4.6268,0.0,4.6171,4.6241,4.6199,4.6184,4.629,4.6306,4.63,4.63,4.6475,4.6593,4.6593,4.7393,4.7879,4.7879,4.8466,4.8894,4.9103,4.9005,4.89,4.8805,4.9504,4.9779,4.9606,5.0125,5.0359,5.0302,5.0302,5.0302,5.0302,5.0302,5.0302,5.0302,5.0302,5.0278,5.0212,5.0212,5.0175,5.0145,5.0145,5.0108,5.0038,4.5108,4.5241,4.5407,4.5918,4.5992,4.6017,4.6042,4.6519,4.6863,4.6886,4.7363,4.7717,4.7717,4.7717,4.7717,4.7717,4.7663,4.7627,4.7627,4.6812,4.5653,4.4168,4.3448,4.3123,4.3196,4.3323,4.3429,4.3497,4.3497,4.3515,4.3515,4.3515,4.3515,4.3515,4.3532,4.3732,4.4048,4.4318,4.4585,4.4868,4.5184,4.533,4.541,4.541,4.5495,4.5594,4.5594,4.5594,4.5594,4.5594,4.5594,4.5594,4.5594,4.5594,4.5594,4.5594,4.5654,4.5708,4.5708,4.5758,4.5854,4.6056,4.6098,4.6137,4.6267,4.6308,4.6308,4.6308,4.6308,4.6308,4.6308,4.6308,4.6268,4.6122,0.0,0.0,4.6126,4.6206,4.6297,4.6294,4.6306,4.63,4.63,4.7022,4.7508,4.7508,4.8252,4.8701,4.8701,4.8779,4.9161,4.9976,4.9987,4.9889,4.9703,5.0559,5.0819,5.0491,5.0558,5.0474,5.0302,5.0302,5.0302,5.0302,5.0302,5.0302,5.0302,5.0302,5.0302,5.029,5.029,5.029,5.029,5.029,5.0243,5.0194,4.5224,4.5588,4.585,4.6049,4.6098,4.6213,4.6566,4.6776,4.7017,4.7363,4.7575,4.7717,4.7717,4.7717,4.7717,4.7717,4.7717,4.7717,4.7717,4.7428,4.654,4.491,4.4249,4.3906,4.3869,4.3596,4.3445,4.3446,4.348,4.3515,4.3515,4.3515,4.3515,4.3515,4.3515,4.3682,4.402,4.4106,4.4402,4.48,4.4946,4.5148,4.54,4.54,4.5485,4.5594,4.5594,4.5594,4.5594,4.5594,4.5594,4.5594,4.5594,4.5594,4.5594,4.5594,4.5654,4.5708,4.5708,4.5754,4.5854,4.6056,4.6098,4.6137,4.6267,4.6308,4.6308,4.6308,4.6308,4.6308,4.6308,4.6308,4.6289,4.6226,0.0,4.6288,4.6233,4.6277,4.6494,4.7048,4.7102,4.7295,4.7803,4.8154,4.8349,4.8349,4.913,4.9616,4.9616,5.0126,5.0568,5.0903,5.0912,5.0801,5.0614,5.0804,5.0813,5.0606,5.0474,5.0374,5.0302,5.0302,5.0302,5.0302,5.0302,5.0302,5.0302,5.0302,5.0302,5.0302,5.0302,5.0302,5.0302,5.0302,5.0231,5.0133,4.5224,4.5724,4.6147,4.6334,4.6478,4.673,4.7107,4.7151,4.728,4.7657,4.7717,4.7717,4.7717,4.7717,4.7717,4.7717,4.7717,4.7717,4.7717,4.7717,4.7102,4.5784,4.5125,4.4654,4.4417,4.4052,4.3719,4.3429,4.348,4.3515,4.3515,4.3515,4.3515,4.3515,4.3515,4.3632,4.3862,4.3958,4.4265,4.4676,4.4763,4.5041,4.54,4.54,4.5485,4.5594,4.5594,4.5594,4.5594,4.5594,4.5594,4.5594,4.5594,4.5594,4.5594,4.5594,4.5654,4.5708,4.5708,4.5749,4.5841,4.6022,4.6084,4.6131,4.6241,4.6288,4.6308,4.6308,4.6308,4.6308,4.6308,4.6308,4.6308,4.6308,4.6523,4.6718,4.6712,4.6946,4.7332,4.7902,4.7978,4.8193,4.8759,4.9052,4.9208,4.9208,5.0028,5.0514,5.0514,5.1082,5.141,5.1399,5.1403,5.1316,5.1157,5.0985,5.0828,5.0662,5.0466,5.0363,5.0302,5.0302,5.0302,5.0302,5.0302,5.0302,5.0302,5.0302,5.0302,5.0302,5.0302,5.0302,5.0302,5.0302,5.0243,5.0158,4.5188,4.5742,4.6269,4.6817,4.7323,4.7717,4.7717,4.7717,4.7717,4.7717,4.7717,4.7717,4.7717,4.7717,4.7717,4.7717,4.7717,4.7717,4.7717,4.7717,4.7397,4.6739,4.6001,4.5294,4.462,4.4692,4.4323,4.3515,4.3515,4.3515,4.3515,4.3515,4.3515,4.3515,4.3515,4.3515,4.3513,4.3862,4.4166,4.4411,4.4688,4.5041,4.54,4.54,4.5485,4.5594,4.5594,4.5594,4.5594,4.5594,4.5594,4.5594,4.5594,4.5594,4.5594,4.5594,4.5654,4.5708,4.5708,4.5749,4.5822,4.5969,4.6059,4.6118,4.6173,4.6244,4.6308,4.6308,4.6308,4.6308,4.6308,4.6328,4.6328,4.6328,4.7051,4.7617,4.761,4.8351,4.8874,4.882,4.8818,4.8818,4.8818,4.9597,5.0104,5.0104,5.0906,5.1394,5.1394,5.1394,5.141,5.1399,5.1403,5.1369,5.1294,5.1176,5.0998,5.079,5.0671,5.0495,5.0302,5.0302,5.0302,5.0302,5.0302,5.0302,5.0302,5.0302,5.0302,5.0302,5.0302,5.0302,5.0302,5.0302,5.0302,5.029,4.525,4.6024,4.6707,4.6863,4.7323,4.7717,4.7717,4.7717,4.7717,4.7717,4.7717,4.7717,4.7717,4.7717,4.7717,4.7717,4.7717,4.7717,4.7717,4.7717,4.7674,4.7603,4.686,4.6389,4.6284,4.5792,4.5149,4.4342,4.4342,4.4048,4.3515,4.3515,4.3515,4.3515,4.3515,4.3515,4.3513,4.3862,4.4166,4.4411,4.4688,4.5041,4.54,4.54,4.5485,4.5594,4.5594,4.5594,4.5594,4.5594,4.5594,4.5594,4.5594,4.5594,4.5622,4.5648,4.5679,4.5715,4.5758,4.5783,4.5822,4.5969,4.6059,4.6118,4.6173,4.6244,4.6308,4.6308,4.6797,4.7207,4.7207,4.7715,4.8125,4.8125,4.834,4.8515,4.8509,4.8742,4.9108,4.9659,4.9714,4.995,5.0575,5.0867,5.1004,5.1004,5.1258,5.1394,5.1394,5.1394,5.141,5.1399,5.1403,5.1369,5.1294,5.1176,5.0998,5.079,5.0671,5.0495,5.0302,5.0302,5.0302,5.0302,5.0302,5.0302,5.0302,5.0302,5.0302,5.0302,5.0302,5.0302,5.0302,5.0302,5.0278,5.0243,4.525,4.6,4.666,4.6863,4.7323,4.7717,4.7717,4.7717,4.7717,4.7717,4.7717,4.7717,4.7717,4.7717,4.7717,4.7717,4.7717,4.7717,4.7717,4.7759,4.7845,4.7992,4.7576,4.7251,4.7036,4.6599,4.5993,4.5168,4.5168,4.4929,4.4433,4.4121,4.3975,4.3956,4.3626,4.3515,4.3496,4.3716,4.4026,4.443,4.4612,4.4966,4.541,4.5429,4.5504,4.5594,4.5594,4.5594,4.5594,4.5594,4.5594,4.5594,4.5594,4.5594,4.5603,4.5684,4.5695,4.5715,4.5773,4.6049,4.6331,4.6409,4.626,4.6209,4.6599,4.6745,4.6914,4.7266,4.7754,4.8105,4.8105,4.8535,4.8906,4.8906,4.9199,4.9394,4.9388,4.9679,5.0065,5.0557,5.0612,5.0828,5.1355,5.1394,5.1394,5.1394,5.1394,5.1394,5.1394,5.1394,5.1392,5.1406,5.1391,5.138,5.1333,5.1265,5.1078,5.079,5.0671,5.0495,5.0302,5.0302,5.0302,5.0302,5.0302,5.0302,5.0302,5.0302,5.0302,5.0302,5.0302,5.0302,5.0302,5.0302,5.0278,5.0243,4.5214,4.5724,4.6286,4.6817,4.7323,4.7717,4.7717,4.7717,4.7717,4.7717,4.7717,4.7717,4.7717,4.7717,4.7717,4.7717,4.7717,4.7717,4.7717,4.784,4.7925,4.7992,4.813,4.7879,4.7223,4.7204,4.6801,4.6012,4.6012,4.5975,4.5883,4.5149,4.4818,4.4835,4.4082,4.3749,4.3709,4.3724,4.4005,4.4452,4.4546,4.4908,4.5419,4.5485,4.5531,4.5594,4.5594,4.5594,4.5594,4.5594,4.5594,4.5594,4.5594,4.5652,4.5727,4.5808,4.5869,4.5955,4.6012,4.661,4.7212,4.7212,4.6768,4.652,4.731,4.7611,4.7949,4.873,4.8965,4.9023,4.9023,4.9062,4.9121,4.9121,4.9785,5.0292,5.0228,5.0891,5.1394,5.1396,5.1394,5.1394,5.1394,5.1394,5.1394,5.1394,5.1394,5.1394,5.1394,5.1394,5.1394,5.1394,5.1403,5.1399,5.1399,5.1403,5.12,5.082,5.0678,5.0526,5.0337,5.0314,5.0302,5.0302,5.0302,5.0302,5.0302,5.0302,5.0302,5.0302,5.0302,5.0302,5.0302,5.0302,5.0302,5.0302,4.5214,4.5724,4.6286,4.6817,4.7323,4.7717,4.7717,4.7717,4.7717,4.7717,4.7717,4.7717,4.7717,4.7717,4.7717,4.7717,4.7717,4.7717,4.7717,4.784,4.7925,4.7992,4.813,4.8154,4.803,4.8049,4.7664,4.6837,4.6837,4.6526,4.5902,4.5718,4.5769,4.6023,4.5838,4.5574,4.5238,4.5444,4.5255,4.4812,4.5079,4.5301,4.5485,4.5495,4.5531,4.5594,4.5594,4.5594,4.5594,4.5594,4.5594,4.5594,4.5594,4.6063,4.6637,4.6706,4.7209,4.7751,4.7828,4.7959,4.8121,4.8121,4.8057,4.8049,4.8285,4.8488,4.8672,4.8867,4.9433,4.9922,4.9922,5.043,5.0859,5.0859,5.1016,5.1132,5.1126,5.1281,5.1394,5.1396,5.1394,5.1394,5.1394,5.1394,5.1394,5.1394,5.1394,5.1394,5.1394,5.1394,5.1394,5.1394,5.1403,5.1399,5.1399,5.1403,5.1281,5.1027,5.0845,5.0675,5.0536,5.0374,5.0302,5.0302,5.0302,5.0302,5.0302,5.0302,5.0302,5.0302,5.0302,5.0302,5.0302,5.0302,5.0302,5.0302,4.5588,4.6098,4.666,4.7191,4.7511,4.7717,4.7717,4.7717,4.7717,4.7717,4.7717,4.7717,4.7717,4.7717,4.7738,4.778,4.7824,4.7847,4.7847,4.7986,4.8067,4.809,4.8189,4.8267,4.8306,4.8306,4.8104,4.7663,4.7663,4.7462,4.704,4.6818,4.6789,4.6973,4.6725,4.6499,4.6285,4.642,4.6328,4.6117,4.6317,4.6546,4.6733,4.6733,4.676,4.6797,4.6797,4.6797,4.6797,4.6797,4.6797,4.6797,4.6797,4.7122,4.7521,4.7601,4.7932,4.83,4.8384,4.8701,4.903,4.903,4.9375,4.9657,4.9298,4.933,4.9546,5.0,5.0469,5.0762,5.0762,5.1113,5.1406,5.1406,5.1406,5.1405,5.1399,5.1396,5.139,5.1396,5.1394,5.1394,5.1394,5.1394,5.1394,5.1394,5.1394,5.1394,5.1394,5.1394,5.1394,5.1394,5.1408,5.1406,5.1406,5.1399,5.1352,5.1238,5.0933,5.0723,5.0587,5.0396,5.0302,5.0302,5.0302,5.0302,5.0302,5.0302,5.0302,5.0302,5.0302,5.0302,5.0302,5.0302,5.0302,5.0302,4.6123,4.6572,4.7062,4.7615,4.7717,4.7717,4.7717,4.7717,4.7717,4.7717,4.7717,4.7717,4.7717,4.7717,4.778,4.7922,4.797,4.7992,4.7992,4.8128,4.8187,4.8187,4.8267,4.8306,4.8306,4.8306,4.8306,4.8306,4.8306,4.8306,4.8288,4.7955,4.7845,4.7891,4.7545,4.7344,4.7287,4.7269,4.7363,4.7512,4.759,4.7797,4.8107,4.8106,4.8105,4.8105,4.8105,4.8105,4.8105,4.8105,4.8105,4.8105,4.8105,4.8247,4.8435,4.8497,4.8615,4.876,4.8809,4.9359,4.9919,4.9919,5.0498,5.0897,5.0267,5.0168,5.0448,5.1249,5.1406,5.1406,5.1406,5.1406,5.1406,5.1406,5.1406,5.1404,5.1399,5.1394,5.1407,5.1396,5.1394,5.1394,5.1394,5.1394,5.1394,5.1394,5.1394,5.1394,5.1394,5.1394,5.1394,5.1394,5.1394,5.1394,5.1394,5.1394,5.1384,5.1339,5.0994,5.0747,5.0625,5.0399,5.0302,5.0302,5.0302,5.0302,5.0302,5.0302,5.0302,5.0302,5.0302,5.0302,5.0302,5.0302,5.0302,5.0302,4.6683,4.6863,4.7062,4.7615,4.7717,4.7717,4.7717,4.7717,4.7717,4.7717,4.7717,4.7717,4.7717,4.7801,4.7904,4.799,4.7992,4.7992,4.7992,4.8128,4.8187,4.8187,4.8267,4.8306,4.8306,4.8306,4.8306,4.8306,4.8306,4.8306,4.8288,4.8529,4.88,4.9068,4.932,4.9175,4.8807,4.8797,4.8463,4.7928,4.7999,4.8049,4.8096,4.8096,4.8105,4.8105,4.8105,4.8105,4.8105,4.8105,4.8105,4.8105,4.8105,4.865,4.9326,4.9335,4.9906,5.0542,5.055,5.0647,5.0743,5.0743,5.0836,5.0932,5.101,5.1082,5.1171,5.1367,5.1406,5.1406,5.1406,5.1406,5.1406,5.1406,5.1406,5.1404,5.1399,5.1394,5.1407,5.1396,5.1394,5.1394,5.1394,5.1394,5.1394,5.1394,5.1394,5.1394,5.1394,5.1394,5.1394,5.1394,5.1394,5.1394,5.1394,5.1394,5.1302,5.1137,5.0965,5.0852,5.0759,5.0446,5.0302,5.0302,5.0302,5.0302,5.0302,5.0302,5.0302,5.0302,5.0302,5.0302,5.0302,5.0302,5.0302,5.0302,4.6845,4.7129,4.7407,4.7657,4.7717,4.7717,4.7717,4.7717,4.7717,4.7717,4.7717,4.7717,4.7717,4.7845,4.8008,4.809,4.8149,4.817,4.817,4.8209,4.8247,4.8247,4.8287,4.8306,4.8306,4.8306,4.8306,4.8306,4.8306,4.8306,4.8306,4.8641,4.8984,4.9333,4.9702,4.9841,4.9824,4.986,4.9714,4.9459,4.9479,4.9519,4.9548,4.9548,4.9548,4.9548,4.9548,4.9548,4.9548,4.9548,4.9548,4.9558,4.9538,4.9852,5.0222,5.0267,5.0587,5.0898,5.0898,5.0898,5.0898,5.0898,5.0898,5.0942,5.1141,5.1229,5.1277,5.1385,5.1406,5.1406,5.1406,5.1406,5.1406,5.1406,5.1405,5.1401,5.1398,5.1409,5.14,5.1394,5.1394,5.1394,5.1394,5.1394,5.1394,5.1394,5.1394,5.1394,5.1394,5.1394,5.1394,5.1394,5.1394,5.1394,5.1394,5.1394,5.136,5.1258,5.1025,5.0835,5.0686,5.0413,5.0302,5.0302,5.0302,5.0302,5.0302,5.0302,5.0302,5.0302,5.0302,5.0302,5.0302,5.0302,5.0302,5.0302]}]]